[[[{"header":{"parameterUnit":"kt","parameterCategory":2,"dx":1,"dy":1,"la1":29.285339999999998,"la2":30.599998999999997,"lo1":-89.70041500000002,"lo2":-87.6738589999976,"nx":112,"ny":82,"refTime":"2022-10-03T12:00:00:Z","depth":0,"parameterNumber":1,"parameterNumberName":"U-component_of_WINDS"},"data":[6.8275,6.7499,6.5215,5.8443,5.3597,4.8381,4.0436,3.7857,3.653,3.422,3.3293,3.2927,3.2782,0.0,0.0,0.0,0.0,0.0,0.0,3.132,0.0,0.0,0.0,0.0,0.0,0.0,0.0,0.0,0.0,0.0,0.0,4.6746,4.7317,4.7791,4.7817,4.7817,4.7817,4.7817,4.7817,4.7817,4.8486,4.846,4.7843,4.901,4.9083,4.818,4.9187,4.8189,4.616,4.9222,4.9222,4.7512,5.0265,5.1291,5.1291,5.1291,5.1291,5.1291,5.1291,5.1291,5.1291,5.1291,4.902,4.6247,4.6247,4.3639,3.9946,3.6817,3.5544,3.5077,3.469,3.484,3.6272,4.0743,4.2051,4.2912,4.4997,4.5456,4.6454,4.9806,5.042,5.1353,5.4283,4.8553,4.209,3.7629,3.175,2.7795,2.7795,2.7795,2.7795,2.7795,2.7795,2.8221,2.9386,3.1449,3.3808,3.6565,3.9384,4.2775,4.7023,4.7178,4.8268,5.0618,4.9966,4.9321,4.8906,4.8616,4.8252,4.7843,4.8569,4.8906,6.8189,6.7539,6.5627,5.9179,5.4662,4.9594,4.0676,3.7777,3.6071,3.308,3.1339,3.041,3.0782,0.0,0.0,0.0,0.0,0.0,0.0,0.0,3.0779,3.0507,0.0,0.0,0.0,0.0,0.0,0.0,4.3045,0.0,4.6192,4.568,4.5522,4.5799,4.4573,4.3898,4.3898,4.3898,4.3898,4.3898,4.4329,4.4305,4.3922,4.6033,4.6569,4.5874,4.6794,4.5703,4.3618,4.6979,4.703,4.5292,4.9648,5.1291,5.1291,5.1291,5.1291,5.1291,5.1291,5.1291,5.1291,5.1291,4.7933,4.3831,4.3924,4.017,3.5233,3.2205,3.1004,3.0586,3.0249,3.0486,3.1851,3.5995,3.732,3.8223,4.0166,4.053,4.1532,4.4992,4.5705,4.6643,4.9652,4.3931,3.7967,3.5022,3.074,2.7795,2.7795,2.7795,2.7795,2.7795,2.7795,2.7636,2.7241,2.9469,3.12,3.2233,3.4902,3.844,4.2619,4.4124,4.6083,4.8536,4.9217,4.9499,4.9317,4.8928,4.8642,4.8413,4.9629,4.9966,6.6915,6.5534,6.3609,5.639,5.1932,4.7354,3.9777,3.7505,3.6132,3.3174,3.1316,3.0854,3.2871,0.0,0.0,0.0,0.0,0.0,0.0,2.881,2.8402,2.6655,0.0,0.0,0.0,3.7654,4.0211,0.0,4.3292,4.4316,4.5984,4.3492,4.1917,4.1845,3.8155,3.6175,3.6195,3.6195,3.6195,3.6195,3.6195,3.6195,3.6322,4.0075,4.1845,4.1817,4.2096,4.2593,4.3188,4.374,4.4216,4.5137,4.9392,5.1214,5.1291,5.1291,5.1291,5.1291,5.1291,5.1291,5.1291,5.1291,4.5794,3.9143,3.9349,3.3543,2.6828,2.6828,2.6631,2.6355,2.6133,2.6054,2.7074,3.11,3.2041,3.3437,3.8561,3.9628,3.9881,4.0823,4.0999,4.0999,4.1167,3.7375,3.4359,3.4359,3.0569,2.7795,2.7795,2.7795,2.7795,2.7795,2.7795,2.7557,2.6881,2.6828,2.828,3.1867,3.2041,3.4029,3.8302,4.2441,4.427,4.3392,4.7441,4.9317,4.8772,4.8772,4.9057,4.9629,5.0771,5.0719,6.3304,6.2292,6.0988,5.5646,5.3151,5.0143,4.3036,3.9456,3.7034,3.4853,3.097,0.0,0.0,0.0,0.0,0.0,0.0,3.0352,3.0215,2.8587,2.6005,2.2525,0.0,0.0,0.0,3.6855,3.9135,4.3046,4.4213,4.3924,4.2021,4.1943,4.0658,3.7862,3.6689,3.6259,3.6424,3.6424,3.6424,3.6424,3.6424,3.6342,3.6175,3.7276,3.79,3.808,3.8129,3.8618,3.9389,3.9512,3.9917,4.0818,4.4981,4.862,5.1291,5.1291,5.1291,5.1291,5.1291,5.1291,5.1291,5.1291,4.5794,3.9143,3.9349,3.3724,2.7188,2.6881,2.6762,2.6591,2.6173,2.6054,2.6363,2.7476,2.7783,2.8275,3.0042,3.0423,3.16,3.5632,3.6378,3.746,4.0662,3.4784,2.9656,2.9656,2.8555,2.7795,2.7795,2.7795,2.7795,2.7795,2.7795,2.7636,2.7267,2.6946,2.7153,2.8,2.7829,2.9613,3.387,3.7737,4.1122,4.3892,4.7267,4.9109,4.9369,4.9369,4.9447,4.9629,5.0771,5.1135,6.2132,6.0965,5.9706,5.4941,5.3584,5.1433,4.3933,4.0435,3.8115,3.5694,0.0,0.0,0.0,0.0,0.0,0.0,3.1787,3.1759,2.9445,2.8548,2.6747,2.3102,0.0,0.0,3.1276,3.5082,3.898,4.3575,4.3293,4.217,4.0709,3.8339,3.5935,3.3671,3.2144,3.1436,3.1581,3.1749,3.1834,3.1817,3.1665,3.1479,3.1409,3.3109,3.3981,3.4237,3.6216,3.7403,3.8027,4.001,4.1037,4.1524,4.3968,4.6403,4.8851,5.065,5.1291,5.1291,5.1291,5.1291,5.1291,5.1291,4.5655,3.8609,3.7279,3.2284,2.7122,2.6867,2.6815,2.6683,2.6199,2.6054,2.6054,2.6054,2.6054,2.6212,2.6697,2.6815,2.7823,3.1119,3.175,3.2603,3.5123,3.1253,2.7795,2.7795,2.7795,2.7795,2.7795,2.7795,2.7795,2.7795,2.7795,2.7623,2.7201,2.692,2.6644,2.6331,2.6146,2.7154,2.9597,3.341,3.7271,4.0991,4.4633,4.7513,4.9603,4.9603,4.8914,4.7683,5.0368,5.1654,6.1937,6.01,5.8547,5.4105,5.2941,5.1014,4.3964,0.0,3.9782,3.6901,0.0,3.0678,3.2584,0.0,0.0,3.2764,3.5026,3.4453,2.8483,2.954,2.9779,2.6771,2.4046,2.3617,2.6573,3.3271,3.9461,4.4261,4.189,4.0324,4.0549,3.433,3.043,2.9463,2.6386,2.4685,2.4725,2.5169,2.5315,2.5315,2.4933,2.4725,2.4865,2.846,3.036,3.1082,3.5387,3.7815,3.8979,4.2679,4.4514,4.4981,4.5448,4.5603,4.6015,4.9315,5.0573,5.0496,5.0034,4.988,4.988,4.988,4.4825,3.7963,3.4272,3.0131,2.6815,2.6815,2.6815,2.6683,2.6199,2.6054,2.6054,2.6054,2.6081,2.6252,2.671,2.6854,2.7038,2.7689,2.7795,2.7795,2.7795,2.7795,2.7795,2.7795,2.7795,2.7795,2.7795,2.7795,2.7795,2.7795,2.7768,2.7518,2.6867,2.6789,2.6539,2.6081,2.6054,2.6054,2.6054,2.9597,3.3273,3.6846,4.1147,4.5102,4.8908,4.9431,4.7785,4.437,4.8614,5.0845,5.8336,5.5265,5.3183,5.287,4.9702,4.6914,0.0,0.0,0.0,4.3355,4.0616,3.7844,3.6214,3.5511,3.563,3.7052,3.6138,3.4941,3.4271,3.4979,3.4182,3.0385,2.9857,3.0036,3.0745,3.5302,4.0181,4.4814,4.4996,4.2396,3.6658,3.5501,3.2044,2.5638,2.4957,2.4868,2.5183,2.546,2.5606,2.5606,2.5315,2.5183,2.5183,2.5609,2.7965,3.1731,3.2644,3.7075,4.3346,4.0933,4.1837,4.5214,4.8774,5.0111,4.9802,4.7101,4.617,4.5681,4.2306,4.1132,4.1132,4.1132,4.0033,3.7927,3.3723,2.9842,2.6815,2.6815,2.6815,2.6683,2.6199,2.6054,2.6054,2.6054,2.6239,2.6421,2.6749,2.7096,2.7373,2.7729,2.7795,2.7795,2.7795,2.7795,2.7795,2.7795,2.7795,2.7795,2.7795,2.7795,2.7795,2.7795,2.7584,2.7294,2.6854,2.6618,2.6342,2.6067,2.6054,2.6054,2.6054,2.6846,3.0311,3.677,4.0801,4.3458,4.4572,4.8441,4.6872,4.0223,4.118,4.3471,5.7031,5.3774,5.1445,5.1964,4.9116,0.0,0.0,4.6483,4.4779,4.4008,4.1879,3.9616,3.7588,3.7449,3.7734,3.802,3.7992,3.8013,3.8466,3.7614,3.6271,3.4528,3.3319,3.2848,3.3307,3.6981,4.0382,4.279,4.3445,4.2235,3.8816,3.7081,3.3449,2.7406,2.7507,2.6942,2.5275,2.5553,2.5685,2.5685,2.5407,2.5275,2.5275,2.5039,2.6352,2.8974,3.3369,3.7793,4.1915,4.4124,4.3734,4.1993,4.4124,4.4981,4.4747,4.2541,4.1759,4.1445,3.9404,3.8754,3.8851,3.8851,3.7571,3.5568,3.3404,3.0005,2.6789,2.6657,2.671,2.6683,2.6199,2.6054,2.6054,2.6054,2.616,2.6302,2.6723,2.7017,2.7267,2.7716,2.7795,2.7795,2.7795,2.7795,2.7795,2.7795,2.7795,2.7795,2.7795,2.7795,2.7795,2.7795,2.7531,2.7228,2.6841,2.6565,2.6289,2.6067,2.6054,2.6054,2.6054,2.5909,2.7561,3.1244,3.5126,3.8139,4.0359,4.3177,4.1602,3.6033,3.8203,4.1606,5.6434,5.3598,5.1365,5.2051,4.9686,0.0,4.8064,4.7321,4.6205,4.5233,4.3361,4.1385,3.9635,3.9133,3.8825,3.8441,3.9838,4.1111,4.1344,3.945,3.8321,3.8934,3.7075,3.6032,3.6817,3.9591,4.1501,4.1718,4.2095,4.2253,4.204,3.8301,3.4372,3.038,2.9788,2.8153,2.5275,2.5487,2.5606,2.5606,2.5315,2.5249,2.5354,2.5302,2.5918,2.7352,3.4365,3.7907,3.9247,4.6015,4.4825,3.8696,3.8696,3.8696,3.8617,3.775,3.7434,3.7295,3.6578,3.642,3.6615,3.667,3.4585,3.1993,3.1993,2.9668,2.6867,2.6727,2.6697,2.6697,2.6265,2.6094,2.6054,2.6054,2.6094,2.6265,2.6644,2.6828,2.7135,2.761,2.7716,2.7729,2.7781,2.7795,2.7795,2.7795,2.7795,2.7795,2.7795,2.7795,2.7768,2.7716,2.7439,2.7149,2.6762,2.6486,2.6223,2.6067,2.6054,2.6054,2.6054,2.5764,2.5659,2.5606,2.9465,3.3044,3.6273,3.7016,3.5821,3.2918,3.5648,3.936,0.0,0.0,0.0,5.4274,5.0579,0.0,5.3759,5.3896,5.3018,5.3665,5.142,4.8464,4.5478,4.2673,4.0721,4.0669,4.0877,4.1396,4.2409,4.2335,4.2516,4.3634,4.3874,4.4009,4.4136,4.503,4.5639,4.5621,4.6089,4.511,4.2185,3.8301,3.4429,3.0759,2.7213,2.5342,2.5275,2.5302,2.5315,2.5315,2.4933,2.5065,2.5632,2.5381,2.7584,3.1594,3.2582,3.514,3.8774,3.9719,3.9561,3.8696,3.8696,3.8696,3.8223,3.4426,3.2996,3.2489,2.9,2.7839,2.7909,2.8076,2.7855,2.7563,2.7563,2.7418,2.7294,2.7352,2.7083,2.6749,2.6447,2.6252,2.6054,2.6054,2.6252,2.6381,2.6447,2.6938,2.7404,2.7386,2.7484,2.7491,2.7755,2.7795,2.7795,2.7795,2.7795,2.7795,2.7795,2.7795,2.7689,2.7425,2.7135,2.6762,2.6473,2.6265,2.6081,2.6054,2.6054,2.6054,2.6054,2.5764,2.5566,2.5328,2.9358,3.1808,3.2499,3.2566,3.2737,3.2756,2.9471,3.022,0.0,0.0,5.1474,5.2389,0.0,0.0,5.5267,5.5152,5.4285,5.5917,5.384,5.0588,4.6639,4.4736,4.3244,4.134,4.1318,4.1874,4.2617,4.3383,4.4241,4.5386,4.5993,4.646,4.6728,4.6961,4.7188,4.7188,4.7395,4.6915,4.5439,4.3826,4.0163,3.4076,3.2214,2.9276,2.5011,2.4933,2.4933,2.4933,2.4986,2.5209,2.5447,2.5487,2.6676,2.8731,3.126,3.3314,3.4743,3.2296,3.1276,3.1276,3.1276,3.1276,3.1116,2.9292,2.8651,2.8468,2.6955,2.6513,2.6697,2.7069,2.728,2.7425,2.7425,2.7267,2.7122,2.7391,2.7017,2.6552,2.6447,2.6315,2.6265,2.6094,2.6146,2.6278,2.6368,2.6687,2.6898,2.7056,2.7228,2.7452,2.7742,2.7795,2.7795,2.7795,2.7795,2.7795,2.7795,2.7795,2.7689,2.7471,2.7083,2.671,2.6434,2.6226,2.6054,2.6054,2.6054,2.6054,2.6054,2.5764,2.5712,2.5685,2.7113,2.8078,2.8505,2.8643,2.8803,2.9064,2.7295,2.8752,5.2326,0.0,0.0,0.0,0.0,0.0,5.7761,5.8023,5.756,5.873,5.6653,5.3289,4.9227,4.7058,4.5099,4.2783,4.2121,4.2265,4.3149,4.4137,4.5188,4.6512,4.7032,4.7447,4.7765,4.7817,4.7817,0.0,4.7817,4.7817,4.7817,4.7817,4.479,3.8048,3.5645,3.1864,2.6403,2.5271,2.4672,2.4672,2.6263,2.7002,2.7087,2.7298,2.7487,2.7863,2.9758,3.0542,3.0317,2.7315,2.6054,2.6054,2.6054,2.6054,2.6054,2.6054,2.6054,2.6094,2.6302,2.6539,2.6775,2.7228,2.759,2.7676,2.7676,2.7373,2.7069,2.7294,2.7056,2.6727,2.6727,2.6608,2.6423,2.612,2.6054,2.6107,2.6236,2.6289,2.6368,2.6657,2.703,2.732,2.7623,2.7742,2.7795,2.7795,2.7795,2.7795,2.7795,2.7729,2.7557,2.7254,2.6881,2.6591,2.6397,2.6173,2.6054,2.6054,2.6133,2.6173,2.6173,2.5962,2.5909,2.6041,2.5725,2.5672,2.5922,2.7429,2.7526,2.6252,2.7621,2.9183,0.0,0.0,0.0,5.577,5.6653,5.7869,6.2936,6.4955,6.5441,6.4353,6.1566,5.8439,5.5475,4.995,4.5824,4.5764,4.3642,4.2551,4.4215,4.4928,4.5872,4.7558,4.7791,4.7791,4.7817,4.7817,4.7817,4.7817,4.7817,4.7817,4.7817,4.7817,4.6073,4.2328,3.4466,3.0387,3.0538,2.6632,2.4672,2.4749,2.9148,3.1411,3.1677,3.1693,3.1873,3.1882,2.7944,2.6202,2.6202,2.6122,2.6054,2.6054,2.6054,2.6054,2.6054,2.6054,2.6054,2.6094,2.6302,2.6421,2.6513,2.7162,2.7444,2.7457,2.7457,2.7444,2.7431,2.7431,2.7418,2.7418,2.7418,2.6911,2.6423,2.612,2.6054,2.6054,2.6054,2.6067,2.6146,2.6368,2.6644,2.6933,2.732,2.761,2.7795,2.7795,2.7795,2.7795,2.7795,2.7544,2.7254,2.6867,2.6591,2.6302,2.6081,2.6054,2.6054,2.6054,2.6318,2.6394,2.6394,2.6394,2.6331,2.6054,2.6318,2.6173,2.5698,3.0421,3.0245,2.5804,3.0437,3.0332,5.1749,5.2394,5.4057,5.7639,5.9309,6.1709,6.7756,6.8381,6.818,6.9694,6.614,6.1756,5.8627,5.6368,5.3623,4.959,4.7096,4.5345,4.4651,4.536,4.6408,4.7661,4.7817,4.7817,4.7817,4.7817,4.7817,4.7817,4.7817,4.7817,4.7817,4.7817,4.7247,4.6025,4.082,3.6963,3.4877,3.0765,2.8841,2.9225,2.8101,2.7692,2.7727,2.7942,2.8084,2.8024,2.6685,2.6054,2.6054,2.6054,2.6054,2.6054,2.6054,2.6054,2.6054,2.6054,2.6054,2.6094,2.6302,2.6407,2.6473,2.6938,2.7056,2.7056,2.7056,2.7056,2.7056,2.7056,2.7201,2.7444,2.7444,2.7299,2.6938,2.6463,2.6186,2.6054,2.6054,2.6054,2.6133,2.6355,2.6631,2.692,2.7391,2.7597,2.7795,2.7795,2.7795,2.7729,2.7531,2.7497,2.7162,2.6605,2.646,2.6371,2.6067,2.6054,2.6054,2.6054,2.6331,2.6407,2.6407,2.6407,2.6621,2.6911,2.6437,2.6094,2.5896,2.774,2.7756,2.6199,2.7838,2.7812,5.1435,5.2349,5.4427,5.9025,6.1982,6.5256,7.0784,7.1825,7.1913,7.2745,6.9933,6.614,6.1995,6.0511,5.7971,5.1839,4.9202,4.7153,4.5058,4.5672,4.6616,4.7687,4.7817,4.7817,4.7817,4.7817,4.7817,4.7817,4.7817,4.7817,4.7817,4.7817,4.7817,4.7817,4.5367,4.2368,3.8813,3.3462,3.1143,3.1582,2.9211,2.8029,2.8043,2.8164,2.8265,2.8184,2.6685,2.6054,2.6054,2.6054,2.6054,2.6054,2.6054,2.6054,2.6054,2.6054,2.6054,2.6081,2.6265,2.6331,2.6302,2.6578,2.667,2.6697,2.6789,2.6815,2.6841,2.703,2.7201,2.7457,2.7478,2.7524,2.7228,2.667,2.6423,2.6173,2.6067,2.6054,2.6107,2.6305,2.6565,2.6881,2.7162,2.7531,2.7795,2.7795,2.7795,2.7689,2.7471,2.7254,2.7017,2.646,2.6397,2.6252,2.6067,2.6054,2.6094,2.6199,2.6394,2.6552,2.6552,2.674,2.6872,2.7043,2.6489,2.6107,2.5896,2.6081,2.6173,2.6173,2.6278,2.6331,5.2638,5.2507,5.3337,6.0447,6.4764,6.8353,7.2256,7.5202,7.6412,7.3675,7.3004,7.1188,6.5655,6.284,5.9147,5.2439,5.0026,4.8107,4.5635,4.5811,4.659,4.7687,4.7817,4.7817,4.7817,4.7817,4.7817,4.7817,4.7817,4.7817,4.7817,4.7817,4.7817,4.7817,4.7817,4.604,4.2353,3.544,3.2091,3.2163,3.2274,3.2121,3.1961,3.1961,3.1961,3.1722,2.7783,2.6054,2.6054,2.6054,2.6054,2.6054,2.6054,2.6054,2.6054,2.6054,2.6054,2.6054,2.6054,2.6054,2.6094,2.6371,2.6381,2.6434,2.6697,2.6802,2.6881,2.7254,2.7444,2.7524,2.7729,2.7584,2.7294,2.6894,2.6618,2.6342,2.612,2.6054,2.6054,2.6054,2.6421,2.6802,2.6802,2.7373,2.7768,2.7755,2.7768,2.7663,2.7346,2.7056,2.6697,2.6421,2.6212,2.6054,2.6054,2.6054,2.6173,2.6394,2.667,2.6828,2.6841,2.7175,2.7056,2.6447,2.6368,2.6146,2.5659,2.5698,2.5698,2.5685,2.5922,2.6067,5.2925,5.479,5.7744,6.5081,6.7594,6.9614,7.4899,7.6664,7.6915,7.6261,7.4389,7.1991,6.8967,6.7911,6.4193,5.3975,5.1951,5.0213,4.5894,4.5405,4.6149,4.7635,4.7817,4.7817,4.7817,4.7817,4.7817,4.7817,4.7817,4.7817,4.7817,4.7817,4.7817,4.7817,4.7817,4.7314,4.6328,4.5006,4.1631,3.6322,3.3602,3.0621,2.7636,2.7636,2.7636,2.7556,2.6524,2.6054,2.6054,2.6054,2.6054,2.6054,2.6054,2.6054,2.6054,2.6054,2.6054,2.6054,2.6054,2.6054,2.6067,2.6133,2.616,2.6173,2.6239,2.6486,2.6841,2.6907,2.7346,2.7702,2.7781,2.7742,2.7557,2.6946,2.6762,2.6578,2.616,2.6054,2.6054,2.6054,2.6344,2.6513,2.6513,2.7083,2.7386,2.7078,2.732,2.728,2.6779,2.6565,2.6407,2.6199,2.6094,2.6054,2.6054,2.6054,2.6173,2.6394,2.667,2.692,2.7228,2.6898,2.6657,2.671,2.5962,2.5526,2.5381,2.5725,2.583,2.5698,2.6133,2.6265,5.3391,5.5678,5.8823,6.6698,6.8595,7.0083,7.5858,7.7165,7.7165,7.7165,7.5909,7.3743,7.0411,7.0118,6.658,5.4889,5.3109,5.1473,4.64,4.5431,4.5898,4.7609,4.7817,4.7817,4.7817,4.7817,4.7817,4.7817,4.7817,4.7817,4.7817,4.7817,4.7817,4.7817,4.7817,4.7817,4.7817,4.846,4.5932,4.0206,3.4854,3.1021,2.8731,2.6927,2.6054,2.6054,2.6054,2.6054,2.6054,2.6054,2.6054,2.6054,2.6054,2.6054,2.6054,2.6054,2.6054,2.6054,2.6054,2.6054,2.6054,2.6054,2.6054,2.6067,2.6212,2.6473,2.6854,2.7069,2.7439,2.7795,2.7795,2.7795,2.7676,2.7215,2.692,2.6697,2.6344,2.6146,2.6054,2.6054,2.6292,2.6407,2.6407,2.6859,2.7096,2.6841,2.7043,2.699,2.6473,2.6407,2.6302,2.6081,2.6054,2.6054,2.6054,2.6054,2.6226,2.6565,2.6736,2.6894,2.7149,2.6727,2.6355,2.6331,2.5329,2.4878,2.4878,2.525,2.5461,2.5513,2.5896,2.6081,5.4175,5.5898,5.82,6.657,6.8595,7.0083,7.5858,7.7165,7.7165,7.7165,7.7165,7.5685,7.0858,7.0583,6.726,5.5426,5.3622,5.1966,4.6839,4.5577,4.582,4.7609,4.7817,4.7817,4.7817,4.7817,4.7817,4.7817,4.7817,4.7817,4.7817,4.7817,4.7817,4.7817,4.7817,4.7817,4.7817,4.8382,4.7164,4.4121,3.6512,3.234,3.134,2.7703,2.6054,2.6054,2.6054,2.6054,2.6054,2.6054,2.6054,2.6054,2.6054,2.6054,2.6054,2.6054,2.6054,2.6054,2.6054,2.6054,2.6054,2.6054,2.6054,2.6094,2.6357,2.6565,2.6881,2.7215,2.7531,2.7795,2.7795,2.7795,2.7729,2.7425,2.7122,2.6749,2.6513,2.6278,2.6054,2.6054,2.6252,2.6355,2.6355,2.6578,2.6749,2.671,2.6736,2.667,2.6381,2.6355,2.6331,2.6081,2.6054,2.6054,2.6054,2.6054,2.6278,2.6736,2.6762,2.6789,2.6815,2.6473,2.6094,2.5579,2.4709,2.4301,2.4301,2.4643,2.4933,2.5275,2.5593,2.5804,5.5816,5.6936,5.82,6.657,6.8595,7.0083,7.5858,7.7165,7.7165,7.7165,7.7165,7.5872,7.1685,7.1061,6.7318,5.5674,5.3454,5.1387,4.6161,4.498,4.5422,4.7558,4.7817,4.7817,4.7817,4.7817,4.7817,4.7817,4.7817,4.7817,4.7817,4.7817,4.7817,4.7817,4.7817,4.7817,4.7817,4.7921,4.8127,4.8386,4.0051,3.2939,2.7074,2.6363,2.6054,2.6054,2.6054,2.6054,2.6054,2.6054,2.6054,2.6054,2.6054,2.6054,2.6054,2.6054,2.6054,2.6054,2.6054,2.6054,2.6054,2.6054,2.6054,2.6054,2.6107,2.6489,2.6828,2.6881,2.7373,2.7795,2.7795,2.7795,2.7729,2.7425,2.7122,2.6802,2.6762,2.6342,2.6054,2.6054,2.6094,2.612,2.612,2.6371,2.6394,2.6239,2.6329,2.6381,2.616,2.612,2.6107,2.6054,2.6054,2.6054,2.6054,2.6054,2.6199,2.646,2.6486,2.6578,2.6815,2.616,2.5487,2.483,2.4498,2.4301,2.4301,2.4854,2.5222,2.5288,2.5725,2.6001,5.2826,5.4615,5.6123,6.0905,6.544,6.9713,7.3979,7.6061,7.6714,7.5252,7.4947,7.3987,7.0972,6.8143,6.3359,5.4652,5.1644,4.9144,4.5759,4.4824,4.5292,4.7532,4.7817,4.7817,4.7817,4.7817,4.7817,4.7817,4.7817,4.7817,4.7817,4.7817,4.6857,4.4862,4.4789,4.3826,4.1772,4.1749,4.2135,4.2937,3.9023,3.4343,2.904,2.6841,2.5896,2.6054,2.6054,2.6054,2.6054,2.6054,2.6054,2.6054,2.6054,2.6054,2.6054,2.6054,2.6054,2.6054,2.6054,2.6054,2.6054,2.6054,2.6054,2.6054,2.6054,2.645,2.6815,2.6815,2.7249,2.7795,2.7795,2.7795,2.7755,2.7623,2.736,2.7096,2.6854,2.6499,2.6239,2.6081,2.6054,2.6054,2.6054,2.6173,2.6212,2.6067,2.6173,2.6212,2.6067,2.6054,2.6054,2.6054,2.6054,2.6054,2.6054,2.6054,2.6173,2.6394,2.6407,2.6407,2.6381,2.5777,2.5184,2.4672,2.4446,2.4301,2.4301,2.4984,2.5275,2.5288,2.5777,2.6054,5.0024,5.2073,5.3496,5.5268,6.0451,6.6143,7.0034,7.1594,7.1969,7.1112,7.0948,7.057,6.9364,6.4957,5.9554,5.37,4.9875,4.7033,4.5373,4.4746,4.5292,4.7532,4.7817,4.7817,4.7817,4.7817,4.7817,4.7817,4.7817,4.7817,4.7817,4.7817,4.604,4.2135,4.199,4.0075,3.6175,3.6175,3.6392,3.6955,3.6253,3.4471,3.1772,2.7555,2.5764,2.6054,2.6054,2.6054,2.6054,2.6054,2.6054,2.6054,2.6054,2.6054,2.6054,2.6054,2.6054,2.6054,2.6054,2.6054,2.6054,2.6054,2.6054,2.6054,2.6054,2.645,2.6815,2.6815,2.7249,2.7795,2.7795,2.7795,2.7795,2.7795,2.7571,2.7267,2.6881,2.6605,2.6329,2.6107,2.6054,2.6054,2.6054,2.6054,2.6054,2.6054,2.6054,2.6054,2.6054,2.6054,2.6054,2.6054,2.6054,2.6054,2.6054,2.6054,2.6146,2.6302,2.6397,2.6265,2.5962,2.554,2.5026,2.458,2.4419,2.4327,2.4393,2.5011,2.5302,2.5368,2.5804,2.6054,5.119,5.1421,5.11,5.3633,5.3996,5.5695,6.2966,6.0176,5.7786,6.3427,6.4625,6.5135,6.6801,6.3756,5.9166,5.3879,4.9664,4.6535,4.4783,4.4553,4.5292,4.7532,4.7817,4.7817,4.7817,4.7817,4.7817,4.7817,4.7817,4.7817,4.7817,4.7817,4.604,4.2135,4.199,4.0075,3.6175,3.6175,3.6392,3.688,3.3125,3.1483,3.1772,2.7555,2.5764,2.6054,2.6054,2.6054,2.6054,2.6054,2.6054,2.6054,2.6054,2.6054,2.6054,2.6054,2.6054,2.6054,2.6054,2.6054,2.6054,2.6054,2.6054,2.6054,2.6054,2.645,2.6815,2.6815,2.7249,2.7795,2.7795,2.7795,2.7795,2.7795,2.7571,2.7267,2.6881,2.6605,2.6329,2.6107,2.6054,2.6054,2.6054,2.6054,2.6054,2.6054,2.6054,2.6054,2.6054,2.6054,2.6054,2.6054,2.6054,2.6054,2.6054,2.6054,2.6054,2.6081,2.6094,2.5962,2.5738,2.5434,2.4997,2.4353,2.4314,2.4432,2.4633,2.5116,2.5407,2.5659,2.5896,2.6054,4.525,4.6181,4.6918,4.8092,4.7872,4.8596,5.324,4.8108,4.492,5.3544,5.5325,5.693,6.2237,5.7262,5.2291,5.2257,4.7607,4.4111,4.4466,4.4501,4.5292,4.7532,4.7817,4.7817,4.7817,4.7817,4.7817,4.7817,4.7817,4.7817,4.7817,4.7817,4.4934,3.8667,3.8447,3.544,2.9107,2.9032,2.9095,2.9313,2.7808,2.7397,2.7832,2.6218,2.5685,2.6054,2.6054,2.6054,2.6054,2.6054,2.6054,2.6054,2.6054,2.6054,2.6054,2.6054,2.6054,2.6054,2.6054,2.6054,2.6054,2.6054,2.6054,2.6054,2.6054,2.645,2.6815,2.6815,2.7249,2.7795,2.7795,2.7795,2.7795,2.7795,2.7702,2.7491,2.692,2.6736,2.6526,2.6133,2.6054,2.6054,2.6054,2.6054,2.6054,2.6054,2.6054,2.6054,2.6054,2.6054,2.6054,2.6054,2.6054,2.6054,2.6054,2.6054,2.6054,2.6054,2.6054,2.5764,2.5118,2.4986,2.4722,2.4314,2.4472,2.463,2.4672,2.521,2.5579,2.5685,2.5909,2.6054,4.1988,4.2359,4.2952,4.3645,4.1847,4.0826,4.4263,3.8729,3.495,4.2512,4.7224,5.1951,5.842,5.3878,4.9717,5.1448,4.6915,4.3401,4.4139,4.4397,4.5308,4.7395,4.7713,4.7817,4.7817,4.7817,4.7314,4.6184,4.6112,4.5608,4.4428,4.4332,4.1313,3.4556,3.4335,3.1098,2.4376,2.4301,2.4301,2.4301,2.4512,2.4815,2.5275,2.5354,2.558,2.6054,2.6054,2.6054,2.6054,2.6054,2.6054,2.6054,2.6054,2.6054,2.6054,2.6054,2.6054,2.6054,2.6054,2.6054,2.6054,2.6054,2.6054,2.6067,2.616,2.6434,2.6841,2.6933,2.7399,2.7795,2.7795,2.7795,2.7795,2.7795,2.7795,2.7636,2.6946,2.6815,2.6644,2.616,2.6054,2.6054,2.6054,2.6054,2.6054,2.6054,2.6054,2.6054,2.6054,2.6054,2.6054,2.6054,2.6054,2.6054,2.6054,2.5962,2.5922,2.5922,2.5843,2.5474,2.4699,2.4672,2.4604,2.4314,2.4512,2.4696,2.4881,2.5368,2.5645,2.5738,2.5949,2.6054,4.3695,4.1451,3.9531,4.1362,3.59,3.1465,3.6964,3.2912,2.8556,3.0315,4.127,5.1767,5.5825,5.5782,5.4394,5.2074,4.8383,4.5293,4.3798,4.4071,4.5152,4.685,4.748,4.7817,4.7817,4.7817,4.6184,4.2353,4.2062,4.0367,3.6469,3.6249,3.4409,3.0355,3.0207,2.8287,2.4376,2.4301,2.4301,2.4301,2.4301,2.4617,2.5288,2.5553,2.5764,2.6054,2.6054,2.6054,2.6054,2.6054,2.6054,2.6054,2.6054,2.6054,2.6054,2.6054,2.6054,2.6054,2.6054,2.6054,2.6054,2.6054,2.6054,2.6107,2.6315,2.6605,2.6881,2.7267,2.7571,2.7795,2.7795,2.7795,2.7795,2.7795,2.7795,2.7636,2.6946,2.6815,2.6644,2.616,2.6054,2.6054,2.6054,2.6054,2.6054,2.6054,2.6054,2.6054,2.6054,2.6054,2.6054,2.6054,2.6054,2.6054,2.6054,2.5777,2.5685,2.5685,2.5434,2.5065,2.4685,2.4672,2.4604,2.4314,2.4301,2.4591,2.5275,2.5275,2.5566,2.6041,2.6054,2.6054,4.0281,4.0191,3.9955,3.9306,3.558,3.2881,3.6047,3.2323,2.8537,2.9395,3.6419,4.5132,5.4013,5.3614,5.2684,5.47,4.9886,4.5981,4.6187,4.4812,4.346,4.2535,4.2897,4.2344,4.0032,3.9835,3.9346,3.8082,3.8008,3.7423,3.6249,3.6175,3.4335,3.0281,3.0132,2.8212,2.4376,2.4301,2.4301,2.4301,2.4512,2.4815,2.5288,2.5553,2.5764,2.6054,2.6054,2.6054,2.6054,2.6054,2.6054,2.6054,2.6054,2.6054,2.6054,2.6054,2.6054,2.6054,2.6054,2.6054,2.6054,2.6054,2.6054,2.6107,2.6329,2.6605,2.6881,2.7267,2.7571,2.7795,2.7795,2.7795,2.7795,2.7795,2.7795,2.7636,2.6946,2.6815,2.6644,2.616,2.6054,2.6054,2.6054,2.6054,2.6054,2.6054,2.6054,2.6054,2.6054,2.6054,2.6054,2.6054,2.6054,2.5962,2.5764,2.5659,2.5606,2.5407,2.4931,2.4538,2.4446,2.4446,2.4393,2.4301,2.4498,2.4802,2.5275,2.546,2.5751,2.6054,2.6054,2.6054,3.9902,4.033,4.0434,4.0204,3.8186,3.6218,3.6343,3.3624,3.1376,3.2606,3.6068,4.2041,5.237,5.4203,5.4582,5.5829,5.2312,4.8864,4.7376,4.589,4.3746,4.0372,4.0432,3.9642,3.6483,3.6175,3.5513,3.3966,3.3892,3.3228,3.1748,3.1691,3.0504,2.7988,2.7914,2.6733,2.4301,2.4301,2.4301,2.4301,2.4722,2.5013,2.5288,2.5672,2.587,2.6054,2.6054,2.6054,2.6054,2.6054,2.6054,2.6054,2.6054,2.6054,2.6054,2.6054,2.6054,2.6054,2.6054,2.6054,2.6067,2.6173,2.6212,2.6292,2.67,2.6938,2.7135,2.7439,2.765,2.7795,2.7795,2.7795,2.7795,2.7795,2.7716,2.7491,2.692,2.6736,2.6526,2.6146,2.6054,2.6054,2.6054,2.6054,2.6054,2.6054,2.6054,2.6054,2.6054,2.6054,2.6054,2.6054,2.6054,2.5936,2.5712,2.5408,2.521,2.5039,2.4564,2.4301,2.4301,2.4301,2.4301,2.4301,2.4485,2.4775,2.5275,2.5447,2.5738,2.6054,2.6054,2.6054,4.161,4.1356,4.0954,4.3155,4.2679,4.0961,3.8056,3.6558,3.6417,3.8612,3.9469,4.2394,5.0821,5.6448,5.8852,5.6065,5.5372,5.3398,4.8167,4.7489,4.549,4.0094,3.9722,3.8695,3.5544,3.5273,3.3745,2.9984,2.9686,2.8138,2.4526,2.4301,2.4301,2.4301,2.4301,2.4301,2.4301,2.4301,2.4314,2.434,2.4997,2.5288,2.5315,2.579,2.6054,2.6054,2.6054,2.6054,2.6054,2.6054,2.6054,2.6054,2.6054,2.6054,2.6054,2.6054,2.6054,2.6054,2.6054,2.6054,2.6094,2.6397,2.6407,2.6513,2.7175,2.7444,2.7497,2.7716,2.7795,2.7795,2.7795,2.7795,2.7795,2.7795,2.7571,2.7267,2.6881,2.6605,2.6329,2.6107,2.6054,2.6054,2.6054,2.6054,2.6054,2.6054,2.6054,2.6054,2.6054,2.6054,2.6054,2.6054,2.6054,2.5936,2.5712,2.5092,2.4685,2.4633,2.4459,2.4301,2.4301,2.4301,2.4301,2.4301,2.4301,2.4591,2.5235,2.5262,2.5553,2.6015,2.6041,2.6054,3.9409,4.0765,4.1933,4.1504,4.3065,4.4508,4.3763,4.173,4.0137,4.0729,4.3065,4.5942,4.8726,5.3571,5.7527,5.8721,5.685,5.5186,5.5123,5.1114,4.6002,4.018,3.7658,3.3879,2.7402,2.6975,2.6673,2.5699,2.5625,2.5263,2.4376,2.4301,2.4301,2.4301,2.4301,2.4301,2.4301,2.4301,2.4419,2.4643,2.5013,2.5381,2.5593,2.5883,2.6054,2.6054,2.6054,2.6054,2.6054,2.6054,2.6054,2.6054,2.6054,2.6054,2.6054,2.6054,2.6054,2.6054,2.6054,2.6054,2.6094,2.6397,2.6407,2.6513,2.7175,2.7444,2.7497,2.7716,2.7795,2.7795,2.7795,2.7795,2.7795,2.7795,2.7571,2.7267,2.6881,2.6605,2.6329,2.6107,2.6054,2.6054,2.6054,2.6054,2.6054,2.6054,2.6054,2.6054,2.6054,2.6054,2.6054,2.6054,2.6054,2.5936,2.5712,2.5289,2.4894,2.4432,2.434,2.4301,2.4301,2.4301,2.4301,2.4301,2.4301,2.4485,2.4854,2.5078,2.5447,2.5791,2.5949,2.6054,4.0168,4.1762,4.2837,4.1755,4.3158,4.4981,4.5786,4.4737,4.3836,4.462,4.6352,4.8393,5.0418,5.2815,5.5468,5.8391,5.7767,5.6763,5.6603,5.2411,4.7434,4.225,3.7024,3.2122,2.7659,2.535,2.4169,2.4287,2.4301,2.4301,2.4301,2.4301,2.4301,2.4301,2.4301,2.4301,2.4301,2.4301,2.4446,2.4672,2.5052,2.5421,2.5698,2.5909,2.6054,2.6054,2.6054,2.6054,2.6054,2.6054,2.6054,2.6054,2.6054,2.6054,2.6054,2.6054,2.6054,2.6054,2.6054,2.6054,2.612,2.646,2.6605,2.671,2.7373,2.7557,2.7597,2.7755,2.7795,2.7795,2.7795,2.7795,2.7768,2.7623,2.736,2.7069,2.6697,2.6407,2.6239,2.6081,2.6054,2.6054,2.6054,2.6054,2.6054,2.6054,2.6054,2.6054,2.6054,2.6054,2.6054,2.6054,2.5922,2.5777,2.5698,2.5224,2.4854,2.4525,2.438,2.4301,2.4301,2.4301,2.4301,2.4301,2.4301,2.4446,2.4672,2.5052,2.5407,2.5685,2.5909,2.6054,4.161,4.2939,4.3581,4.3053,4.3221,4.3943,4.5486,4.5823,4.6236,4.7669,4.845,4.9668,5.2518,5.2734,5.3494,5.647,5.7876,5.7992,5.6568,5.3171,4.9327,4.5246,3.7517,3.2052,3.0676,2.6472,2.3945,2.4221,2.4235,2.4261,2.4301,2.4301,2.4301,2.4301,2.4301,2.4301,2.4301,2.434,2.4525,2.4815,2.5118,2.5487,2.5685,2.5936,2.6054,2.6054,2.6054,2.6054,2.6054,2.6054,2.6054,2.6054,2.6054,2.6054,2.6054,2.6054,2.6054,2.6054,2.6054,2.6054,2.6133,2.6591,2.6789,2.692,2.7557,2.7755,2.7795,2.7795,2.7795,2.7795,2.7795,2.7795,2.7729,2.7425,2.7122,2.6749,2.6473,2.6265,2.6054,2.6054,2.6054,2.6054,2.6054,2.6054,2.6054,2.6054,2.6054,2.6054,2.6054,2.6054,2.6054,2.6054,2.5777,2.5672,2.5632,2.5052,2.4672,2.4672,2.4459,2.4301,2.4301,2.4301,2.4301,2.4301,2.4301,2.4419,2.4607,2.5026,2.5394,2.5632,2.5896,2.6054,4.051,4.2068,4.3847,4.4416,4.3584,4.2841,4.3769,4.3946,4.4017,4.4264,4.6715,4.8946,4.944,5.114,5.2924,5.419,5.628,5.8584,6.111,5.6017,5.0991,4.8085,3.9466,3.2247,2.8481,2.5328,2.3714,2.3931,2.3958,2.405,2.4287,2.4301,2.4301,2.4301,2.4301,2.4301,2.4301,2.4475,2.4828,2.5209,2.5487,2.5698,2.5988,2.6028,2.6054,2.6054,2.6054,2.6054,2.6054,2.6054,2.6054,2.6054,2.6054,2.6054,2.6054,2.6054,2.6054,2.6054,2.6054,2.6054,2.6107,2.6368,2.6631,2.6881,2.732,2.7597,2.7795,2.7795,2.7795,2.7795,2.7795,2.7795,2.7729,2.7425,2.7122,2.6749,2.6473,2.6265,2.6054,2.6054,2.6054,2.6054,2.6054,2.6054,2.6054,2.6054,2.6054,2.6054,2.6054,2.6054,2.6054,2.6054,2.5777,2.5593,2.5354,2.4947,2.4672,2.4672,2.4459,2.4301,2.4301,2.4301,2.4301,2.4301,2.4301,2.4327,2.4366,2.4997,2.5288,2.5354,2.5804,2.6054,4.1498,4.2904,4.4201,4.3053,4.2478,4.2149,4.2074,4.2326,4.3155,4.5127,4.6806,4.8533,5.0445,5.1367,5.2431,5.4228,5.5444,5.7192,6.0118,5.5204,5.1255,5.0952,4.0242,3.2524,3.1577,2.6451,2.3325,2.3701,2.38,2.3945,2.4076,2.4221,2.4301,2.4301,2.4301,2.4235,2.4076,2.4221,2.4512,2.496,2.5328,2.5606,2.5817,2.5975,2.6054,2.6054,2.6054,2.6054,2.6054,2.6054,2.6054,2.6054,2.6054,2.6054,2.6054,2.6054,2.6054,2.6054,2.6054,2.6054,2.6094,2.6397,2.6499,2.6683,2.7215,2.7452,2.7584,2.7755,2.7795,2.7795,2.7795,2.7676,2.7478,2.7175,2.6802,2.6526,2.6318,2.6146,2.6054,2.6054,2.6054,2.6054,2.6054,2.6054,2.6054,2.6054,2.6054,2.6054,2.6054,2.5909,2.5804,2.5804,2.5408,2.5158,2.5275,2.4775,2.4512,2.4512,2.438,2.4301,2.4301,2.4301,2.4301,2.4301,2.4301,2.4301,2.4301,2.4984,2.5275,2.5288,2.5777,2.6054,4.4424,0.0,4.5973,4.3502,4.27,4.2181,0.0,4.1085,4.2143,4.4953,4.5991,4.7378,5.0569,5.0692,5.1199,5.3961,5.4746,5.5809,5.8087,5.5317,5.3059,5.2988,4.0635,3.2678,3.4145,2.7313,2.3022,2.3397,2.3549,2.3707,2.3786,2.3984,2.4103,2.4103,2.4103,2.4037,2.3892,2.3958,2.4248,2.4672,2.5052,2.5381,2.5593,2.5751,2.5843,2.5856,2.5922,2.5909,2.5856,2.5988,2.6001,2.5949,2.6028,2.6054,2.6054,2.6054,2.6054,2.6054,2.6054,2.6054,2.6081,2.6318,2.6355,2.6499,2.7096,2.7294,2.7497,2.7716,2.7795,2.7781,2.7716,2.7518,2.7254,2.6815,2.6565,2.6329,2.612,2.6054,2.6054,2.6054,2.6054,2.6054,2.6054,2.6054,2.6054,2.6054,2.6054,2.6028,2.5949,2.5751,2.5659,2.5593,2.5052,2.4841,2.5143,2.4604,2.4301,2.4301,2.4301,2.4301,2.4301,2.4301,2.4301,2.4301,2.4301,2.4301,2.4301,2.4984,2.5275,2.5288,2.5777,2.6054,0.0,5.0808,5.0499,4.8814,4.6191,4.3408,4.1151,4.0303,0.0,4.0352,4.2288,4.4682,4.6821,4.7227,4.8402,5.2059,5.3987,5.5582,5.7382,5.9306,5.8563,5.3304,4.0799,3.2658,3.2775,2.6616,2.2661,2.2937,2.2977,2.318,2.3529,2.3569,2.3582,2.3582,2.3582,2.3701,2.3892,2.4142,2.4432,2.4672,2.5052,2.5288,2.5302,2.5328,2.5328,2.5354,2.5606,2.5566,2.5381,2.583,2.5883,2.5738,2.5936,2.6054,2.6054,2.6054,2.6054,2.6054,2.6054,2.6054,2.6054,2.6067,2.6265,2.646,2.6762,2.7135,2.7497,2.7716,2.7795,2.7729,2.7537,2.7457,2.7215,2.6578,2.6421,2.6329,2.612,2.6054,2.6054,2.6054,2.6054,2.6054,2.6054,2.6054,2.6054,2.6054,2.6054,2.5949,2.5751,2.5698,2.5579,2.5328,2.4933,2.4672,2.4699,2.4485,2.4301,2.4301,2.4301,2.4301,2.4301,2.4301,2.4301,2.4301,2.4301,2.4301,2.4301,2.4984,2.5275,2.5288,2.5777,2.6054,5.1709,5.1384,5.0073,4.7248,4.4449,4.1583,3.8832,3.8393,3.8914,4.0309,4.137,4.2766,4.5288,4.684,4.8517,5.101,5.3024,5.5444,5.8674,5.991,5.8399,5.271,4.0305,3.2299,3.2619,2.6553,2.2556,2.2661,2.2832,2.2977,2.3153,2.3423,2.3357,2.2929,2.2916,2.314,2.3688,2.3794,2.3997,2.4472,2.4775,2.492,2.492,2.5183,2.5275,2.5275,2.5381,2.5368,0.0,2.55,2.5632,2.5698,2.5804,2.5883,2.6054,2.6054,2.6054,2.6081,2.6265,2.625,2.6357,2.6447,2.6578,2.6683,2.6789,2.7109,2.7497,2.7716,2.7663,2.7491,2.7471,2.7083,2.6766,2.646,2.6357,2.6186,2.6067,2.6054,2.6054,2.6054,2.6054,2.6054,2.6054,2.5896,2.5857,2.5857,2.5619,2.5553,2.5447,2.5184,2.5026,2.492,2.4643,2.4472,2.4472,2.4366,2.4301,2.4301,2.4301,2.4301,2.4301,2.4301,2.4301,2.4301,2.4301,2.4393,2.4501,2.4802,2.5105,2.554,2.5856,2.6054,5.4253,5.2997,5.0723,4.7616,4.4589,4.1503,3.8273,3.776,3.8356,3.9685,3.9984,4.0718,4.3234,4.538,4.7625,5.033,5.2685,5.5482,5.9112,5.9266,5.7136,5.2166,4.3075,3.6042,3.2953,2.6553,2.2517,2.2517,2.2687,2.2793,2.2793,2.3061,2.2995,2.26,2.2595,2.2956,2.3516,2.3609,2.39,2.4301,2.4512,2.4604,2.4541,2.4815,2.4984,2.4997,2.509,2.4999,2.4997,2.5196,2.5328,2.5355,2.5606,2.579,2.6054,2.616,2.6239,2.6344,2.6473,2.6539,2.6565,2.6762,2.6815,2.6815,2.6815,2.7175,2.7531,2.7742,2.7584,2.7418,2.7241,2.6859,2.6381,2.6371,2.6199,2.6054,2.6054,2.6054,2.6054,2.6054,2.6054,2.6015,2.5922,2.5738,2.5659,2.5566,2.5394,2.5235,2.5065,2.4868,2.4633,2.4541,2.4419,2.4301,2.4301,2.4301,2.4301,2.4301,2.4301,2.4301,2.4301,2.4301,2.4301,2.4301,2.4301,2.4446,2.4672,2.4672,2.5039,2.5685,2.5817,2.5962,5.8011,5.6334,5.342,5.1113,4.7645,4.3894,4.0098,3.8845,3.8332,3.7817,3.7713,3.8263,4.0223,4.2335,4.5276,4.996,5.3126,5.5885,5.8353,5.7491,5.5219,5.1717,4.9774,4.45,3.3707,2.6553,2.2586,2.2517,2.2517,2.2517,2.2517,2.2656,2.2656,2.2656,2.2921,2.3212,2.3589,2.382,2.4098,2.4301,2.4301,2.4301,2.4301,2.4301,2.4301,2.4314,2.4541,2.4501,2.434,2.5024,2.5013,2.4725,2.5382,2.5777,2.6081,2.6302,2.6578,2.6815,2.6828,2.6828,2.6828,2.6828,2.6828,2.6828,2.6828,2.732,2.7795,2.7795,2.7584,2.728,2.6894,2.6618,2.6329,2.612,2.6054,2.6054,2.6054,2.6054,2.6054,2.6054,2.6041,2.5949,2.5738,2.5685,2.5579,2.5315,2.5262,2.5078,2.4699,2.4659,2.4554,2.4327,2.4301,2.4301,2.4301,2.4301,2.4301,2.4301,2.4301,2.4301,2.4301,2.4301,2.4301,2.4301,2.4301,2.4446,2.4672,2.4672,2.5039,2.5685,2.5685,2.5764,5.5671,5.357,5.0898,4.7985,4.4715,4.1638,3.973,3.9156,3.8741,3.7895,3.7713,3.786,3.8433,4.1932,4.5546,4.8129,5.2133,5.6075,5.9188,5.7324,5.4782,5.2515,4.794,4.1691,3.344,2.8849,2.5316,2.2726,2.2517,2.2517,2.2517,2.7464,3.0189,3.0189,3.07,2.9821,2.7344,2.7828,2.6783,2.4301,2.4301,2.4301,2.4301,2.4301,2.4301,2.4301,2.4393,2.438,2.4314,2.4498,2.463,2.4712,2.5249,2.5566,2.579,2.6305,2.646,2.6591,2.7083,2.7228,2.7254,2.7465,2.7531,2.7531,2.7531,2.765,2.7755,2.7544,2.751,2.7241,2.674,2.6397,2.616,2.6067,2.6054,2.6054,2.6054,2.6054,2.6054,2.6054,2.5883,2.5791,2.5698,2.5263,2.4973,2.4894,2.4696,2.4538,2.4446,2.4432,2.4406,2.4314,2.4301,2.4301,2.4301,2.4301,2.4301,2.4301,2.4301,2.4301,2.4301,2.4301,2.4301,2.4301,2.4301,2.4446,2.4672,2.4672,2.5039,2.5685,2.5685,2.5764,5.5176,5.2525,4.98,4.6638,4.3427,4.0721,3.9545,3.926,3.8949,3.7947,3.7713,3.7765,3.7999,4.1154,4.434,4.6197,4.9728,5.3165,5.586,5.3691,5.146,5.0432,4.4926,3.8964,3.324,2.9805,2.648,2.2796,2.3885,2.5331,2.6841,3.1014,3.3459,3.3459,3.4186,3.2788,2.8979,2.9615,2.8013,2.4301,2.4301,2.4301,2.4301,2.4301,2.4301,2.4301,2.4301,2.4301,2.4301,2.4301,2.4406,2.4604,2.5103,2.5513,2.5856,2.6355,2.6723,2.7069,2.7412,2.7531,2.7557,2.7742,2.7716,2.765,2.7755,2.7716,2.7584,2.7484,2.7267,2.7069,2.6608,2.6357,2.6199,2.6081,2.6054,2.6054,2.6054,2.6054,2.6054,2.6054,2.5804,2.5645,2.554,2.5052,2.4633,2.4591,2.4419,2.4301,2.4301,2.4301,2.4301,2.4301,2.4301,2.4301,2.4301,2.4301,2.4301,2.4301,2.4301,2.4301,2.4301,2.4301,2.4301,2.4301,2.4301,2.4446,2.4672,2.4672,2.4986,2.5526,2.5632,2.5698,5.5507,5.2685,4.974,4.6277,4.3183,4.0721,3.9545,3.9312,3.9085,3.7947,3.7739,3.7921,3.8332,4.0207,4.2432,4.4487,4.6663,4.8797,5.0729,4.8504,4.6783,4.7149,4.181,3.6831,3.3587,3.0368,2.7103,2.3829,2.6618,3.0103,3.3732,3.4277,3.4413,3.4413,3.533,3.3954,3.0053,3.0432,2.8734,2.4813,2.4451,2.4301,2.4301,2.4301,2.4301,2.4301,2.4301,2.4301,2.4301,2.4301,2.4301,2.4353,2.5037,2.5593,2.6041,2.6565,2.713,2.7676,2.7702,2.7716,2.7716,2.7742,2.7557,2.7444,2.7636,2.7531,2.7307,2.7365,2.7083,2.6723,2.6447,2.6368,2.6302,2.612,2.6054,2.6054,2.6054,2.6054,2.6041,2.6015,2.5764,2.5553,2.5275,2.4907,2.4541,2.434,2.4301,2.4301,2.4301,2.4301,2.4301,2.4301,2.4301,2.4301,2.4301,2.4301,2.4301,2.4301,2.4301,2.4301,2.4301,2.4301,2.4301,2.4301,2.4301,2.4432,2.4633,2.4633,2.4854,2.5235,2.5487,2.5619,5.306,5.1041,4.9206,4.3488,4.1498,4.0721,3.9545,3.9682,3.9612,3.8025,3.8051,3.8202,3.7947,4.0432,4.2892,4.408,4.6929,5.0151,5.3691,4.98,4.773,5.0711,4.3431,3.7984,3.7763,3.4421,3.1955,3.1151,3.1818,3.3868,3.7693,4.0614,4.2114,4.2114,4.3267,4.1835,3.7862,3.5887,3.2858,2.8883,2.5774,2.4301,2.4301,2.4301,2.4301,2.4301,2.4301,2.4301,2.4301,2.4301,2.4301,2.4353,2.5037,2.5354,2.5553,2.6278,2.6578,2.6806,2.6933,2.7012,2.7051,2.7373,2.7241,2.6933,2.6986,2.6973,2.6867,2.674,2.6634,2.6434,2.6226,2.6146,2.6133,2.6067,2.6054,2.6054,2.6054,2.6054,2.5975,2.5751,2.5553,2.5262,2.4894,2.4591,2.438,2.4314,2.4301,2.4301,2.4301,2.4301,2.4301,2.4301,2.4301,2.4301,2.4301,2.4301,2.4301,2.4301,2.4301,2.4301,2.4301,2.4301,2.4301,2.4301,2.4301,2.4327,2.4393,2.4393,2.4551,2.4841,2.483,2.5052,5.2275,5.0569,4.9028,4.2634,4.1033,4.0799,3.9942,3.9968,3.9924,3.8695,3.8695,3.8799,3.8514,4.0156,4.1724,4.2173,4.3947,4.6103,4.8532,4.6503,4.6227,5.0142,4.3474,3.9348,4.1298,3.6613,3.3459,3.3459,3.5094,3.776,4.1511,4.3476,4.4631,4.4876,4.5802,4.4471,4.0707,3.956,3.5955,3.0132,2.8063,2.6074,2.4301,2.4301,2.4301,2.4301,2.4301,2.4301,2.4301,2.4301,2.4301,2.434,2.4802,2.5143,2.5341,2.5856,2.616,2.6236,2.6526,2.6618,2.6631,2.6727,2.6621,2.646,2.6736,2.6723,2.6591,2.6447,2.6302,2.6239,2.6094,2.6054,2.6054,2.6054,2.6054,2.6054,2.6054,2.6054,2.5962,2.5738,2.546,2.5169,2.4725,2.4498,2.4301,2.4301,2.4301,2.4301,2.4301,2.4301,2.4301,2.4301,2.4301,2.4301,2.4301,2.4301,2.4301,2.4301,2.4301,2.4301,2.4301,2.4301,2.4301,2.4301,2.4301,2.4301,2.4301,2.4301,2.438,2.4538,2.4607,2.4828,5.2852,5.0982,4.9147,4.3305,4.1463,4.0877,4.0366,4.034,4.015,3.9415,3.926,3.926,3.926,3.9708,4.0158,4.0366,4.0799,4.1618,4.2758,4.3467,4.5254,4.916,4.4993,4.2658,4.4836,3.9735,3.5956,3.5366,3.8234,4.1334,4.4457,4.4657,4.4876,4.5473,4.6036,4.497,4.2257,4.21,3.8667,3.2192,3.0801,2.8436,2.5263,2.4601,2.4301,2.4301,2.4301,2.4676,2.5263,2.4601,2.4676,2.5291,2.4845,2.4894,2.5222,2.5513,2.5764,2.5936,2.6186,2.6265,2.632,2.6913,2.7552,2.8052,2.7814,2.765,2.7295,2.6574,2.6239,2.6054,2.6054,2.6054,2.6054,2.6054,2.6605,2.7154,2.7154,2.7717,2.7924,2.6844,2.5891,2.5156,2.4646,2.4459,2.4301,2.4301,2.4301,2.4301,2.4301,2.4301,2.4301,2.4301,2.4301,2.4301,2.4301,2.4301,2.4301,2.4301,2.4301,2.4301,2.4301,2.4301,2.4301,2.4301,2.4301,2.4301,2.4301,2.4301,2.4301,2.4314,2.4475,2.4593,5.5158,5.2627,4.9681,4.6096,4.3122,4.0877,4.0366,4.0565,4.0617,3.9493,3.926,3.926,3.926,3.9337,3.9701,4.0747,4.1458,4.3008,4.6255,4.745,4.9194,5.2427,5.2767,5.1688,4.9115,4.7973,4.6225,4.3276,4.3476,4.42,4.512,4.5214,4.5499,4.6071,4.6244,4.6251,4.6256,4.342,4.1459,4.0367,3.3449,2.9835,2.924,2.5849,2.4301,2.4301,2.4301,2.6224,2.9107,2.5713,2.6299,2.9064,2.5897,2.4699,2.4841,2.5222,2.5354,2.5394,2.5434,2.5447,2.6023,2.9888,3.3467,3.571,3.2535,3.1515,3.0699,2.7142,2.6081,2.6054,2.6054,2.6054,2.6054,2.6054,2.8812,3.142,3.142,3.4347,3.5792,3.1505,2.775,2.509,2.4459,2.4327,2.4301,2.4301,2.4301,2.4301,2.4301,2.4301,2.4301,2.4301,2.4301,2.4301,2.4301,2.4301,2.4301,2.4301,2.4301,2.4301,2.4301,2.4301,2.4301,2.4301,2.4301,2.4301,2.4301,2.4301,2.4301,2.4301,2.434,2.4353,5.4352,5.2198,4.98,4.6638,4.3427,4.0981,4.0721,4.0851,4.0877,4.0323,4.0219,4.0038,3.9389,3.9804,4.0167,4.0038,4.0825,4.276,4.6481,4.736,4.9774,5.5712,5.5046,5.436,5.5256,5.1848,4.8948,4.7466,4.5604,4.4761,4.525,4.5276,4.5603,4.6244,4.6582,4.6798,4.7058,4.5837,4.4187,4.1917,3.8447,3.566,3.3449,3.1748,2.9702,2.7556,2.7556,2.7257,2.6748,2.4963,2.5338,2.6673,2.5112,2.4498,2.4512,2.4643,2.4696,2.4722,2.4881,2.6272,2.8354,3.0514,3.4128,3.6829,3.3048,3.2037,3.142,2.7235,2.6054,2.6605,2.8892,2.9517,3.0157,3.2535,3.4506,3.5853,3.5853,3.7355,3.797,3.5553,3.3178,3.0755,2.8005,2.7556,2.6808,2.4601,2.4301,2.5924,3.0355,2.8958,2.8436,3.0727,2.8958,2.7556,2.7556,2.5563,2.4301,2.4301,2.4301,2.4301,2.4301,2.4301,2.4301,2.4301,2.4301,2.4301,2.4301,2.4301,2.4301,2.4301,2.4301,2.4301,5.3569,5.1442,4.9162,4.7176,4.3835,4.1033,4.1033,4.1033,4.1033,4.1033,4.0929,4.0591,3.983,4.0331,4.0643,4.0072,4.0825,4.2529,4.5444,4.7518,5.0991,5.6976,5.6924,5.7315,5.9619,5.4457,5.1029,5.1179,4.7049,4.4839,4.5525,4.5577,4.5889,4.6616,4.7032,4.7265,4.7265,4.7609,4.6328,4.3464,4.2498,4.044,3.7642,3.6616,3.4556,3.1674,3.1674,2.9984,2.7257,2.6224,2.5774,2.5699,2.4676,2.4301,2.4301,2.4301,2.4301,2.4327,2.4475,2.769,3.1743,3.2139,3.5988,3.9533,3.4659,3.3482,3.2837,2.7556,2.6054,2.6993,3.118,3.228,3.3394,3.7671,3.9483,4.0269,4.0269,4.1048,4.1249,3.9789,3.8782,3.6801,3.246,3.1669,3.0652,2.778,2.6449,2.8287,3.5293,3.3523,3.2784,3.5808,3.3449,3.1674,3.1674,2.8063,2.5774,2.5774,2.4813,2.4751,2.5699,2.4813,2.4751,2.5774,2.4813,2.4301,2.4301,2.4301,2.4301,2.4301,2.4301,2.4301,5.4326,5.1041,4.7342,4.8644,4.4972,4.1033,4.1033,4.1033,4.1033,4.1033,4.0617,4.0444,4.0851,4.0565,4.0626,4.1666,4.2317,4.2915,4.3591,4.9888,5.4553,5.4969,6.0565,6.3184,6.0127,5.6659,5.4841,5.5611,4.8698,4.5021,4.6166,4.6244,4.6668,4.7687,4.7765,4.7765,4.7765,4.7791,4.7745,4.7458,4.3753,4.1917,4.1531,3.7862,3.6028,3.5881,3.5881,3.5734,3.5219,3.1377,2.9835,2.9463,2.5774,2.4301,2.4301,2.4301,2.4301,2.4301,2.4314,2.9346,3.594,3.6444,4.2243,4.7541,3.9891,3.7952,3.6644,2.8345,2.6054,2.6993,3.118,3.228,3.3394,3.7671,4.168,4.4592,4.4592,4.7434,4.8692,4.4633,4.303,4.1144,3.6955,3.6006,3.5808,3.5587,3.2266,3.1377,3.5587,3.5955,3.5955,3.6175,3.5955,3.5881,3.5881,3.2118,2.9835,2.9835,2.6374,2.5999,2.9686,2.6299,2.6074,2.9761,2.6149,2.4301,2.4301,2.4301,2.4301,2.4301,2.4301,2.4301,5.2848,5.0843,4.8252,4.844,4.5479,4.2285,4.1218,4.1033,4.1033,4.1033,4.0877,4.0669,4.0513,4.0617,4.0747,4.086,4.164,4.3075,4.5256,5.0114,5.4404,5.7055,6.184,6.4656,6.4024,6.1361,5.8637,5.6196,5.1386,4.7736,4.5766,4.5993,4.6634,4.7317,4.7635,4.7817,4.7817,4.7817,4.7817,4.7817,4.64,4.5752,4.568,4.4259,4.228,3.9929,3.9929,3.8447,3.5881,3.1822,3.1674,3.3375,2.6823,2.5849,2.778,2.5263,2.4301,2.4301,2.4301,2.9479,3.6195,3.6352,4.2141,4.8103,4.2985,3.9933,3.7073,3.1594,2.8104,2.6993,3.118,3.228,3.4012,4.1033,4.3812,4.5681,4.844,5.0112,5.0391,4.804,4.7342,4.6402,4.4157,4.1667,3.9032,3.6542,3.7056,3.9178,4.315,4.1459,4.0877,4.3391,4.1386,3.9929,3.9929,3.3892,3.0132,3.0132,2.6449,2.4888,2.6299,2.5038,2.4963,2.6374,2.5038,2.4301,2.4301,2.4301,2.4301,2.4301,2.4301,2.4301,5.056,4.9482,4.7881,4.6867,4.4785,4.2575,4.083,4.0617,4.0799,4.0981,4.1033,4.0929,4.0539,4.0773,4.0903,4.0539,4.1328,4.2758,4.502,4.8814,5.2363,5.5061,6.0263,6.3776,6.4223,6.0807,5.7435,5.4774,5.1143,4.794,4.5412,4.5707,4.6279,4.7032,4.735,4.7635,4.7817,4.7817,4.7817,4.7817,4.7817,4.7817,4.7817,4.7817,4.64,4.397,4.397,4.1772,3.7935,3.52,3.4924,3.566,3.0355,2.9032,2.9835,2.7182,2.7107,2.8078,2.6748,3.1469,3.8082,3.8082,4.2991,4.8066,4.4198,4.1559,3.8861,3.3516,3.0145,2.8731,3.1563,3.228,3.4091,4.1132,4.2775,4.359,4.6345,4.7793,4.8338,4.7416,4.8225,4.8699,4.7947,4.568,4.3078,4.044,4.228,4.4428,4.568,4.4717,4.4934,4.753,4.5536,4.397,4.397,3.7935,3.4114,3.4114,2.9165,2.6883,2.8212,2.5713,2.4888,2.6224,2.4963,2.4301,2.4301,2.4301,2.4301,2.4301,2.4301,2.4301,4.7685,4.693,4.6036,4.422,4.3061,4.1814,3.9787,3.9768,4.0366,4.0877,4.1007,4.1033,4.1033,4.1033,4.1033,4.1033,4.1588,4.216,4.2707,4.6224,4.8741,4.8741,5.5899,6.0592,5.9947,5.4577,5.1261,5.1644,4.7796,4.5412,4.525,4.5276,4.5794,4.6954,4.7032,4.7317,4.7791,4.7817,4.7817,4.7817,4.7817,4.7817,4.7817,4.7817,4.7817,4.7817,4.7817,4.568,4.2135,4.2062,3.9857,3.6469,3.6249,3.3818,3.0504,3.0504,3.2858,3.5587,3.1674,3.542,4.199,4.199,4.5057,4.7989,4.3874,4.3278,4.2344,3.3988,3.1922,3.2184,3.2121,3.2041,3.3155,3.7434,3.8459,3.8421,3.8301,4.0872,4.306,4.2686,4.5252,4.7458,4.7458,4.7458,4.7458,4.7458,4.7458,4.6112,4.228,4.5223,4.7673,4.7817,4.7817,4.7745,4.7673,4.4043,4.1845,4.1845,3.4482,3.197,3.5955,2.866,2.6299,3.0058,2.6299,2.4301,2.4301,2.4301,2.4301,2.4301,2.4301,2.4301,4.7147,4.6865,4.6063,4.5093,4.3381,4.1615,4.0261,3.9459,3.9111,3.9623,4.0461,4.1033,4.1033,4.1033,4.1033,4.1033,4.1588,4.2004,4.216,4.5584,4.8071,4.8071,5.2837,5.4858,5.1832,5.3557,5.3618,5.0652,4.9817,4.8016,4.4921,4.511,4.5431,4.5742,4.6616,4.7136,4.7291,4.7609,4.7817,4.7817,4.7817,4.7817,4.7817,4.7817,4.7817,4.7817,4.7817,4.7217,4.5968,4.315,4.3005,4.4043,3.8374,3.7203,3.874,3.874,3.7642,3.6028,3.4851,3.7789,4.199,4.199,4.4742,4.7984,4.7204,4.5048,4.1941,3.7388,3.3997,3.1101,2.8448,2.7783,2.8812,3.3076,3.4029,3.4867,3.7911,3.9174,3.9496,3.8968,3.9413,3.9805,3.9462,3.9324,3.9324,3.9324,3.9324,3.8959,3.7935,4.1168,4.4717,4.753,4.7817,4.6713,4.3826,4.0002,3.7789,3.7789,3.3006,3.197,3.5955,3.1246,2.9032,3.0132,2.6299,2.4301,2.4301,2.4301,2.4301,2.4301,2.4301,2.4301,4.5141,4.5293,4.4906,4.3778,4.2684,4.138,3.958,3.8771,3.8382,3.8269,3.9312,4.0271,4.0271,4.0721,4.0515,3.9133,3.9219,3.9052,3.792,3.9745,4.1669,4.3112,4.5215,4.6421,4.5983,4.8829,5.0437,4.9833,4.883,4.7789,4.673,4.555,4.5084,4.5276,4.5924,4.6564,4.7032,4.7298,4.7584,4.7817,4.7817,4.7817,4.7817,4.7817,4.7817,4.7817,4.7817,4.7817,4.7673,4.5367,4.5752,4.736,4.2788,4.1386,4.199,4.199,4.1554,4.0804,3.9178,4.1168,4.4428,4.4428,4.5968,4.7895,4.8278,4.6836,4.4287,4.077,3.706,3.3276,2.9342,2.7218,2.6685,2.9132,2.9678,3.032,3.2549,3.4246,3.5046,3.4402,3.5532,3.6544,3.6214,3.6175,3.4998,3.1691,3.1172,3.1748,3.3449,3.7056,4.1022,4.4934,4.6857,4.6929,4.4645,4.0804,3.9251,4.0949,3.5715,3.3671,3.6028,3.0727,2.7705,2.7705,2.7033,2.5924,2.4301,2.5924,2.5924,2.4301,2.4301,2.4301,4.203,4.2559,4.2782,4.1259,4.1138,4.0737,0.0,3.7678,3.7441,3.6642,3.7665,3.8625,3.8455,3.9428,3.9094,3.5871,3.5379,3.4556,3.2104,3.1779,3.2868,3.5863,3.5734,3.7269,4.2117,4.2974,4.487,4.8935,4.6905,4.6791,4.9811,4.7241,4.5738,4.5755,4.5834,4.6154,4.685,4.6928,4.7239,4.7739,4.7739,4.7765,4.7817,4.7817,4.7817,4.7817,4.7817,4.7817,4.7817,4.7817,4.7817,4.7817,4.7817,4.5606,4.2481,4.2481,4.4691,4.718,4.373,4.4836,4.7739,4.7791,4.7817,4.7817,4.7817,4.8252,4.7766,4.3556,4.0102,3.6809,3.2532,2.8757,2.6001,2.6001,2.6028,2.5909,2.5473,2.8061,3.0252,2.9704,3.2411,3.4851,3.4851,3.4851,3.271,2.6523,2.5638,2.6883,3.0355,3.4335,3.8155,4.1604,4.5439,4.7817,4.7817,4.4259,4.3319,4.6328,4.0002,3.6175,3.6175,2.8958,2.4963,2.4963,2.7914,2.7765,2.4301,2.7765,2.7705,2.4301,2.4751,2.495,0.0,0.0,0.0,0.0,0.0,0.0,0.0,3.5545,3.3949,3.4723,3.5035,3.4831,3.3678,3.4248,3.4194,3.1966,3.1758,3.1728,3.1177,3.1134,3.1323,3.2018,3.1937,3.4406,4.0761,4.4101,4.6238,4.7181,5.0008,5.2012,5.2647,5.2795,5.1614,4.8819,4.9237,4.8253,4.5681,4.6149,4.6642,4.7213,4.7213,4.7376,4.7817,4.7817,4.7817,4.7817,4.7817,4.7817,4.7817,4.7817,4.7817,4.7817,4.7817,4.6821,4.544,4.544,4.5884,4.652,4.6185,4.6551,4.7291,4.7661,4.7817,4.7817,4.7817,4.7895,4.7184,4.3463,3.9733,3.5951,3.2154,2.8497,2.5764,2.5764,2.587,2.6015,2.5909,2.6145,2.6388,2.6263,2.6428,2.6598,2.6598,2.6598,2.8212,3.3154,3.3818,3.4114,3.4924,3.8374,4.1168,4.1917,4.5439,4.7817,4.7817,4.4259,4.0949,3.8594,3.6983,3.6175,3.6175,3.1543,2.9032,2.9032,2.6673,2.5038,2.4301,2.5038,2.5038,2.4376,2.7556,2.8874,0.0,0.0,0.0,0.0,0.0,0.0,0.0,0.0,0.0,0.0,0.0,3.2334,3.1927,0.0,3.361,3.1886,3.0722,2.9635,2.8543,2.6902,2.7657,3.2443,3.3042,3.5788,4.279,4.5141,4.7746,5.1327,5.2502,5.3956,5.5999,5.5249,5.3976,5.2236,5.2508,5.1165,4.794,4.8271,4.778,4.6616,4.6616,4.6772,4.7058,4.7058,4.7058,4.7058,4.7058,4.7058,4.7058,4.7343,4.7402,4.7447,4.7162,4.6694,4.627,4.627,4.627,4.6322,4.6538,4.6616,4.672,4.7291,4.7402,4.7454,4.7739,4.7817,4.7437,4.5639,4.099,3.6134,3.4305,2.9688,2.5473,2.5473,2.5698,2.5751,2.5461,2.5395,2.5341,2.4905,2.6276,2.7449,2.7286,2.8883,3.1543,3.5587,3.6175,3.6175,3.6175,3.9565,4.1784,4.1139,4.4649,4.6256,4.4199,4.3814,4.2235,3.8888,3.8408,3.8209,3.8209,3.4369,3.1396,2.9591,2.9518,2.7721,2.3879,2.5915,2.5842,2.4013,2.9556,3.1013,0.0,0.0,0.0,0.0,0.0,0.0,0.0,0.0,0.0,0.0,0.0,0.0,0.0,0.0,0.0,3.1336,2.9923,2.8377,2.6618,2.3903,2.5454,3.4632,3.5696,3.8502,4.5833,4.7118,4.9926,5.5898,5.5108,5.5787,5.9028,5.7497,5.627,5.5572,5.5702,5.4358,5.1416,5.135,4.9932,4.712,4.712,0.0,4.627,4.627,4.627,4.627,4.627,4.627,4.6322,4.6694,4.6876,4.6824,4.6253,4.6045,4.6088,4.5984,4.5932,4.5958,4.6062,4.6045,4.6123,4.6694,4.6876,4.698,4.7421,4.7558,0.0,4.7661,4.2802,3.7601,3.7601,3.1994,2.6333,2.6333,2.5942,2.5631,2.5831,2.5689,2.5705,2.6613,2.8836,3.081,3.1382,3.5123,3.8082,3.7926,3.7988,3.8082,3.7926,4.076,4.2469,4.1509,4.4346,4.4927,4.1695,4.3654,4.4328,4.233,4.0739,3.956,3.8793,3.5763,3.2628,2.9589,3.2605,3.125,2.5256,2.8443,2.8015,2.4467,3.0036,3.1681,0.0,0.0,0.0,0.0,0.0,0.0,0.0,0.0,0.0,0.0,0.0,0.0,0.0,0.0,0.0,0.0,2.7147,2.8354,2.8151,2.7376,2.9491,3.6579,3.7437,4.0423,4.8085,5.1403,5.3753,5.5269,5.8392,6.046,6.0922,6.209,0.0,0.0,0.0,5.7707,5.436,5.436,5.2891,5.0075,5.0075,4.8732,4.627,4.627,4.627,4.627,4.627,4.627,4.627,4.6348,4.6374,4.6322,4.5655,4.5379,4.537,4.4917,4.4709,4.4787,4.5266,0.0,0.0,4.6123,4.6374,4.6374,4.6452,4.6746,4.7136,4.7136,4.433,4.133,4.133,3.5751,3.0072,3.0072,2.761,2.6223,2.9642,2.7474,2.7004,3.4393,3.2776,3.1474,3.5493,4.1174,4.4927,4.4353,4.4706,4.4927,4.4353,4.5147,4.5775,4.5577,4.5993,0.0,4.5646,4.4985,4.4897,4.5646,4.1307,3.71,3.3684,3.3067,3.2483,3.1562,3.1967,3.2021,3.1623,3.2105,3.052,2.7182,2.7612,3.0287,0.0,0.0,0.0,0.0,0.0,0.0,0.0,0.0,0.0,0.0,0.0,0.0,0.0,0.0,0.0,0.0,3.0413,3.1076,3.4278,3.5662,3.7663,4.1333,4.1778,4.4073,4.9952,5.1769,5.3851,5.6961,5.9285,6.0783,6.1181,6.2378,6.2427,6.1035,6.1306,5.9776,5.6327,5.6828,5.5404,5.2212,5.2805,5.134,4.8205,4.8205,4.7092,4.5256,4.5256,4.5256,4.5282,4.5551,4.5707,4.5577,0.0,0.0,0.0,0.0,4.3941,4.3967,4.4227,4.4264,4.4461,4.5396,4.5707,4.5759,4.6166,4.6452,4.6634,4.6634,4.3836,4.1048,4.1487,3.7469,3.2822,3.0836,2.937,2.8215,2.7336,2.7849,2.9254,3.2157,3.4908,0.0,3.9508,4.2073,4.4265,4.5622,4.6331,4.6486,4.5915,4.6045,4.601,4.5308,4.5256,4.5256,4.5256,4.4475,0.0,0.0,0.0,4.1098,3.9098,3.9008,0.0,0.0,0.0,3.2102,3.0203,2.8784,0.0,0.0,2.9071,3.0518,0.0,0.0,0.0,0.0,0.0,0.0,0.0,0.0,0.0,0.0,0.0,0.0,0.0,0.0,0.0,0.0,3.3405,3.4146,3.8424,4.0022,4.1612,4.4101,4.4807,4.6775,5.1034,5.1885,5.3801,5.7733,5.8619,5.9454,6.046,6.1448,6.2018,6.2246,6.2474,6.1329,5.8833,5.9407,5.801,5.4519,5.5169,5.366,5.0304,5.0304,4.8496,4.5321,4.5321,4.4796,4.4085,4.4435,4.4616,4.4487,4.324,4.298,4.3344,4.3344,4.3344,4.3344,4.3344,4.3344,4.35,4.4357,4.4616,4.4694,4.5136,4.5542,4.5776,4.5776,4.3889,4.1999,4.2448,3.9587,3.593,3.3486,3.2397,3.106,2.7987,2.9122,3.0933,3.1349,3.5887,3.9967,4.1207,4.1445,4.2424,4.5518,4.6331,4.6434,4.6019,4.5906,4.5516,4.4839,4.4605,4.4501,4.4501,4.3759,4.3785,4.4731,4.4149,4.3695,4.337,4.3058,4.1452,3.8385,3.6346,3.3708,0.0,0.0,0.0,0.0,0.0,0.0,0.0,0.0,0.0,0.0,0.0,0.0,0.0,0.0,0.0,0.0,0.0,0.0,0.0,0.0,0.0,0.0,0.0,0.0,3.8324,3.7063,3.7846,4.2964,4.4992,4.7414,5.099,5.2824,5.4467,5.6136,5.625,5.7062,5.8695,5.9644,6.0479,6.1277,6.2112,6.2529,6.2411,6.2411,6.0675,5.7208,5.7208,5.5483,5.2168,5.2168,5.0431,4.733,4.733,4.5652,4.2799,4.2863,4.2825,4.2825,4.2747,4.2811,4.2773,4.2773,4.2773,4.2773,4.2773,4.2773,4.2773,4.2799,4.2825,4.2825,4.2851,4.3669,4.4553,4.4553,4.5318,4.6062,4.6088,4.3093,4.0085,3.9967,3.7393,3.4986,3.4895,3.2388,3.144,3.5867,3.559,3.5765,3.9316,3.9936,4.1127,4.4757,4.5328,0.0,4.5302,4.485,4.4761,4.5198,4.4865,4.4501,4.4501,4.3487,4.3006,4.3538,4.2655,4.2265,4.2747,4.1708,4.1049,4.09,3.9677,3.7967,3.5722,0.0,0.0,0.0,0.0,0.0,0.0,0.0,0.0,0.0,0.0,0.0,0.0,0.0,0.0,0.0,0.0,0.0,0.0,0.0,0.0,0.0,0.0,0.0,0.0,3.9955,4.1523,4.4955,4.5864,4.6669,4.7867,4.9516,5.1188,5.281,5.3987,5.5316,5.6948,5.7328,5.7898,5.8788,5.9568,5.9986,5.9986,6.1125,6.1073,5.9922,6.0499,5.8989,5.5658,5.5658,5.3794,5.0681,5.0681,4.8811,4.5849,4.5849,4.4901,4.339,4.339,4.2431,4.112,4.112,4.112,4.112,4.112,4.112,4.1172,4.15,4.1604,4.1604,4.1604,4.2212,4.2811,4.2811,4.3097,4.3669,4.4813,4.3781,4.1975,4.0188,3.7264,3.4088,3.1055,3.0028,2.9974,3.1137,2.8617,2.7795,3.2564,3.4585,3.7158,4.1798,4.3785,4.4902,4.5224,4.4824,4.4579,4.4787,4.4227,4.3708,4.3409,4.3019,4.2825,4.3006,4.2733,4.2447,4.2265,4.1448,4.0608,3.9856,3.9163,3.6903,3.3135,0.0,0.0,0.0,0.0,0.0,0.0,0.0,0.0,0.0,0.0,0.0,0.0,0.0,0.0,0.0,0.0,0.0,0.0,0.0,0.0,0.0,0.0,0.0,0.0,0.0,0.0,4.469,4.4913,0.0,4.4913,4.5678,4.6774,4.8482,4.9849,5.1633,5.3822,5.424,5.5126,5.6622,5.7404,5.7822,5.7822,5.9226,6.0062,6.0365,6.0897,6.0173,5.8305,5.8305,5.6491,5.3314,5.3314,5.1337,4.8077,4.8623,4.692,4.396,4.396,4.2835,4.121,4.1547,4.1885,4.2166,4.2478,4.2761,4.2811,4.172,4.0254,3.8845,3.8845,3.9319,3.9976,4.0574,4.0886,4.1432,4.3149,4.311,4.2208,4.047,3.8636,3.6177,3.1798,3.0569,2.9466,2.639,2.3539,2.3161,2.791,3.0673,3.4004,3.918,4.2054,4.4033,4.512,4.4824,4.4579,4.4746,4.4045,4.3422,4.3058,4.2851,4.2707,4.2525,4.2499,4.216,4.138,4.0721,3.9708,3.8093,3.7345,3.5242,0.0,0.0,0.0,0.0,0.0,0.0,0.0,0.0,0.0,0.0,0.0,0.0,0.0,0.0,0.0,0.0,0.0,0.0,0.0,0.0,0.0,0.0,0.0,0.0,0.0,0.0,0.0,4.2182,4.2296,0.0,0.0,0.0,0.0,4.3319,4.4226,4.6117,4.9385,5.0418,5.2051,5.4481,5.543,5.5908,5.5984,5.691,5.78,5.8505,5.8543,5.9037,5.9872,5.991,5.8244,5.5289,5.5289,5.305,4.9399,5.0766,4.8535,4.4168,4.4073,4.3371,4.2611,4.3538,4.4355,4.5091,4.6129,4.6961,4.691,4.3011,3.8738,3.5087,3.4878,3.5241,0.0,0.0,3.8565,3.9337,4.1276,4.1302,4.0851,4.0955,4.1298,4.0556,3.652,3.3733,2.9814,2.2641,2.1045,2.1988,2.5589,0.0,3.1741,3.7089,4.0142,4.2655,4.4902,4.4772,4.4735,4.5172,4.4187,4.3486,4.3435,4.298,4.2473,4.19,4.1848,4.1328,4.021,3.9474,3.7989,3.5813,3.4592,0.0,0.0,0.0,0.0,0.0,0.0,0.0,0.0,0.0,0.0,0.0,0.0,0.0,0.0,0.0,0.0,0.0,0.0,0.0,0.0,0.0,0.0,0.0,0.0,0.0,0.0,3.5726,3.6481,3.9332,3.8575,3.7588,0.0,0.0,0.0,0.0,0.0,0.0,4.3388,4.4871,4.6546,4.8406,5.0484,5.2153,5.3405,5.4898,5.5734,5.5961,5.6569,5.6986,5.716,5.786,5.7741,5.6894,5.6894,5.4651,5.0807,4.989,4.6747,4.2396,4.0456,3.8257,3.633,3.7817,3.808,3.8064,4.0846,4.1528,4.0922,3.9174,3.7844,3.6375,3.3766,0.0,0.0,0.0,0.0,3.493,3.7999,3.8306,3.8306,3.9994,3.8775,3.6201,3.2443,2.9267,2.7313,2.753,2.4264,2.2181,2.479,2.5972,0.0,3.3826,3.7647,4.0825,4.311,4.4085,4.4579,4.4735,4.4019,4.324,4.2473,4.1812,4.124,4.073,4.0228,3.9656,3.8955,3.7107,3.524,3.3397,0.0,0.0,0.0,0.0,0.0,0.0,0.0,0.0,0.0,0.0,0.0,0.0,0.0,0.0,0.0,0.0,0.0,0.0,0.0,0.0,0.0,0.0,0.0,0.0,0.0,0.0,0.0,3.3751,3.5156,3.7323,3.6109,3.5085,0.0,0.0,0.0,0.0,0.0,0.0,0.0,0.0,0.0,4.3474,4.5212,4.6767,4.814,5.0153,5.1709,5.2798,5.3974,5.4974,5.5696,5.6189,5.6432,5.6432,5.6432,5.3239,4.8042,4.7008,4.4205,4.0386,0.0,0.0,0.0,0.0,3.73,3.7536,3.9785,4.0518,4.0104,3.7787,0.0,0.0,0.0,0.0,0.0,0.0,0.0,3.3305,3.5557,3.628,3.6748,3.8077,3.7034,3.5278,3.3401,2.8984,2.5183,2.4649,2.2281,2.0314,2.0442,2.2424,0.0,0.0,0.0,3.8773,4.1354,4.3058,4.4215,4.4475,4.3708,4.2851,4.203,4.1198,4.0409,3.9864,3.9208,3.83,3.7004,3.4981,3.2595,0.0,0.0,0.0,0.0,0.0,0.0,0.0,0.0,0.0,0.0,0.0,0.0,0.0,0.0,0.0,0.0,0.0,0.0,0.0,0.0,0.0,0.0,0.0,0.0,0.0,0.0,0.0,0.0,0.0,3.4485,3.5241,0.0,0.0,0.0,0.0,0.0,0.0,0.0,0.0,0.0,0.0,0.0,0.0,0.0,4.104,4.2068,4.4268,4.6508,4.8664,5.0257,5.1785,5.319,5.3304,5.3456,5.3645,5.3228,0.0,4.3243,4.2747,0.0,0.0,0.0,0.0,0.0,0.0,0.0,0.0,0.0,0.0,0.0,0.0,0.0,0.0,0.0,0.0,0.0,0.0,0.0,0.0,0.0,0.0,3.5086,3.5086,3.5268,3.5423,3.5552,3.0338,2.4294,1.9718,1.8913,1.8185,0.0,0.0,0.0,0.0,0.0,0.0,3.95,4.1968,4.3656,4.4241,4.3383,4.2551,4.19,4.086,3.9916,3.9208,3.8332,3.6877,3.4721,3.2881,0.0,0.0,0.0,0.0,0.0,0.0,0.0,0.0,0.0,0.0,0.0,0.0,0.0,0.0,0.0,0.0,0.0,0.0,0.0,0.0,0.0,0.0,0.0,0.0,0.0,0.0,0.0,0.0,0.0,0.0,0.0,0.0,0.0,0.0,0.0,0.0,0.0,0.0,0.0,0.0,0.0,0.0,0.0,0.0,0.0,0.0,0.0,0.0,0.0,0.0,4.2709,4.3354,4.3657,4.4382,4.5445,4.654,4.3812,4.1917,4.0472,3.7662,0.0,0.0,0.0,0.0,0.0,0.0,0.0,0.0,0.0,0.0,0.0,0.0,0.0,0.0,0.0,0.0,0.0,0.0,0.0,0.0,0.0,0.0,3.0326,3.0326,3.1393,3.1939,3.0054,0.0,0.0,0.0,0.0,0.0,0.0,0.0,0.0,0.0,0.0,0.0,3.7616,4.0964,4.2928,4.3097,4.2851,4.2305,4.1266,4.0626,3.9734,3.8695,3.5918,3.389,0.0,0.0,0.0,0.0,0.0,0.0,0.0,0.0,0.0,0.0,0.0,0.0,0.0,0.0,0.0,0.0,0.0,0.0,0.0,0.0,0.0,0.0,0.0,0.0,0.0,0.0,0.0,0.0,0.0,0.0,0.0,0.0,0.0,0.0,0.0,0.0,0.0,0.0,0.0,0.0,0.0,0.0,0.0,0.0,0.0,0.0,0.0,0.0,0.0,0.0,0.0,0.0,0.0,0.0,0.0,0.0,0.0,0.0,3.7471,3.49,0.0,0.0,0.0,0.0,0.0,0.0,0.0,0.0,0.0,0.0,0.0,0.0,0.0,0.0,0.0,0.0,0.0,0.0,0.0,0.0,0.0,0.0,0.0,0.0,0.0,0.0,0.0,0.0,0.0,0.0,0.0,0.0,0.0,0.0,0.0,0.0,0.0,0.0,0.0,0.0,3.5023,3.9427,4.2473,4.2785,4.2551,4.1247,3.8418,3.9144,3.7897,3.3725,3.3128,0.0,0.0,0.0,0.0,0.0,0.0,0.0,0.0,0.0,0.0,0.0,0.0,0.0,0.0,0.0,0.0,0.0,0.0,0.0,0.0,0.0,0.0,0.0,0.0,0.0,0.0,0.0,0.0,0.0,0.0,0.0,0.0,0.0,0.0,0.0,0.0,0.0,0.0,0.0,0.0,0.0,0.0,0.0,0.0,0.0,0.0,0.0,0.0,0.0,0.0,0.0,0.0,0.0,0.0,0.0,0.0,0.0,0.0,0.0,3.2516,2.9491,0.0,0.0,0.0,0.0,0.0,0.0,0.0,0.0,0.0,0.0,0.0,0.0,0.0,0.0,0.0,0.0,0.0,0.0,0.0,0.0,0.0,0.0,0.0,0.0,0.0,0.0,0.0,0.0,0.0,0.0,0.0,0.0,0.0,0.0,0.0,0.0,0.0,0.0,0.0,0.0,3.2677,3.8051,4.1952,4.2331,4.1401,3.9269,3.5687,3.6526,3.4839,2.912,3.0046,0.0,0.0,0.0,0.0,0.0,0.0,0.0,0.0,0.0,0.0,0.0,0.0,0.0,0.0,0.0,0.0,0.0,0.0,0.0,0.0,0.0,0.0,0.0,0.0,0.0,0.0,0.0,0.0,0.0,0.0,0.0,0.0,0.0,0.0,0.0,0.0,0.0,0.0,0.0,0.0,0.0,0.0,0.0,0.0,0.0,0.0,0.0,0.0,0.0,0.0,0.0,0.0,0.0,0.0,0.0,0.0,0.0,0.0,0.0,0.0,0.0,0.0,0.0,0.0,0.0,0.0,0.0,0.0,0.0,0.0,0.0,0.0,0.0,0.0,0.0,0.0,0.0,0.0,0.0,0.0,0.0,0.0,0.0,0.0,0.0,0.0,0.0,0.0,0.0,0.0,0.0,0.0,0.0,0.0,0.0,0.0,0.0,0.0,0.0,0.0,0.0,3.1406,3.7225,4.1137,4.1188,3.8426,3.6074,3.4997,3.2264,3.0086,2.8865,0.0,0.0,0.0,0.0,0.0,0.0,0.0,0.0,0.0,0.0,0.0,0.0,0.0,0.0,0.0,0.0,0.0,0.0,0.0,0.0,0.0,0.0,0.0,0.0,0.0,0.0,0.0,0.0,0.0,0.0,0.0,0.0,0.0,0.0,0.0,0.0,0.0,0.0,0.0,0.0,0.0,0.0,0.0,0.0,0.0,0.0,0.0,0.0,0.0,0.0,0.0,0.0,0.0,0.0,0.0,0.0,0.0,0.0,0.0,0.0,0.0,0.0,0.0,0.0,0.0,0.0,0.0,0.0,0.0,0.0,0.0,0.0,0.0,0.0,0.0,0.0,0.0,0.0,0.0,0.0,0.0,0.0,0.0,0.0,0.0,0.0,0.0,0.0,0.0,0.0,0.0,0.0,0.0,0.0,0.0,0.0,0.0,0.0,0.0,0.0,0.0,0.0,2.6363,3.1425,3.4903,3.4903,3.3716,3.1945,2.9394,2.955,2.7625,2.2681,0.0,0.0,0.0,0.0,0.0,0.0,0.0,0.0,0.0,0.0,0.0,0.0,0.0,0.0,0.0,0.0,0.0,0.0,0.0,0.0,0.0,0.0,0.0,0.0,0.0,0.0,0.0,0.0,0.0,0.0,0.0,0.0,0.0,0.0,0.0,0.0,0.0,0.0,0.0,0.0,0.0,0.0,0.0,0.0,0.0,0.0,0.0,0.0,0.0,0.0,0.0,0.0,0.0,0.0,0.0,0.0,0.0,0.0,0.0,0.0,0.0,0.0,0.0,0.0,0.0,0.0,0.0,0.0,0.0,0.0,0.0,0.0,0.0,0.0,0.0,0.0,0.0,0.0,0.0,0.0,0.0,0.0,0.0,0.0,0.0,0.0,0.0,0.0,0.0,0.0,0.0,0.0,0.0,0.0,0.0,0.0,0.0,0.0,0.0,0.0,0.0,0.0,2.2844,2.751,3.0933,3.0933,2.9987,2.8326,2.5687,2.62,2.4272,1.8617,0.0,0.0,0.0,0.0,0.0,0.0,0.0,0.0,0.0,0.0,0.0,0.0,0.0,0.0,0.0,0.0,0.0,0.0,0.0,0.0,0.0,0.0,0.0,0.0,0.0,0.0,0.0,0.0,0.0,0.0,0.0,0.0,0.0,0.0,0.0,0.0,0.0,0.0,0.0,0.0,0.0,0.0,0.0,0.0,0.0,0.0,0.0,0.0,0.0,0.0,0.0,0.0,0.0,0.0,0.0,0.0,0.0,0.0,0.0,0.0,0.0,0.0,0.0,0.0,0.0,0.0,0.0,0.0,0.0,0.0,0.0,0.0,0.0,0.0,0.0,0.0,0.0,0.0,0.0,0.0,0.0,0.0,0.0,0.0,0.0,0.0,0.0,0.0,0.0,0.0,0.0,0.0,0.0,0.0,0.0,0.0,0.0,0.0,0.0,0.0,0.0,0.0,2.2289,2.7342,3.0933,3.0933,2.7918,2.5816,2.55,2.1805,1.927,0.0,0.0,0.0,0.0,0.0,0.0,0.0,0.0,0.0,0.0,0.0,0.0,0.0,0.0,0.0,0.0,0.0,0.0,0.0,0.0,0.0,0.0,0.0,0.0,0.0,0.0,0.0,0.0,0.0,0.0,0.0,0.0,0.0,0.0,0.0,0.0,0.0,0.0,0.0,0.0,0.0,0.0,0.0,0.0,0.0,0.0,0.0,0.0,0.0,0.0,0.0,0.0,0.0,0.0,0.0,0.0,0.0,0.0,0.0,0.0,0.0,0.0,0.0,0.0,0.0,0.0,0.0,0.0,0.0,0.0,0.0,0.0,0.0,0.0,0.0,0.0,0.0,0.0,0.0,0.0,0.0,0.0,0.0,0.0,0.0,0.0,0.0,0.0,0.0,0.0,0.0,0.0,0.0,0.0,0.0,0.0,0.0,0.0,0.0,0.0,0.0,0.0,0.0,1.8719,2.1206,2.3104,2.391,2.3055,2.2385,2.2286,2.0532,1.8884,1.7536,0.0,0.0,0.0,0.0,0.0,0.0,0.0,0.0,0.0,0.0,0.0,0.0,0.0,0.0,0.0,0.0,0.0,0.0,0.0,0.0,0.0,0.0,0.0,0.0,0.0,0.0,0.0,0.0,0.0,0.0,0.0,0.0,0.0,0.0,0.0,0.0,0.0,0.0,0.0,0.0,0.0,0.0,0.0,0.0,0.0,0.0,0.0,0.0,0.0,0.0,0.0,0.0,0.0,0.0,0.0,0.0,0.0,0.0,0.0,0.0,0.0,0.0,0.0,0.0,0.0,0.0,0.0,0.0,0.0,0.0,0.0,0.0,0.0,0.0,0.0,0.0,0.0,0.0,0.0,0.0,0.0,0.0,0.0,0.0,0.0,0.0,0.0,0.0,0.0,0.0,0.0,0.0,0.0,0.0,0.0,0.0,0.0,0.0,0.0,0.0,0.0,0.0,0.0,1.8433,1.9712,2.0437,2.0516,2.0516,2.0516,1.9651,1.8508,1.7022,0.0,0.0,0.0,0.0,0.0,0.0,0.0,0.0,0.0,0.0,0.0,0.0,0.0,0.0,0.0,0.0,0.0,0.0,0.0,0.0,0.0,0.0,0.0,0.0,0.0,0.0,0.0,0.0,0.0,0.0,0.0,0.0,0.0,0.0,0.0,0.0,0.0,0.0,0.0,0.0,0.0,0.0,0.0,0.0,0.0,0.0,0.0,0.0,0.0,0.0,0.0,0.0,0.0,0.0,0.0,0.0,0.0,0.0,0.0,0.0,0.0,0.0,0.0,0.0,0.0,0.0,0.0,0.0,0.0,0.0,0.0,0.0,0.0,0.0,0.0,0.0,0.0,0.0,0.0,0.0,0.0,0.0,0.0,0.0,0.0,0.0,0.0,0.0,0.0,0.0,0.0,0.0,0.0,0.0,0.0,0.0,0.0,0.0,0.0,0.0,0.0,0.0,0.0,1.853,1.9932,1.9976,2.0051,2.0051,2.0051,1.9185,1.8183,1.7009,1.5011,0.0,0.0,0.0,0.0,0.0,0.0,0.0,0.0,0.0,0.0,0.0,0.0,0.0,0.0,0.0,0.0,0.0,0.0,0.0,0.0,0.0,0.0,0.0,0.0,0.0,0.0,0.0,0.0,0.0,0.0,0.0,0.0,0.0,0.0,0.0,0.0,0.0,0.0,0.0,0.0,0.0,0.0,0.0,0.0,0.0,0.0,0.0,0.0,0.0,0.0,0.0,0.0,0.0,0.0,0.0,0.0,0.0,0.0,0.0,0.0,0.0,0.0,0.0,0.0,0.0,0.0,0.0,0.0,0.0,0.0,0.0,0.0,0.0,0.0,0.0,0.0,0.0,0.0,0.0,0.0,0.0,0.0,0.0,0.0,0.0,0.0,0.0,0.0,0.0,0.0,0.0,0.0,0.0,0.0,0.0,0.0,0.0,0.0,0.0,0.0,0.0,0.0,1.784,1.8794,1.9932,2.0051,2.0051,2.0051,1.9185,1.8183,1.7009,1.544,0.0,0.0,0.0,0.0,0.0,0.0,0.0,0.0,0.0,0.0,0.0,0.0,0.0,0.0,0.0,0.0,0.0,0.0,0.0,0.0,0.0,0.0,0.0,0.0,0.0,0.0,0.0,0.0,0.0,0.0,0.0,0.0,0.0,0.0,0.0,0.0,0.0,0.0,0.0,0.0,0.0,0.0,0.0,0.0,0.0,0.0,0.0,0.0,0.0,0.0,0.0,0.0,0.0,0.0,0.0,0.0,0.0,0.0,0.0,0.0,0.0,0.0,0.0,0.0,0.0,0.0,0.0,0.0,0.0,0.0,0.0,0.0,0.0,0.0,0.0,0.0,0.0,0.0,0.0,0.0,0.0,0.0,0.0,0.0,0.0,0.0,0.0,0.0,0.0,0.0,0.0,0.0,0.0,0.0,0.0,0.0,0.0,0.0,0.0,0.0,0.0,0.0,1.6337,1.7366,1.9185,1.9501,1.9475,1.927,1.8675,1.7721,1.6365,1.505,0.0,0.0,0.0,0.0,0.0,0.0,0.0,0.0,0.0,0.0,0.0,0.0,0.0,0.0,0.0,0.0,0.0,0.0,0.0,0.0,0.0,0.0,0.0,0.0,0.0,0.0,0.0,0.0,0.0,0.0,0.0,0.0,0.0,0.0,0.0,0.0,0.0,0.0,0.0,0.0,0.0,0.0,0.0,0.0,0.0,0.0,0.0,0.0,0.0,0.0,0.0,0.0,0.0,0.0,0.0,0.0,0.0,0.0,0.0,0.0,0.0,0.0,0.0,0.0,0.0,0.0,0.0,0.0,0.0,0.0,0.0,0.0,0.0,0.0,0.0,0.0,0.0,0.0,0.0,0.0,0.0,0.0,0.0,0.0,0.0,0.0,0.0,0.0,0.0,0.0,0.0,0.0,0.0,0.0,0.0,0.0,0.0,0.0,0.0,0.0,0.0,0.0,0.0,1.5997,1.813,1.871,1.875,1.8265,1.7948,1.7154,1.5603,0.0,0.0,0.0,0.0,0.0,0.0,0.0,0.0,0.0,0.0,0.0,0.0,0.0,0.0,0.0,0.0,0.0,0.0,0.0,0.0,0.0,0.0,0.0,0.0,0.0,0.0,0.0,0.0,0.0,0.0,0.0,0.0,0.0,0.0,0.0,0.0,0.0,0.0,0.0,0.0,0.0,0.0,0.0,0.0,0.0,0.0,0.0,0.0,0.0,0.0,0.0,0.0,0.0,0.0,0.0,0.0,0.0,0.0,0.0,0.0,0.0,0.0,0.0,0.0,0.0,0.0,0.0,0.0,0.0,0.0,0.0,0.0,0.0,0.0,0.0,0.0,0.0,0.0,0.0,0.0,0.0,0.0,0.0,0.0,0.0,0.0,0.0,0.0,0.0,0.0,0.0,0.0,0.0,0.0,0.0,0.0,0.0,0.0,0.0,0.0,0.0,0.0,0.0,0.0,1.5839,1.6732,1.7747,1.8292,1.7948,1.7602,1.6759,1.53,0.0,0.0,0.0,0.0,0.0,0.0,0.0,0.0,0.0,0.0,0.0,0.0,0.0,0.0]}],[{"header":{"parameterUnit":"kt","parameterCategory":2,"dx":1,"dy":1,"la1":29.285339999999998,"la2":30.599998999999997,"lo1":-89.70041500000002,"lo2":-87.6738589999976,"nx":112,"ny":82,"refTime":"2022-10-03T12:00:00:Z","depth":0,"parameterNumber":2,"parameterNumberName":"V-component_of_WINDS"},"data":[8.3844,8.7078,8.9555,8.7156,8.9421,9.1232,8.7462,9.0834,9.4394,9.2913,9.5504,9.7876,9.7445,0.0,0.0,0.0,0.0,0.0,0.0,8.6051,0.0,0.0,0.0,0.0,0.0,0.0,0.0,0.0,0.0,0.0,0.0,12.8434,13.0003,13.1528,13.1599,13.1599,13.1599,13.1599,13.1599,13.1599,13.3214,13.3143,13.1671,13.4882,13.4855,13.2598,13.5141,13.703,13.8207,13.8517,13.9967,14.1999,14.1209,14.092,14.092,14.092,14.092,14.092,14.092,14.092,14.092,14.092,14.3894,14.7517,14.7517,14.9417,15.1389,15.0461,14.9128,14.7522,14.5897,14.6173,14.6842,14.6295,14.6951,14.8126,14.9806,15.0144,15.0474,15.1318,15.1514,15.1281,15.0416,15.1964,15.3722,15.4874,15.6495,15.7631,15.7631,15.7631,15.7631,15.7631,15.7631,15.6553,15.3865,14.9967,14.6805,14.4968,14.4149,14.3259,14.2081,14.203,14.1182,13.9307,13.7281,13.5738,13.4597,13.3571,13.2572,13.1671,13.3669,13.4597,8.1354,8.434,8.6696,8.23,8.4374,8.6662,8.3397,8.6493,8.9842,8.9368,9.2322,9.4468,9.2669,0.0,0.0,0.0,0.0,0.0,0.0,0.0,9.0186,9.3718,0.0,0.0,0.0,0.0,0.0,0.0,11.8064,0.0,12.6696,12.922,13.1045,13.2074,13.2493,13.2638,13.2638,13.2638,13.2638,13.2638,13.3695,13.3623,13.271,13.4403,13.4057,13.2289,13.4944,13.6839,13.8075,13.8893,14.0558,14.2563,14.1427,14.092,14.092,14.092,14.092,14.092,14.092,14.092,14.092,14.092,14.3779,14.7381,14.7987,14.9915,15.1853,15.1515,15.0292,14.8673,14.7037,14.7376,14.7863,14.6753,14.7284,14.8464,15.023,15.0604,15.104,15.2502,15.2765,15.2561,15.1688,15.3206,15.4792,15.5562,15.6774,15.7631,15.7631,15.7631,15.7631,15.7631,15.7631,15.6734,15.4491,15.1607,14.8778,14.6148,14.5378,14.4404,14.3305,14.2929,14.183,13.9965,13.7552,13.5997,13.5498,13.4427,13.3642,13.3241,13.6354,13.7281,7.9747,8.1471,8.3556,7.8601,8.0352,8.2958,8.1555,8.5617,8.9571,8.9171,9.2089,9.4084,9.1868,0.0,0.0,0.0,0.0,0.0,0.0,9.3142,9.5883,10.33,0.0,0.0,0.0,10.9743,11.0854,0.0,11.8944,12.1965,12.6771,13.0933,13.3198,13.322,13.4166,13.4713,13.4786,13.4786,13.4786,13.4786,13.4786,13.4786,13.4674,13.3684,13.322,13.3388,13.5051,13.6646,13.829,13.9788,14.131,14.2612,14.1436,14.0948,14.092,14.092,14.092,14.092,14.092,14.092,14.092,14.092,14.3598,14.7046,14.8798,15.0913,15.2636,15.2636,15.1514,14.9944,14.8209,14.7761,14.7423,14.6316,14.6035,14.6656,14.8769,14.9195,15.0149,15.3356,15.4016,15.4016,15.3971,15.4935,15.5788,15.5788,15.6807,15.7631,15.7631,15.7631,15.7631,15.7631,15.7631,15.6285,15.2935,15.2636,15.0751,14.6384,14.6035,14.5584,14.4519,14.3279,14.1213,13.8146,13.6809,13.5498,13.3999,13.3999,13.4784,13.6354,13.9493,13.9351,7.5442,7.7355,8.0112,7.8013,7.9734,8.1926,8.169,8.2721,8.4165,8.5994,8.7306,0.0,0.0,0.0,0.0,0.0,0.0,9.6081,9.7873,10.0731,10.5031,11.1647,0.0,0.0,0.0,11.3851,11.5495,11.8872,12.1679,12.4686,12.79,13.1278,13.3508,13.4249,13.4574,13.532,13.6533,13.6533,13.6533,13.6533,13.6533,13.5926,13.4713,13.4413,13.4948,13.6159,13.6619,13.8374,14.0839,14.1278,14.2426,14.3829,14.2661,14.1703,14.092,14.092,14.092,14.092,14.092,14.092,14.092,14.092,14.3598,14.7046,14.8798,15.1729,15.4192,15.2935,15.2262,15.129,14.8434,14.7761,14.7629,14.7349,14.7214,14.8048,15.103,15.165,15.234,15.4722,15.5251,15.4915,15.4105,15.5693,15.7137,15.7137,15.7418,15.7631,15.7631,15.7631,15.7631,15.7631,15.7631,15.6734,15.464,15.3309,15.1576,14.9259,14.79,14.6779,14.5622,14.3333,14.1371,13.974,13.6307,13.4927,13.564,13.564,13.5854,13.6354,13.9493,14.0492,7.4046,7.5791,7.8606,7.7024,7.9535,8.211,8.1125,8.1993,8.3514,8.499,0.0,0.0,0.0,0.0,0.0,0.0,9.5695,9.9777,10.1433,10.5391,11.0087,11.5481,0.0,0.0,11.6216,11.7028,11.8429,12.0538,12.3539,12.6491,12.9359,13.2612,13.4699,13.5361,13.6512,13.7533,13.8513,13.9253,13.9623,13.9549,13.8883,13.8069,13.7072,13.6593,13.6927,13.7958,13.8787,14.0201,14.1921,14.2163,14.2819,14.3627,14.2977,14.2285,14.1624,14.1071,14.092,14.092,14.092,14.092,14.092,14.092,14.3164,14.6323,14.9173,15.1886,15.3818,15.286,15.2561,15.1813,14.8583,14.7761,14.7761,14.7761,14.7761,14.8658,15.1888,15.2561,15.3384,15.6002,15.6495,15.632,15.5617,15.6673,15.7631,15.7631,15.7631,15.7631,15.7631,15.7631,15.7631,15.7631,15.7631,15.6659,15.4266,15.3159,15.1589,14.9331,14.8284,14.7408,14.6705,14.4715,14.2513,14.0065,13.7112,13.5819,13.6282,13.6282,13.7176,13.8974,14.1011,14.1919,7.3814,7.5219,7.7959,7.5941,7.9326,8.2639,8.0762,0.0,8.5924,8.654,0.0,9.0862,9.0599,0.0,0.0,9.11,9.7387,10.2971,10.4701,10.8584,11.2608,11.6245,11.8854,12.0101,11.9248,11.9212,12.0109,12.2227,12.4743,12.7649,13.0841,13.4255,13.6204,13.6416,13.8977,14.0446,14.067,14.2288,14.3111,14.3111,14.1405,14.067,14.0569,13.9497,13.9096,13.9481,14.1272,14.2056,14.2056,14.2654,14.2808,14.2661,14.2513,14.2464,14.2411,14.1463,14.1099,14.1126,14.1291,14.1345,14.1345,14.1345,14.271,14.5158,14.9192,15.1477,15.2561,15.2561,15.2561,15.1813,14.8583,14.7761,14.7761,14.7761,14.791,14.8882,15.1963,15.2785,15.3832,15.7033,15.7631,15.7631,15.7631,15.7631,15.7631,15.7631,15.7631,15.7631,15.7631,15.7631,15.7631,15.7631,15.7482,15.6061,15.286,15.2412,15.0991,14.791,14.7761,14.7761,14.7761,14.6705,14.4123,13.9642,13.8356,13.7278,13.6453,13.6506,13.8779,14.3171,14.347,14.3581,6.9599,7.1295,7.4733,7.5419,7.7363,8.0142,0.0,0.0,0.0,9.3641,9.5109,9.5919,9.8328,9.8907,9.9752,10.2145,10.665,11.0398,11.1879,11.3965,11.5395,11.5667,11.7294,11.8267,11.8085,11.9656,12.1631,12.3965,12.5756,12.8336,13.1905,13.395,13.5755,13.7495,13.9318,14.1031,14.2363,14.3933,14.4756,14.4756,14.3111,14.2363,14.2363,14.0744,14.0991,14.276,14.3177,14.3035,14.2611,14.3638,14.3536,14.2588,14.165,14.1264,14.1373,14.2056,14.2361,14.2439,14.3398,14.3739,14.3739,14.3739,14.4049,14.4697,14.6435,14.9599,15.2561,15.2561,15.2561,15.1813,14.8583,14.7761,14.7761,14.7761,14.8808,15.0318,15.2187,15.3668,15.5238,15.7257,15.7631,15.7631,15.7631,15.7631,15.7631,15.7631,15.7631,15.7631,15.7631,15.7631,15.7631,15.7631,15.6435,15.479,15.2785,15.1439,14.9869,14.7835,14.7761,14.7761,14.7761,14.7542,14.493,13.9662,13.7192,13.6533,13.769,13.7988,14.0851,14.5966,14.6015,14.5587,6.8117,7.0239,7.3728,7.4385,7.7376,0.0,0.0,8.4837,8.7884,9.384,9.5887,9.7746,10.1545,10.289,10.3675,10.4459,10.8983,11.2588,11.3317,11.5121,11.6586,11.7034,11.8883,12.0746,12.2431,12.3118,12.4282,12.6283,12.7985,12.9987,13.2632,13.3994,13.5416,13.6999,13.8682,14.0649,14.2886,14.4457,14.5204,14.5204,14.3634,14.2886,14.2886,14.2003,14.2615,14.4429,14.4179,14.3868,14.3513,14.2929,14.3048,14.349,14.2929,14.2661,14.2735,14.3329,14.3559,14.3649,14.4223,14.4949,14.563,14.563,14.6593,14.7795,14.8377,15.0418,15.2412,15.1664,15.1963,15.1813,14.8583,14.7761,14.7761,14.7761,14.8359,14.9645,15.2038,15.3219,15.464,15.7183,15.7631,15.7631,15.7631,15.7631,15.7631,15.7631,15.7631,15.7631,15.7631,15.7631,15.7631,15.7631,15.6136,15.4416,15.2711,15.114,14.957,14.7835,14.7761,14.7761,14.7761,14.6938,14.5169,14.2401,14.0554,13.9294,13.8747,14.0678,14.3604,14.7604,14.7057,14.6605,6.733,7.0087,7.3784,7.4509,7.8274,0.0,8.325,8.5589,8.9115,9.4435,9.7391,10.0221,10.4101,10.6073,10.6671,10.5437,10.9454,11.295,11.3592,11.5388,11.7287,11.9163,12.1502,12.3873,12.6571,12.6288,12.6552,12.7919,12.9554,13.1258,13.3079,13.4124,13.5341,13.6682,13.8288,14.0334,14.2886,14.4083,14.4756,14.4756,14.3111,14.2737,14.3335,14.3036,14.3774,14.5363,14.4881,14.4623,14.4265,14.2411,14.271,14.4414,14.4414,14.4414,14.4435,14.4664,14.4746,14.4861,14.5357,14.6414,14.7539,14.776,14.9431,15.1327,15.1327,15.2187,15.286,15.1574,15.1888,15.1888,14.8957,14.7985,14.7761,14.7761,14.7985,14.8957,15.1589,15.2636,15.3892,15.6584,15.7183,15.7257,15.7557,15.7631,15.7631,15.7631,15.7631,15.7631,15.7631,15.7631,15.7482,15.7183,15.5612,15.3967,15.2262,15.0691,14.9196,14.7835,14.7761,14.7761,14.7761,14.6116,14.5055,14.4756,14.402,14.2773,14.089,14.3129,14.5701,14.8485,14.7775,14.7538,0.0,0.0,0.0,7.8235,7.9776,0.0,9.3114,9.3824,9.4671,10.2952,10.5866,10.7585,10.9457,11.0987,11.188,11.1737,11.2308,11.3735,11.6518,11.711,11.8417,12.1323,12.3254,12.4495,12.4853,12.6066,12.6896,12.7064,12.859,13.0545,13.3033,13.4124,13.5875,13.8387,13.9591,14.1023,14.2886,14.3036,14.3111,14.3111,14.1405,14.2152,14.4905,14.3485,14.4005,14.5899,14.5837,14.532,14.4393,14.4136,14.4179,14.4414,14.4414,14.4414,14.454,14.5491,14.5822,14.6169,14.8758,14.9752,15.0126,15.1485,15.2143,15.2428,15.2428,15.3534,15.479,15.4625,15.3593,15.2187,15.0467,14.8882,14.7761,14.7761,14.8882,15.0093,15.0467,15.2771,15.4924,15.5313,15.5373,15.5911,15.7407,15.7631,15.7631,15.7631,15.7631,15.7631,15.7631,15.7631,15.7033,15.5538,15.3892,15.2262,15.0617,14.8957,14.791,14.7761,14.7761,14.7761,14.7761,14.6116,14.4531,14.3185,14.3499,14.422,14.5467,14.4285,14.5414,14.8521,14.944,14.9368,0.0,0.0,7.4633,7.8964,0.0,0.0,9.063,9.2473,9.4739,10.0618,10.3288,10.5762,10.9875,11.1073,11.1744,11.2624,11.3521,11.4854,11.7089,11.8992,12.1346,12.4485,12.6364,12.7649,12.8602,12.9244,12.9647,12.9647,13.0217,13.1117,13.2198,13.2662,13.3975,13.6355,13.6807,13.8475,14.1391,14.1405,14.1405,14.1405,14.1704,14.2513,14.3858,14.4083,14.5257,14.6954,14.6282,14.575,14.5416,14.6056,14.6356,14.6356,14.6356,14.6356,14.639,14.6843,14.697,14.7315,14.9528,15.0841,15.1888,15.3519,15.4715,15.5538,15.5538,15.464,15.3818,15.485,15.3219,15.1065,15.0467,14.9719,14.8957,14.7985,14.8284,14.9032,15.0018,15.135,15.2546,15.3444,15.4416,15.5687,15.7332,15.7631,15.7631,15.7631,15.7631,15.7631,15.7631,15.7631,15.7033,15.5298,15.3593,15.1963,15.0392,14.8733,14.7761,14.7761,14.7761,14.7761,14.7761,14.6116,14.5354,14.5667,14.4095,14.4451,14.7075,14.7358,14.8178,14.952,15.0007,14.9657,6.7809,0.0,0.0,0.0,0.0,0.0,9.0776,9.2407,9.439,9.8472,10.0903,10.3745,10.849,11.0027,11.0926,11.2002,11.3793,11.5924,11.835,12.106,12.4153,12.7792,12.9219,13.036,13.1457,13.1599,13.1599,0.0,13.1599,13.1599,13.1599,13.1599,13.266,13.4906,13.509,13.6655,13.9901,14.0187,14.0371,14.0371,14.1704,14.2647,14.3095,14.4214,14.5647,14.7198,14.6672,14.6433,14.6558,14.7378,14.7761,14.7761,14.7761,14.7761,14.7761,14.7761,14.7761,14.7985,14.9645,15.0991,15.2337,15.4416,15.5971,15.6958,15.6958,15.5238,15.3519,15.479,15.3444,15.1574,15.1574,15.0901,14.9854,14.8135,14.7761,14.806,14.9271,14.957,15.0018,15.1664,15.3294,15.4939,15.6659,15.7332,15.7631,15.7631,15.7631,15.7631,15.7631,15.7257,15.6285,15.4565,15.2935,15.129,14.9705,14.8434,14.7761,14.7761,14.8209,14.8434,14.8434,14.7237,14.6938,14.7686,14.5891,14.5592,14.7013,14.8902,14.9424,14.8882,14.9484,14.9264,0.0,0.0,0.0,8.8711,8.9141,9.0076,9.8553,9.6868,9.4885,9.9809,10.2084,10.3819,10.5861,10.8661,11.0629,11.0654,11.3137,11.6709,12.1274,12.3439,12.6247,13.0886,13.1528,13.1528,13.1599,13.1599,13.1599,13.1599,13.1599,13.1599,13.1599,13.1599,13.2863,13.5536,13.6022,13.7069,13.8824,13.9858,14.0371,14.0358,14.0906,14.2053,14.3627,14.3701,14.4517,14.607,14.7183,14.7657,14.7657,14.7672,14.7761,14.7761,14.7761,14.7761,14.7761,14.7761,14.7761,14.7985,14.9645,15.0318,15.0841,15.4042,15.5149,15.5224,15.5224,15.5149,15.5074,15.5074,15.4999,15.4999,15.4999,15.2621,14.9854,14.8135,14.7761,14.7761,14.7761,14.7835,14.8284,15.0018,15.1589,15.3234,15.4939,15.6584,15.7631,15.7631,15.7631,15.7631,15.7631,15.6211,15.4565,15.286,15.129,14.9645,14.791,14.7761,14.7761,14.7761,14.9256,15.0168,15.0168,15.0168,14.9331,14.7761,14.9256,14.8434,14.5279,14.7466,14.7425,14.5415,14.7541,14.826,7.5825,8.0776,8.5572,9.0584,9.2761,9.401,9.521,9.5977,9.6585,9.6811,9.9455,10.2147,10.3887,10.5044,10.6386,10.8659,11.2484,11.6793,12.1438,12.4413,12.7506,13.1171,13.1599,13.1599,13.1599,13.1599,13.1599,13.1599,13.1599,13.1599,13.1599,13.1599,13.2047,13.296,13.3776,13.5286,13.7642,13.8774,13.9807,14.0891,14.2899,14.4139,14.4751,14.587,14.6615,14.7168,14.7571,14.7761,14.7761,14.7761,14.7761,14.7761,14.7761,14.7761,14.7761,14.7761,14.7761,14.7985,14.9645,15.0243,15.0617,15.2771,15.3444,15.3444,15.3444,15.3444,15.3444,15.3444,15.4266,15.5149,15.5149,15.4326,15.2771,15.0079,14.8508,14.7761,14.7761,14.7761,14.8209,14.9944,15.1514,15.3159,15.485,15.651,15.7631,15.7631,15.7631,15.7257,15.6136,15.5448,15.4042,15.1365,15.0542,14.9555,14.7835,14.7761,14.7761,14.7761,14.9331,15.0243,15.0243,15.0243,15.0976,15.2621,14.9929,14.7985,14.6863,14.8767,14.9304,14.8583,14.9289,14.9603,7.9679,8.4491,8.8384,9.2762,9.5102,9.5841,9.3934,9.4669,9.5649,9.5018,9.692,9.9455,10.1913,10.3241,10.5122,10.853,11.2988,11.763,12.234,12.5269,12.8077,13.1242,13.1599,13.1599,13.1599,13.1599,13.1599,13.1599,13.1599,13.1599,13.1599,13.1599,13.1599,13.1599,13.2223,13.3612,13.5636,13.8383,14.0479,14.2093,14.4381,14.5466,14.5541,14.66,14.7122,14.7137,14.7571,14.7761,14.7761,14.7761,14.7761,14.7761,14.7761,14.7761,14.7761,14.7761,14.7761,14.791,14.8957,14.9331,14.9645,15.1215,15.1738,15.1888,15.2412,15.2561,15.2711,15.3294,15.4266,15.5224,15.5837,15.5597,15.4416,15.1738,14.9854,14.8434,14.7835,14.7761,14.806,14.9181,15.114,15.2935,15.4042,15.6136,15.7631,15.7631,15.7631,15.7033,15.5298,15.4565,15.3219,15.0542,14.9705,14.8882,14.7835,14.7761,14.7985,14.8583,15.0168,15.1065,15.1065,15.1649,15.2397,15.3369,15.0228,14.806,14.6863,14.791,14.8434,14.8434,14.9032,14.9331,8.2426,8.7064,9.0548,9.5456,9.6356,9.5717,9.4914,9.3282,9.249,9.4299,9.4819,9.6096,10.014,10.3176,10.6294,11.0095,11.4369,11.8883,12.3908,12.5865,12.8006,13.1242,13.1599,13.1599,13.1599,13.1599,13.1599,13.1599,13.1599,13.1599,13.1599,13.1599,13.1599,13.1599,13.1599,13.207,13.306,13.8281,14.1823,14.3597,14.5206,14.6017,14.6052,14.6052,14.6052,14.6104,14.7214,14.7761,14.7761,14.7761,14.7761,14.7761,14.7761,14.7761,14.7761,14.7761,14.7761,14.7761,14.7761,14.7761,14.7985,14.9555,15.0093,15.0392,15.1888,15.2486,15.2935,15.4565,15.5149,15.5597,15.7257,15.6435,15.479,15.301,15.1439,14.9869,14.8135,14.7761,14.7761,14.7761,15.0318,15.2486,15.2486,15.5238,15.7482,15.7407,15.7482,15.6884,15.5089,15.3444,15.1888,15.0318,14.8658,14.7761,14.7761,14.7761,14.8434,15.0168,15.1738,15.2636,15.2711,15.4117,15.3444,15.0467,15.0018,14.8284,14.5055,14.5279,14.5279,14.5204,14.7013,14.7835,8.7433,9.3832,9.6939,9.7515,9.755,9.6588,9.3427,9.2281,9.2071,9.2614,9.3834,9.5971,9.9648,10.092,10.3861,11.1126,11.334,11.6523,12.3569,12.4962,12.6793,13.11,13.1599,13.1599,13.1599,13.1599,13.1599,13.1599,13.1599,13.1599,13.1599,13.1599,13.1599,13.1599,13.1599,13.1781,13.197,13.451,13.8053,14.2367,14.4826,14.6417,14.7318,14.7318,14.7318,14.7333,14.76,14.7761,14.7761,14.7761,14.7761,14.7761,14.7761,14.7761,14.7761,14.7761,14.7761,14.7761,14.7761,14.7761,14.7835,14.8209,14.8359,14.8434,14.8808,15.0691,15.2711,15.3085,15.5089,15.7108,15.7557,15.7332,15.6285,15.3309,15.2262,15.1215,14.8359,14.7761,14.7761,14.7761,14.9406,15.0841,15.0841,15.3593,15.5313,15.4057,15.4939,15.4715,15.1873,15.114,15.0243,14.8583,14.7985,14.7761,14.7761,14.7761,14.8434,15.0168,15.1738,15.3159,15.4416,15.2546,15.1664,15.1963,14.7237,14.4307,14.3485,14.5891,14.6489,14.5279,14.8209,14.8957,8.4825,9.2778,9.8505,9.8074,9.7964,9.6905,9.2846,9.1962,9.1962,9.1962,9.2805,9.492,9.9285,10.0605,10.3883,11.2539,11.3892,11.6636,12.4515,12.5034,12.6318,13.1028,13.1599,13.1599,13.1599,13.1599,13.1599,13.1599,13.1599,13.1599,13.1599,13.1599,13.1599,13.1599,13.1599,13.1599,13.1599,13.3143,13.6041,14.0213,14.414,14.6333,14.6954,14.7527,14.7761,14.7761,14.7761,14.7761,14.7761,14.7761,14.7761,14.7761,14.7761,14.7761,14.7761,14.7761,14.7761,14.7761,14.7761,14.7761,14.7761,14.7761,14.7761,14.7835,14.8658,15.0617,15.2785,15.3519,15.5612,15.7631,15.7631,15.7631,15.6958,15.4341,15.3159,15.1888,14.9406,14.8284,14.7761,14.7761,14.9107,15.0243,15.0243,15.2322,15.3668,15.2711,15.3369,15.307,15.0617,15.0243,14.9645,14.791,14.7761,14.7761,14.7761,14.7761,14.8733,15.114,15.2112,15.301,15.3967,15.1574,14.9944,14.9331,14.3648,14.0643,14.0643,14.3199,14.4396,14.4232,14.6863,14.791,8.0602,8.9347,9.7462,9.7885,9.7964,9.6905,9.2846,9.1962,9.1962,9.1962,9.1962,9.3672,9.934,10.1391,10.5071,11.3797,11.4993,11.758,12.5486,12.5223,12.6104,13.1028,13.1599,13.1599,13.1599,13.1599,13.1599,13.1599,13.1599,13.1599,13.1599,13.1599,13.1599,13.1599,13.1599,13.1599,13.1599,13.2929,13.5056,13.7835,14.2788,14.5502,14.6265,14.7229,14.7761,14.7761,14.7761,14.7761,14.7761,14.7761,14.7761,14.7761,14.7761,14.7761,14.7761,14.7761,14.7761,14.7761,14.7761,14.7761,14.7761,14.7761,14.7761,14.7985,14.9481,15.114,15.2935,15.4341,15.6136,15.7631,15.7631,15.7631,15.7257,15.5538,15.3818,15.2187,15.0841,14.9032,14.7761,14.7761,14.8882,14.9944,14.9944,15.1215,15.2187,15.1963,15.2112,15.1738,15.0093,14.9944,14.9331,14.791,14.7761,14.7761,14.7761,14.7761,14.9032,15.2112,15.2262,15.2412,15.2561,15.0617,14.7985,14.4606,14.0133,13.7815,13.7815,13.9759,14.1405,14.2886,14.4681,14.634,8.8143,9.4058,9.7462,9.7885,9.7964,9.6905,9.2846,9.1962,9.1962,9.1962,9.1962,9.4009,10.0615,10.2077,10.5034,11.3676,11.3982,11.5927,12.3875,12.3582,12.4795,13.0886,13.1599,13.1599,13.1599,13.1599,13.1599,13.1599,13.1599,13.1599,13.1599,13.1599,13.1599,13.1599,13.1599,13.1599,13.1599,13.1885,13.3587,13.6638,13.9389,14.3031,14.7423,14.7629,14.7761,14.7761,14.7761,14.7761,14.7761,14.7761,14.7761,14.7761,14.7761,14.7761,14.7761,14.7761,14.7761,14.7761,14.7761,14.7761,14.7761,14.7761,14.7761,14.7761,14.806,15.0228,15.2636,15.2935,15.5238,15.7631,15.7631,15.7631,15.7257,15.5538,15.3818,15.2486,15.2262,14.9869,14.7761,14.7761,14.7985,14.8135,14.8135,14.9555,15.0168,14.8808,14.9794,15.0093,14.8359,14.8135,14.806,14.7761,14.7761,14.7761,14.7761,14.7761,14.8583,15.0542,15.0691,15.1215,15.2561,14.8359,14.4545,14.1269,13.8937,13.7815,13.7815,14.0956,14.2587,14.2961,14.5891,14.7462,8.4642,9.067,9.5516,9.7232,9.7823,9.7172,9.4158,9.268,9.2239,9.3241,9.3486,9.5019,10.0191,10.332,10.7027,11.2991,11.3981,11.6483,12.3619,12.3154,12.4438,13.0814,13.1599,13.1599,13.1599,13.1599,13.1599,13.1599,13.1599,13.1599,13.1599,13.1599,13.1863,13.2395,13.242,13.2662,13.3243,13.3171,13.4403,13.6698,13.8655,14.1685,14.5577,14.6153,14.6863,14.7761,14.7761,14.7761,14.7761,14.7761,14.7761,14.7761,14.7761,14.7761,14.7761,14.7761,14.7761,14.7761,14.7761,14.7761,14.7761,14.7761,14.7761,14.7761,14.7761,15.0004,15.2561,15.2561,15.5029,15.7631,15.7631,15.7631,15.7407,15.6659,15.5164,15.3668,15.2785,15.0766,14.8808,14.791,14.7761,14.7761,14.7761,14.8434,14.8658,14.7835,14.8434,14.8658,14.7835,14.7761,14.7761,14.7761,14.7761,14.7761,14.7761,14.7761,14.8434,15.0168,15.0243,15.0243,15.0093,14.619,14.2825,14.0371,13.8638,13.7815,13.7815,14.1241,14.2886,14.2961,14.619,14.7761,8.1732,8.7854,9.4314,9.7935,9.8407,9.7716,9.6284,9.5224,9.4751,9.5774,9.599,9.702,10.0573,10.4459,10.8412,11.2269,11.3854,11.6778,12.3195,12.294,12.4438,13.0814,13.1599,13.1599,13.1599,13.1599,13.1599,13.1599,13.1599,13.1599,13.1599,13.1599,13.207,13.3129,13.3175,13.3684,13.4713,13.4713,13.552,13.702,13.862,14.0872,14.3684,14.4706,14.6116,14.7761,14.7761,14.7761,14.7761,14.7761,14.7761,14.7761,14.7761,14.7761,14.7761,14.7761,14.7761,14.7761,14.7761,14.7761,14.7761,14.7761,14.7761,14.7761,14.7761,15.0004,15.2561,15.2561,15.5029,15.7631,15.7631,15.7631,15.7631,15.7631,15.636,15.464,15.2935,15.1365,14.9794,14.806,14.7761,14.7761,14.7761,14.7761,14.7761,14.7761,14.7761,14.7761,14.7761,14.7761,14.7761,14.7761,14.7761,14.7761,14.7761,14.7761,14.8284,14.9645,14.9705,14.8957,14.7237,14.4382,14.1928,13.9848,13.8488,13.7965,13.8339,14.1391,14.3036,14.341,14.634,14.7761,8.8108,9.2171,9.5978,10.194,10.0887,9.8566,9.9434,10.1146,10.2007,10.0041,9.9633,10.0659,10.4103,10.5196,10.7151,11.2015,11.2869,11.5178,12.139,12.2202,12.4438,13.0814,13.1599,13.1599,13.1599,13.1599,13.1599,13.1599,13.1599,13.1599,13.1599,13.1599,13.207,13.3129,13.3175,13.3684,13.4713,13.4713,13.552,13.704,13.8308,14.0559,14.3684,14.4706,14.6116,14.7761,14.7761,14.7761,14.7761,14.7761,14.7761,14.7761,14.7761,14.7761,14.7761,14.7761,14.7761,14.7761,14.7761,14.7761,14.7761,14.7761,14.7761,14.7761,14.7761,15.0004,15.2561,15.2561,15.5029,15.7631,15.7631,15.7631,15.7631,15.7631,15.636,15.464,15.2935,15.1365,14.9794,14.806,14.7761,14.7761,14.7761,14.7761,14.7761,14.7761,14.7761,14.7761,14.7761,14.7761,14.7761,14.7761,14.7761,14.7761,14.7761,14.7761,14.7761,14.791,14.7985,14.7237,14.5503,14.3784,14.1316,13.8114,13.789,13.8563,14.0147,14.1989,14.3634,14.5055,14.6863,14.7761,7.8474,8.4396,9.037,9.2755,9.7882,10.2169,10.146,10.3908,10.5985,10.4382,10.4051,10.4308,10.5133,10.7837,11.0249,11.1273,11.3011,11.6047,12.1344,12.2059,12.4438,13.0814,13.1599,13.1599,13.1599,13.1599,13.1599,13.1599,13.1599,13.1599,13.1599,13.1599,13.2371,13.4019,13.4082,13.4908,13.657,13.6586,13.6883,13.7536,13.9009,14.0948,14.3184,14.3643,14.5204,14.7761,14.7761,14.7761,14.7761,14.7761,14.7761,14.7761,14.7761,14.7761,14.7761,14.7761,14.7761,14.7761,14.7761,14.7761,14.7761,14.7761,14.7761,14.7761,14.7761,15.0004,15.2561,15.2561,15.5029,15.7631,15.7631,15.7631,15.7631,15.7631,15.7108,15.5911,15.3159,15.2112,15.0916,14.8209,14.7761,14.7761,14.7761,14.7761,14.7761,14.7761,14.7761,14.7761,14.7761,14.7761,14.7761,14.7761,14.7761,14.7761,14.7761,14.7761,14.7761,14.7761,14.7761,14.6116,14.2451,14.1704,14.0208,13.789,13.8787,13.9685,14.0371,14.2975,14.4606,14.5204,14.6938,14.7761,7.2817,7.904,8.5914,8.7181,9.4823,10.2169,10.2716,10.5332,10.7764,10.8443,10.7804,10.6959,10.6349,10.8805,11.0851,11.0645,11.2395,11.5504,12.0656,12.1774,12.4271,13.0217,13.1314,13.1599,13.1599,13.1599,13.1781,13.202,13.2045,13.222,13.2541,13.2494,13.3307,13.5137,13.5194,13.6053,13.7802,13.7815,13.7815,13.7815,13.9012,14.0732,14.2886,14.3335,14.5069,14.7761,14.7761,14.7761,14.7761,14.7761,14.7761,14.7761,14.7761,14.7761,14.7761,14.7761,14.7761,14.7761,14.7761,14.7761,14.7761,14.7761,14.7761,14.7835,14.8359,15.0392,15.2711,15.3234,15.5388,15.7631,15.7631,15.7631,15.7631,15.7631,15.7631,15.6734,15.3309,15.2561,15.1589,14.8359,14.7761,14.7761,14.7761,14.7761,14.7761,14.7761,14.7761,14.7761,14.7761,14.7761,14.7761,14.7761,14.7761,14.7761,14.7761,14.7237,14.7013,14.7013,14.6564,14.447,14.0521,14.0371,13.9535,13.789,13.9012,14.0059,14.1105,14.341,14.498,14.5966,14.7162,14.7761,7.5778,7.952,8.4533,8.9209,9.2766,9.684,10.3307,10.5384,10.7276,11.1914,11.0382,10.8228,10.8246,10.7157,10.7187,11.01,11.0612,11.2813,11.892,12.1084,12.3843,12.8719,13.0671,13.1599,13.1599,13.1599,13.202,13.306,13.3152,13.3596,13.4634,13.4693,13.5175,13.622,13.6253,13.6742,13.7802,13.7815,13.7815,13.7815,13.7815,13.961,14.2961,14.4457,14.6116,14.7761,14.7761,14.7761,14.7761,14.7761,14.7761,14.7761,14.7761,14.7761,14.7761,14.7761,14.7761,14.7761,14.7761,14.7761,14.7761,14.7761,14.7761,14.806,14.9719,15.1365,15.2935,15.464,15.636,15.7631,15.7631,15.7631,15.7631,15.7631,15.7631,15.6734,15.3309,15.2561,15.1589,14.8359,14.7761,14.7761,14.7761,14.7761,14.7761,14.7761,14.7761,14.7761,14.7761,14.7761,14.7761,14.7761,14.7761,14.7761,14.7761,14.619,14.5204,14.5204,14.3784,14.2152,14.0446,14.0371,13.9535,13.789,13.7815,13.946,14.2886,14.2886,14.4531,14.7686,14.7761,14.7761,6.9857,7.5291,8.1806,8.514,9.0037,9.5325,10.057,10.3898,10.6967,11.0667,10.9439,10.7462,10.687,10.724,10.7869,10.8819,10.9942,11.2042,11.6136,11.8867,12.2514,12.805,13.009,13.1787,13.3539,13.3677,13.3901,13.4187,13.4207,13.4372,13.4693,13.4713,13.5194,13.6237,13.627,13.6758,13.7802,13.7815,13.7815,13.7815,13.9012,14.0732,14.2961,14.4457,14.6116,14.7761,14.7761,14.7761,14.7761,14.7761,14.7761,14.7761,14.7761,14.7761,14.7761,14.7761,14.7761,14.7761,14.7761,14.7761,14.7761,14.7761,14.7761,14.806,14.9794,15.1365,15.2935,15.464,15.636,15.7631,15.7631,15.7631,15.7631,15.7631,15.7631,15.6734,15.3309,15.2561,15.1589,14.8359,14.7761,14.7761,14.7761,14.7761,14.7761,14.7761,14.7761,14.7761,14.7761,14.7761,14.7761,14.7761,14.7761,14.7237,14.6116,14.5517,14.4756,14.3634,14.0942,13.9161,13.8638,13.8638,13.8339,13.7815,13.8937,14.0657,14.2886,14.3933,14.5578,14.7761,14.7761,14.7761,6.9112,7.4181,7.9786,8.312,8.6147,8.9783,9.5767,9.8522,10.0852,10.4605,10.4748,10.4218,10.4466,10.5665,10.6836,10.7389,10.8303,11.0234,11.3848,11.6498,12.0395,12.6837,12.8968,13.1198,13.4394,13.4713,13.4889,13.5287,13.5305,13.547,13.5825,13.5916,13.6187,13.6804,13.6819,13.7132,13.7815,13.7815,13.7815,13.7815,14.0208,14.1853,14.2961,14.5129,14.6714,14.7761,14.7761,14.7761,14.7761,14.7761,14.7761,14.7761,14.7761,14.7761,14.7761,14.7761,14.7761,14.7761,14.7761,14.7761,14.7835,14.8434,14.8658,14.9107,15.1425,15.2771,15.3892,15.5612,15.6809,15.7631,15.7631,15.7631,15.7631,15.7631,15.7183,15.5911,15.3159,15.2112,15.0916,14.8284,14.7761,14.7761,14.7761,14.7761,14.7761,14.7761,14.7761,14.7761,14.7761,14.7761,14.7761,14.7761,14.7761,14.7088,14.5354,14.4097,14.2975,14.2003,13.9311,13.7815,13.7815,13.7815,13.7815,13.7815,13.8862,14.0507,14.2886,14.3858,14.5503,14.7761,14.7761,14.7761,7.2071,7.5091,7.8151,8.257,8.1877,8.2156,8.9927,9.0628,9.0848,9.5121,9.7231,9.8973,10.0826,10.2494,10.4021,10.5721,10.6086,10.7687,11.2112,11.4295,11.8121,12.5252,12.7679,13.0372,13.441,13.4874,13.5342,13.6303,13.6368,13.6773,13.7775,13.7815,13.7815,13.7815,13.7815,13.7815,13.7815,13.7815,13.789,13.804,14.1316,14.2961,14.3111,14.6265,14.7761,14.7761,14.7761,14.7761,14.7761,14.7761,14.7761,14.7761,14.7761,14.7761,14.7761,14.7761,14.7761,14.7761,14.7761,14.7761,14.7985,14.9705,15.0243,15.0841,15.4117,15.5149,15.5448,15.7183,15.7631,15.7631,15.7631,15.7631,15.7631,15.7631,15.636,15.464,15.2935,15.1365,14.9794,14.806,14.7761,14.7761,14.7761,14.7761,14.7761,14.7761,14.7761,14.7761,14.7761,14.7761,14.7761,14.7761,14.7761,14.7088,14.5354,14.2302,14.0446,14.0147,13.8713,13.7815,13.7815,13.7815,13.7815,13.7815,13.7815,13.946,14.2662,14.2812,14.4457,14.7536,14.7686,14.7761,6.8344,7.1505,7.5553,7.9835,8.3729,8.7,8.8987,8.9875,9.0681,9.1747,9.2353,9.3162,9.4735,9.7144,10.0144,10.3921,10.5388,10.7294,11.056,11.4469,11.9063,12.4586,12.8936,13.2489,13.5063,13.6388,13.7221,13.7407,13.7421,13.7565,13.7802,13.7815,13.7815,13.7815,13.7815,13.7815,13.7815,13.7815,13.8488,13.9759,14.1853,14.3485,14.4681,14.6789,14.7761,14.7761,14.7761,14.7761,14.7761,14.7761,14.7761,14.7761,14.7761,14.7761,14.7761,14.7761,14.7761,14.7761,14.7761,14.7761,14.7985,14.9705,15.0243,15.0841,15.4117,15.5149,15.5448,15.7183,15.7631,15.7631,15.7631,15.7631,15.7631,15.7631,15.636,15.464,15.2935,15.1365,14.9794,14.806,14.7761,14.7761,14.7761,14.7761,14.7761,14.7761,14.7761,14.7761,14.7761,14.7761,14.7761,14.7761,14.7761,14.7088,14.5354,14.3424,14.118,13.8563,13.804,13.7815,13.7815,13.7815,13.7815,13.7815,13.7815,13.8862,14.0956,14.2227,14.3858,14.5802,14.7162,14.7761,6.9572,7.2334,7.5044,7.6604,7.9903,8.3061,8.4438,8.5256,8.6149,8.7454,8.7752,8.8898,9.2378,9.3827,9.6073,10.1136,10.3151,10.509,10.8013,11.1284,11.6124,12.3579,12.651,13.0347,13.6329,13.6777,13.7067,13.774,13.7815,13.7815,13.7815,13.7815,13.7815,13.7815,13.7815,13.7815,13.7815,13.7815,13.8638,14.0371,14.2078,14.3709,14.5279,14.6938,14.7761,14.7761,14.7761,14.7761,14.7761,14.7761,14.7761,14.7761,14.7761,14.7761,14.7761,14.7761,14.7761,14.7761,14.7761,14.7761,14.8135,15.0542,15.1365,15.1963,15.5238,15.6285,15.651,15.7407,15.7631,15.7631,15.7631,15.7631,15.7482,15.6659,15.5164,15.3519,15.1888,15.0243,14.8808,14.791,14.7761,14.7761,14.7761,14.7761,14.7761,14.7761,14.7761,14.7761,14.7761,14.7761,14.7761,14.7761,14.7013,14.619,14.5279,14.305,14.0956,13.9086,13.8264,13.7815,13.7815,13.7815,13.7815,13.7815,13.7815,13.8638,14.0371,14.2078,14.3634,14.5204,14.6938,14.7761,7.2071,7.4373,7.558,7.457,7.5525,7.7472,8.0089,8.0684,8.141,8.3827,8.4342,8.5919,9.0849,9.1338,9.2654,9.7686,10.0118,10.2501,10.597,10.7969,11.2437,12.1623,12.3193,12.7077,13.5915,13.5791,13.5796,13.7367,13.7441,13.7591,13.7815,13.7815,13.7815,13.7815,13.7815,13.7815,13.7815,13.804,13.9086,14.0732,14.2451,14.4083,14.5667,14.7088,14.7761,14.7761,14.7761,14.7761,14.7761,14.7761,14.7761,14.7761,14.7761,14.7761,14.7761,14.7761,14.7761,14.7761,14.7761,14.7761,14.8209,15.129,15.2412,15.3159,15.6285,15.7407,15.7631,15.7631,15.7631,15.7631,15.7631,15.7631,15.7257,15.5538,15.3818,15.2187,15.0617,14.8957,14.7761,14.7761,14.7761,14.7761,14.7761,14.7761,14.7761,14.7761,14.7761,14.7761,14.7761,14.7761,14.7761,14.7761,14.619,14.5129,14.4905,14.2078,14.0371,14.0371,13.8713,13.7815,13.7815,13.7815,13.7815,13.7815,13.7815,13.8488,13.9997,14.1928,14.3559,14.4905,14.6863,14.7761,7.0076,7.2772,7.6041,7.7027,7.9239,8.1535,8.3191,8.3527,8.3662,8.4132,8.4276,8.467,8.5525,8.8577,9.1667,9.3742,9.7358,10.1726,10.7192,11.0536,11.3692,11.717,12.3061,12.7263,12.847,13.1449,13.4063,13.5721,13.5871,13.6394,13.774,13.7815,13.7815,13.7815,13.7815,13.7815,13.7815,13.9249,14.0806,14.2513,14.4083,14.5742,14.7387,14.7611,14.7761,14.7761,14.7761,14.7761,14.7761,14.7761,14.7761,14.7761,14.7761,14.7761,14.7761,14.7761,14.7761,14.7761,14.7761,14.7761,14.806,15.0018,15.1514,15.2935,15.4939,15.651,15.7631,15.7631,15.7631,15.7631,15.7631,15.7631,15.7257,15.5538,15.3818,15.2187,15.0617,14.8957,14.7761,14.7761,14.7761,14.7761,14.7761,14.7761,14.7761,14.7761,14.7761,14.7761,14.7761,14.7761,14.7761,14.7761,14.619,14.4681,14.3335,14.1479,14.0371,14.0371,13.8713,13.7815,13.7815,13.7815,13.7815,13.7815,13.7815,13.7965,13.8189,14.1316,14.2961,14.3335,14.634,14.7761,7.1786,7.4218,7.7238,7.8577,8.0524,8.2833,8.5672,8.6901,8.7509,8.762,8.7683,8.7782,8.7925,8.8971,9.0812,9.3808,9.5911,9.8935,10.3997,10.8053,11.1822,11.5455,12.049,12.4918,12.8135,13.0375,13.2282,13.3989,13.4974,13.5796,13.6544,13.7367,13.7815,13.7815,13.7815,13.7441,13.6544,13.7367,13.9012,14.1554,14.3185,14.4756,14.6415,14.7312,14.7761,14.7761,14.7761,14.7761,14.7761,14.7761,14.7761,14.7761,14.7761,14.7761,14.7761,14.7761,14.7761,14.7761,14.7761,14.7761,14.7985,14.9705,15.0766,15.1813,15.4341,15.5687,15.6435,15.7407,15.7631,15.7631,15.7631,15.6958,15.5837,15.4117,15.2486,15.0916,14.9256,14.8284,14.7761,14.7761,14.7761,14.7761,14.7761,14.7761,14.7761,14.7761,14.7761,14.7761,14.7761,14.6938,14.634,14.634,14.4097,14.2676,14.2886,14.0507,13.9012,13.9012,13.8264,13.7815,13.7815,13.7815,13.7815,13.7815,13.7815,13.7815,13.7815,14.1241,14.2886,14.2961,14.619,14.7761,7.6847,0.0,8.0948,8.2903,8.4256,8.6126,0.0,9.1338,9.1942,9.204,9.1866,9.15,9.0994,9.0055,9.0379,9.3699,9.4824,9.6665,10.061,10.5001,10.9544,11.4283,11.8433,12.2758,12.771,12.9189,13.0562,13.2269,13.3553,13.445,13.4899,13.6021,13.6694,13.6694,13.6694,13.632,13.5497,13.5871,13.7516,14.0371,14.2078,14.3485,14.4681,14.6041,14.6564,14.6639,14.7013,14.6938,14.6639,14.7387,14.7462,14.7162,14.7611,14.7761,14.7761,14.7761,14.7761,14.7761,14.7761,14.7761,14.791,14.9256,14.9944,15.0766,15.3668,15.479,15.5448,15.7183,15.7631,15.7557,15.7183,15.6061,15.4565,15.2561,15.114,14.9794,14.8135,14.7761,14.7761,14.7761,14.7761,14.7761,14.7761,14.7761,14.7761,14.7761,14.7761,14.7611,14.7162,14.6041,14.5055,14.4681,14.2078,14.0881,14.2139,13.9535,13.7815,13.7815,13.7815,13.7815,13.7815,13.7815,13.7815,13.7815,13.7815,13.7815,13.7815,14.1241,14.2886,14.2961,14.619,14.7761,0.0,8.7891,8.9031,9.315,9.4055,9.4703,9.7686,9.73,0.0,9.6375,9.5541,9.3941,9.1275,9.0723,9.0791,9.1201,9.3508,9.627,9.9264,10.3501,10.8001,11.2542,11.8698,12.2685,12.3125,12.6232,12.8929,13.05,13.0724,13.1459,13.3017,13.3241,13.3316,13.3316,13.3316,13.3989,13.5497,13.6918,13.8563,14.0371,14.2078,14.2961,14.3036,14.3185,14.3185,14.3335,14.4756,14.4531,14.3485,14.6489,14.6789,14.5503,14.7088,14.7761,14.7761,14.7761,14.7761,14.7761,14.7761,14.7761,14.7761,14.7835,14.8957,15.0542,15.2262,15.3892,15.5448,15.7183,15.7631,15.7257,15.5672,15.5224,15.4341,15.1215,15.0318,14.9794,14.8135,14.7761,14.7761,14.7761,14.7761,14.7761,14.7761,14.7761,14.7761,14.7761,14.7761,14.7162,14.5578,14.5279,14.4606,14.3185,14.1405,14.0371,14.0521,13.8862,13.7815,13.7815,13.7815,13.7815,13.7815,13.7815,13.7815,13.7815,13.7815,13.7815,13.7815,14.1241,14.2886,14.2961,14.619,14.7761,8.9563,9.2105,9.4546,9.6074,9.7817,9.9317,10.018,10.0674,10.0392,9.8529,9.7759,9.6907,9.5082,9.3309,9.2705,9.4562,9.4319,9.5911,10.1499,10.3767,10.6447,11.0975,11.7262,12.1602,12.2538,12.5935,12.8331,12.8929,12.9901,13.0724,13.131,13.2419,13.2045,13.0038,12.9964,13.1235,13.3914,13.4512,13.6095,13.8787,14.0507,14.133,14.133,14.2363,14.2886,14.2886,14.3485,14.341,0.0,14.4157,14.4905,14.5279,14.5877,14.6789,14.7761,14.7761,14.7761,14.791,14.8957,14.9345,14.9481,15.0467,15.1215,15.1813,15.2412,15.3743,15.5448,15.7183,15.6884,15.5911,15.5298,15.3593,15.1799,15.0542,14.9481,14.8508,14.7835,14.7761,14.7761,14.7761,14.7761,14.7761,14.7761,14.6863,14.6176,14.6176,14.5293,14.4457,14.3858,14.2825,14.1928,14.133,13.9759,13.8787,13.8787,13.8189,13.7815,13.7815,13.7815,13.7815,13.7815,13.7815,13.7815,13.7815,13.7815,13.8339,13.9399,14.0657,14.2377,14.4382,14.6639,14.7761,9.3969,9.6852,9.9684,10.0533,10.2243,10.3698,10.3396,10.3746,10.3446,10.0907,10.038,9.9838,9.8111,9.5543,9.4359,9.6812,9.5291,9.5977,10.2386,10.4485,10.6614,11.014,11.5787,12.0228,12.2449,12.5935,12.8106,12.8106,12.9079,12.9677,12.9677,13.0786,13.0412,12.8169,12.8555,13.0188,13.2942,13.3465,13.511,13.7815,13.9012,13.9535,13.9623,14.0732,14.1241,14.1316,14.184,14.1778,14.1316,14.2438,14.3185,14.3797,14.4756,14.6265,14.7761,14.8359,14.8808,14.9406,15.0617,15.0991,15.114,15.2262,15.2561,15.2561,15.2561,15.4117,15.6136,15.7332,15.6435,15.4999,15.4491,15.2322,15.0093,14.9555,14.8583,14.7761,14.7761,14.7761,14.7761,14.7761,14.7761,14.7536,14.7013,14.5966,14.5055,14.4531,14.3559,14.2662,14.2152,14.1031,14.0147,13.9623,13.8488,13.7815,13.7815,13.7815,13.7815,13.7815,13.7815,13.7815,13.7815,13.7815,13.7815,13.7815,13.7815,13.8638,14.0371,14.0371,14.2003,14.5204,14.6415,14.7237,10.0479,10.2816,10.4701,10.7614,10.8282,10.8301,10.8145,10.6907,10.5316,10.3725,10.344,10.2509,9.9712,9.693,9.5592,9.7004,9.6088,9.6796,10.1071,10.5472,10.8812,11.0436,11.4644,11.8822,12.2322,12.5935,12.8094,12.8106,12.8106,12.8106,12.8106,12.8082,12.8082,12.8082,12.9577,13.1222,13.2929,13.4662,13.6232,13.7815,13.7815,13.7815,13.7815,13.7815,13.7815,13.789,13.9623,13.9399,13.804,14.1466,14.1853,14.067,14.3947,14.619,14.791,14.9645,15.1215,15.2561,15.2636,15.2636,15.2636,15.2636,15.2636,15.2636,15.2636,15.4939,15.7631,15.7631,15.6435,15.4715,15.301,15.1439,14.9794,14.8135,14.7761,14.7761,14.7761,14.7761,14.7761,14.7761,14.7686,14.7162,14.5503,14.5204,14.4606,14.3111,14.2812,14.2227,14.0521,14.0296,13.9698,13.7965,13.7815,13.7815,13.7815,13.7815,13.7815,13.7815,13.7815,13.7815,13.7815,13.7815,13.7815,13.7815,13.7815,13.8638,14.0371,14.0371,14.2003,14.5204,14.5204,14.6116,10.24,10.5136,10.7464,10.9377,11.0672,11.0812,10.8604,10.7763,10.6621,10.3939,10.344,10.3144,10.2283,9.9087,9.7395,9.9783,9.7406,9.7125,10.2517,10.5304,10.8098,11.1823,11.5916,11.9595,12.2395,12.5273,12.7273,12.8069,12.8106,12.8106,12.8106,12.6827,12.605,12.605,12.7567,12.949,13.182,13.3425,13.542,13.7815,13.7815,13.7815,13.7815,13.7815,13.7815,13.7815,13.8339,13.8264,13.789,13.8937,13.9685,14.0596,14.2737,14.4531,14.6265,14.9181,15.0542,15.129,15.3593,15.4416,15.4565,15.5762,15.6136,15.6136,15.6136,15.6809,15.7407,15.6211,15.5523,15.4491,15.1649,14.9705,14.8359,14.7835,14.7761,14.7761,14.7761,14.7761,14.7761,14.7761,14.6789,14.5802,14.5279,14.3274,14.1629,14.118,14.0059,13.9161,13.8638,13.8563,13.8413,13.789,13.7815,13.7815,13.7815,13.7815,13.7815,13.7815,13.7815,13.7815,13.7815,13.7815,13.7815,13.7815,13.7815,13.8638,14.0371,14.0371,14.2003,14.5204,14.5204,14.6116,10.4044,10.6509,10.8646,11.0206,11.1673,11.188,10.8833,10.8048,10.7192,10.4082,10.344,10.3583,10.4225,10.1382,10.003,10.3609,10.1116,10.0384,10.5057,10.7541,10.9886,11.2611,11.7036,12.0591,12.245,12.5049,12.6959,12.8057,12.7704,12.7348,12.696,12.585,12.5143,12.5143,12.7306,12.9398,13.1392,13.3585,13.5791,13.7815,13.7815,13.7815,13.7815,13.7815,13.7815,13.7815,13.7815,13.7815,13.7815,13.7815,13.8413,13.9535,14.1914,14.4232,14.6639,14.9944,15.2038,15.3519,15.5463,15.6136,15.6285,15.7332,15.7183,15.6809,15.7407,15.7183,15.6435,15.5373,15.464,15.3519,15.0901,14.9481,14.8583,14.791,14.7761,14.7761,14.7761,14.7761,14.7761,14.7761,14.634,14.498,14.4382,14.2078,14.0147,13.946,13.8488,13.7815,13.7815,13.7815,13.7815,13.7815,13.7815,13.7815,13.7815,13.7815,13.7815,13.7815,13.7815,13.7815,13.7815,13.7815,13.7815,13.7815,13.7815,13.8638,14.0371,14.0371,14.1704,14.4307,14.4905,14.5742,10.5501,10.7277,10.8673,11.0358,11.1767,11.188,10.8833,10.8191,10.7385,10.4082,10.3511,10.4011,10.5316,10.3393,10.3075,10.7402,10.5894,10.5095,10.7712,11.089,11.2944,11.2956,11.7863,12.1656,12.267,12.4991,12.6827,12.7792,12.693,12.5992,12.507,12.4921,12.4884,12.4884,12.7939,13.0117,13.1151,13.4491,13.6649,13.7647,13.7789,13.7815,13.7815,13.7815,13.7815,13.7815,13.7815,13.7815,13.7815,13.7815,13.7815,13.8114,14.1541,14.4681,14.7686,15.114,15.4356,15.6958,15.7108,15.7183,15.7183,15.7332,15.6285,15.5149,15.6734,15.6136,15.4865,15.47,15.3593,15.2038,15.0467,15.0018,14.9645,14.8135,14.7761,14.7761,14.7761,14.7761,14.7686,14.7536,14.6116,14.4457,14.2886,14.1255,13.9623,13.804,13.7815,13.7815,13.7815,13.7815,13.7815,13.7815,13.7815,13.7815,13.7815,13.7815,13.7815,13.7815,13.7815,13.7815,13.7815,13.7815,13.7815,13.7815,13.7815,13.8563,14.0147,14.0147,14.0956,14.2662,14.4083,14.483,10.7007,10.8069,10.8916,11.1649,11.2485,11.188,10.8833,10.9026,10.8648,10.4296,10.4367,10.4959,10.4082,10.3468,10.3871,10.6091,10.6026,10.5886,10.6522,11.0231,11.2959,11.3068,11.7923,12.1858,12.3277,12.4646,12.5536,12.5816,12.557,12.5033,12.4013,12.3167,12.2743,12.2743,12.5879,12.8041,12.9113,13.3061,13.556,13.6618,13.7393,13.7815,13.7815,13.7815,13.7815,13.7815,13.7815,13.7815,13.7815,13.7815,13.7815,13.8114,14.1541,14.3335,14.4457,14.9032,15.1215,15.2023,15.3234,15.3683,15.3907,15.5238,15.4491,15.3234,15.3533,15.3459,15.286,15.1649,15.1051,15.0392,14.8733,14.8284,14.8209,14.7835,14.7761,14.7761,14.7761,14.7761,14.7312,14.6041,14.4457,14.2812,14.118,13.946,13.8264,13.789,13.7815,13.7815,13.7815,13.7815,13.7815,13.7815,13.7815,13.7815,13.7815,13.7815,13.7815,13.7815,13.7815,13.7815,13.7815,13.7815,13.7815,13.7815,13.7815,13.7965,13.8339,13.8339,13.9236,14.0881,14.1269,14.2078,10.7477,10.8291,10.8997,11.1978,11.2736,11.2094,10.9739,10.9811,10.9504,10.6315,10.6315,10.66,10.5815,10.634,10.7121,10.7924,10.8771,10.9607,11.0298,11.3141,11.5138,11.5147,11.9443,12.2461,12.2539,12.4099,12.5143,12.5143,12.4694,12.3992,12.2948,12.2348,12.2416,12.3296,12.5626,12.7793,12.9598,13.2491,13.4772,13.627,13.6789,13.7336,13.7815,13.7815,13.7815,13.7815,13.7815,13.7815,13.7815,13.7815,13.7815,13.804,14.0657,14.2139,14.326,14.6639,14.8359,14.9271,15.0916,15.1439,15.1514,15.1574,15.0976,15.0542,15.2112,15.2038,15.129,15.0467,14.9645,14.8808,14.7985,14.7761,14.7761,14.7761,14.7761,14.7761,14.7761,14.7761,14.7237,14.5503,14.3933,14.2288,14.067,13.8937,13.7815,13.7815,13.7815,13.7815,13.7815,13.7815,13.7815,13.7815,13.7815,13.7815,13.7815,13.7815,13.7815,13.7815,13.7815,13.7815,13.7815,13.7815,13.7815,13.7815,13.7815,13.7815,13.7815,13.7815,13.8264,13.9161,13.9997,14.0806,10.7025,10.8097,10.8943,11.172,11.2579,11.2308,11.0716,11.0645,11.031,10.8477,10.8048,10.8048,10.8048,10.9097,11.0146,11.0716,11.2094,11.3573,11.4933,11.6452,11.7317,11.7053,12.034,12.2153,12.1127,12.2975,12.4369,12.4618,12.3847,12.3088,12.256,12.2487,12.3296,12.4937,12.6268,12.8101,13.0539,13.2264,13.4019,13.572,13.612,13.6712,13.7565,13.7762,13.7815,13.7815,13.7815,13.7748,13.7565,13.7762,13.7748,13.7714,13.9569,14.118,14.2587,14.4232,14.5653,14.7088,14.8508,14.8957,14.8793,14.7452,14.6871,14.7317,15.0529,15.056,14.9544,14.9751,14.8808,14.7761,14.7761,14.7761,14.7761,14.7761,14.7585,14.7408,14.7408,14.7303,14.6646,14.484,14.3625,14.2213,14.0222,13.8713,13.7815,13.7815,13.7815,13.7815,13.7815,13.7815,13.7815,13.7815,13.7815,13.7815,13.7815,13.7815,13.7815,13.7815,13.7815,13.7815,13.7815,13.7815,13.7815,13.7815,13.7815,13.7815,13.7815,13.7815,13.7815,13.789,13.9249,13.9922,10.5256,10.7306,10.8701,11.0433,11.1791,11.2308,11.0716,11.1452,11.1595,10.8691,10.8048,10.8048,10.8048,10.8263,10.9262,11.1951,11.3713,11.484,11.5209,11.6528,11.6956,11.571,11.7139,11.8697,11.9867,12.0246,12.1011,12.2418,12.2348,12.2895,12.4177,12.4224,12.5009,12.6579,12.6839,12.7725,12.9498,13.1916,13.3262,13.3596,13.5416,13.6335,13.6464,13.7379,13.7815,13.7815,13.7815,13.7308,13.657,13.7481,13.7293,13.6735,13.9301,14.0521,14.0881,14.2587,14.3335,14.3559,14.3784,14.3858,14.391,14.4088,14.3532,14.3226,14.6003,14.6693,14.6788,14.7796,14.791,14.7761,14.7761,14.7761,14.7761,14.7761,14.6938,14.6248,14.6248,14.551,14.4223,14.211,14.2349,14.184,13.8713,13.7965,13.7815,13.7815,13.7815,13.7815,13.7815,13.7815,13.7815,13.7815,13.7815,13.7815,13.7815,13.7815,13.7815,13.7815,13.7815,13.7815,13.7815,13.7815,13.7815,13.7815,13.7815,13.7815,13.7815,13.7815,13.7815,13.7815,13.804,13.8114,10.2762,10.5993,10.8646,11.0206,11.1673,11.2594,11.188,11.2237,11.2308,11.0974,11.0689,11.0189,10.8405,10.9547,11.0546,11.0189,11.2165,11.3798,11.3971,11.4513,11.4644,11.3911,11.5245,11.6409,11.6994,11.871,12.0017,12.0692,12.157,12.2772,12.4534,12.4605,12.5294,12.6839,12.7766,12.8576,12.929,13.1257,13.2542,13.3198,13.4082,13.485,13.5416,13.5825,13.6442,13.6969,13.6969,13.7029,13.7207,13.762,13.7551,13.7221,13.8441,13.8937,13.9012,13.9759,14.0059,14.0208,14.1105,14.0467,13.9364,14.0539,14.08,14.1138,14.3863,14.5258,14.6248,14.7393,14.7761,14.7585,14.6923,14.6721,14.6591,14.6003,14.5472,14.5146,14.5146,14.4767,14.39,14.1935,14.0559,13.9087,13.7265,13.6969,13.7117,13.7762,13.7815,13.7365,13.622,13.6602,13.6712,13.6137,13.6602,13.6969,13.6969,13.7509,13.7815,13.7815,13.7815,13.7815,13.7815,13.7815,13.7815,13.7815,13.7815,13.7815,13.7815,13.7815,13.7815,13.7815,13.7815,13.7815,9.9307,10.3317,10.7101,10.8984,11.1105,11.2736,11.2736,11.2736,11.2736,11.2736,11.2451,11.1523,10.9618,11.081,11.1666,11.0096,11.2165,11.4127,11.4633,11.4365,11.4025,11.3964,11.4329,11.4643,11.4833,11.7452,11.9312,11.9661,12.1181,12.2986,12.508,12.5223,12.6079,12.8077,12.9219,12.9861,12.9861,13.1028,13.197,13.2781,13.3013,13.3574,13.4311,13.4594,13.5137,13.5842,13.5842,13.6303,13.7029,13.7308,13.7393,13.7407,13.7748,13.7815,13.7815,13.7815,13.7815,13.7965,13.9249,13.8026,13.6138,13.7839,13.8532,13.93,14.2312,14.4309,14.5858,14.7333,14.7761,14.7438,14.6299,14.5982,14.5732,14.4685,14.4201,14.3984,14.3984,14.3447,14.2678,14.1673,13.8959,13.6746,13.6515,13.6155,13.6154,13.6924,13.7265,13.6742,13.4947,13.5397,13.5578,13.4811,13.5416,13.5842,13.5842,13.6789,13.7393,13.7393,13.7647,13.7735,13.7407,13.7647,13.7735,13.7393,13.7647,13.7815,13.7815,13.7815,13.7815,13.7815,13.7815,13.7815,9.4452,9.8838,10.284,10.5668,10.9584,11.2736,11.2736,11.2736,11.2736,11.2736,11.1595,11.093,11.2237,11.1452,11.143,11.4283,11.6067,11.7707,11.9158,11.8065,11.7156,11.7213,11.4508,11.3258,11.4739,11.649,11.8111,11.9428,12.1101,12.3486,12.6625,12.6839,12.822,13.1242,13.1457,13.1457,13.1457,13.1528,13.1625,13.1729,13.2686,13.3198,13.3239,13.4249,13.4753,13.4792,13.4792,13.4831,13.4966,13.5911,13.6335,13.6416,13.7393,13.7815,13.7815,13.7815,13.7815,13.7815,13.789,13.6597,13.5012,13.6606,13.6834,13.7096,14.0856,14.3198,14.4948,14.7106,14.7761,14.7438,14.6299,14.5982,14.5732,14.4685,14.3581,14.2783,14.2783,14.0743,13.9187,14.0223,13.7782,13.59,13.702,13.5858,13.4811,13.487,13.5702,13.5911,13.487,13.4772,13.4772,13.4713,13.4772,13.4792,13.4792,13.5738,13.6335,13.6335,13.7279,13.735,13.6368,13.7293,13.7336,13.6352,13.7322,13.7815,13.7815,13.7815,13.7815,13.7815,13.7815,13.7815,9.1536,9.4996,9.8795,10.3586,10.6656,10.9265,11.2102,11.2736,11.2736,11.2736,11.2308,11.1737,11.1309,11.1595,11.1951,11.2072,11.4212,11.5787,11.5442,11.491,11.4542,11.4434,11.3306,11.3125,11.4616,11.7093,11.8904,11.949,12.1058,12.2951,12.5316,12.6364,12.7909,13.0003,13.11,13.1599,13.1599,13.1599,13.1599,13.1599,13.1944,13.2171,13.2196,13.2518,13.3083,13.3728,13.3728,13.4082,13.4792,13.5807,13.5842,13.5434,13.7192,13.7379,13.6924,13.7565,13.7815,13.7815,13.7815,13.649,13.4786,13.5373,13.5196,13.5369,13.8433,14.1002,14.335,14.5899,14.7153,14.7438,14.6299,14.5982,14.5511,14.3689,14.3025,14.2439,14.1685,14.078,13.9631,13.8048,13.6763,13.548,13.3912,13.3674,13.3913,13.4614,13.4473,13.3871,13.2803,13.3262,13.3441,13.2805,13.3284,13.3728,13.3728,13.5305,13.627,13.627,13.7265,13.7633,13.7293,13.7606,13.762,13.7279,13.7606,13.7815,13.7815,13.7815,13.7815,13.7815,13.7815,13.7815,8.7684,9.0899,9.4995,9.9795,10.3152,10.6377,11.0303,11.1595,11.2094,11.2594,11.2736,11.2451,11.1381,11.2023,11.2379,11.1381,11.3356,11.4933,11.4474,11.4478,11.4404,11.4312,11.4239,11.4319,11.4678,11.8065,12.0415,12.1065,12.215,12.3279,12.4556,12.558,12.7149,12.9219,13.0315,13.11,13.1599,13.1599,13.1599,13.1599,13.1599,13.1599,13.1599,13.1599,13.1944,13.2614,13.2614,13.3243,13.4228,13.4893,13.5043,13.485,13.622,13.6586,13.6335,13.7044,13.7059,13.6863,13.7207,13.5968,13.4187,13.4187,13.4052,13.4335,13.6534,13.9184,14.1931,14.4456,14.6128,14.6954,14.6139,14.5982,14.5492,14.3739,14.3259,14.2854,14.1585,14.0542,13.915,13.6496,13.5245,13.4026,13.1956,13.2196,13.2827,13.3574,13.3083,13.2541,13.2196,13.2444,13.2371,13.1703,13.2245,13.2614,13.2614,13.4228,13.525,13.525,13.648,13.7103,13.6758,13.7481,13.7633,13.7308,13.762,13.7815,13.7815,13.7815,13.7815,13.7815,13.7815,13.7815,8.2593,8.6323,9.1333,9.4159,9.9182,10.4146,10.7127,10.9076,11.0716,11.2308,11.2665,11.2736,11.2736,11.2736,11.2736,11.2736,11.4069,11.5639,11.7137,11.7346,11.731,11.731,11.7194,11.6552,11.5004,11.9069,12.243,12.3915,12.4311,12.4556,12.4534,12.4605,12.6033,12.9004,12.9219,13.0003,13.1528,13.1599,13.1599,13.1599,13.1599,13.1599,13.1599,13.1599,13.1599,13.1599,13.1599,13.2196,13.3129,13.3152,13.3749,13.4634,13.4693,13.5324,13.6187,13.6187,13.556,13.487,13.5842,13.4835,13.3175,13.3175,13.3451,13.412,13.5282,13.7784,14.0693,14.2942,14.4739,14.5926,14.6017,14.6035,14.5786,14.4746,14.4477,14.4016,14.2319,13.9941,13.7614,13.5901,13.3546,13.1729,13.1729,13.1729,13.1729,13.1729,13.1729,13.2045,13.3083,13.2272,13.1651,13.1599,13.1599,13.1625,13.1651,13.259,13.322,13.322,13.5156,13.5772,13.4772,13.6665,13.7293,13.6286,13.7293,13.7815,13.7815,13.7815,13.7815,13.7815,13.7815,13.7815,8.1763,8.2624,8.4288,8.9342,9.2372,9.5422,10.0596,10.4493,10.7456,10.9048,11.1166,11.2736,11.2736,11.2736,11.2736,11.2736,11.4069,11.5211,11.5639,11.5721,11.5697,11.5697,11.5607,11.5335,11.4896,11.8032,12.0253,12.0791,12.1959,12.2679,12.2795,12.3938,12.5034,12.589,12.8077,12.9504,12.9932,13.1028,13.1599,13.1599,13.1599,13.1599,13.1599,13.1599,13.1599,13.1599,13.1599,13.1735,13.2096,13.2803,13.285,13.259,13.4103,13.4433,13.3998,13.3998,13.4311,13.4753,13.5062,13.4269,13.3175,13.3175,13.2756,13.2508,13.3996,13.5617,13.7721,14.1384,14.333,14.4763,14.6777,14.7214,14.6938,14.5804,14.5584,14.523,14.3994,14.216,14.0336,13.8749,13.6886,13.519,13.4025,13.3828,13.3828,13.3828,13.3828,13.3934,13.4228,13.3352,13.2444,13.1703,13.1599,13.1914,13.2662,13.3706,13.4269,13.4269,13.5524,13.5772,13.4772,13.6019,13.6586,13.627,13.7293,13.7815,13.7815,13.7815,13.7815,13.7815,13.7815,13.7815,7.8187,7.845,7.9371,8.3873,8.5963,8.8614,9.4969,9.89,10.1978,10.4611,10.8191,11.0832,11.0832,11.188,11.2843,11.3249,11.4103,11.5043,11.606,11.625,11.6059,11.5693,11.4969,11.4896,11.5808,11.752,11.8822,11.957,12.1048,12.1708,12.1142,12.2644,12.3867,12.4605,12.639,12.7934,12.9219,13.0172,13.0957,13.1599,13.1599,13.1599,13.1599,13.1599,13.1599,13.1599,13.1599,13.1599,13.1651,13.2223,13.2171,13.1684,13.292,13.3284,13.3175,13.3175,13.3311,13.3463,13.3871,13.3352,13.2541,13.2541,13.2096,13.1813,13.2643,13.3884,13.5547,13.8468,14.1077,14.3421,14.5439,14.6856,14.7571,14.6875,14.6688,14.6169,14.4211,14.2646,14.0887,13.8622,13.7082,13.5793,13.486,13.4713,13.5024,13.5916,13.6036,13.5825,13.5416,13.4473,13.3397,13.2371,13.1863,13.1838,13.2469,13.3463,13.3849,13.3419,13.4757,13.5361,13.4753,13.6137,13.6939,13.6939,13.7073,13.7365,13.7815,13.7365,13.7365,13.7815,13.7815,13.7815,7.2706,7.3715,7.5425,7.7905,7.9768,8.2606,0.0,9.1812,9.4445,9.8494,10.3134,10.6663,10.7289,11.0006,11.2539,11.3767,11.4159,11.5045,11.725,11.7575,11.7275,11.6394,11.5083,11.4914,11.6705,11.6877,11.7464,11.8873,12.0422,12.0711,11.9332,12.0699,12.2331,12.4025,12.4239,12.574,12.8719,12.8933,12.9789,13.1385,13.1385,13.1457,13.1599,13.1599,13.1599,13.1599,13.1599,13.1599,13.1599,13.1599,13.1599,13.1599,13.1599,13.198,13.2461,13.2461,13.1892,13.1183,13.2374,13.2083,13.1385,13.1528,13.1599,13.1599,13.1599,13.2572,13.3958,13.5306,13.8426,14.1692,14.3047,14.5401,14.7462,14.7462,14.7611,14.6938,14.4008,14.2288,14.0441,13.7529,13.598,13.5062,13.5062,13.5062,13.5596,13.725,13.7495,13.7103,13.622,13.5194,13.4166,13.3216,13.2198,13.1599,13.1599,13.2518,13.2828,13.197,13.3706,13.4713,13.4713,13.6602,13.762,13.762,13.6819,13.6849,13.7815,13.6849,13.6939,13.7815,13.7735,13.7545,0.0,0.0,0.0,0.0,0.0,0.0,0.0,8.0424,8.4557,8.8008,9.2933,9.8021,10.2508,10.5995,10.928,11.2638,11.4274,11.5385,11.585,11.594,11.5889,11.5699,11.5406,11.4773,11.3723,11.3773,11.3906,11.4258,11.5701,11.6479,11.6194,11.7543,11.906,12.0643,12.1866,12.3483,12.5508,12.6793,12.8148,12.9718,12.9718,13.0386,13.1599,13.1599,13.1599,13.1599,13.1599,13.1599,13.1599,13.1599,13.1599,13.1599,13.1599,13.0183,12.8096,12.8096,12.8018,12.8031,12.9524,12.9877,12.9932,13.1171,13.1599,13.1599,13.1599,13.1813,13.2553,13.5016,13.6873,13.8699,14.103,14.3673,14.5653,14.5653,14.6714,14.7536,14.6938,14.4582,14.2376,14.1704,13.9201,13.7236,13.7236,13.7236,13.6758,13.5488,13.5324,13.525,13.5043,13.4103,13.3352,13.3198,13.2198,13.1599,13.1599,13.2518,13.3419,13.404,13.4494,13.4713,13.4713,13.595,13.6586,13.6586,13.7221,13.7606,13.7815,13.7606,13.7606,13.7802,13.6969,13.5843,0.0,0.0,0.0,0.0,0.0,0.0,0.0,0.0,0.0,0.0,0.0,9.0367,9.3886,0.0,10.3249,10.8077,11.1251,11.3823,11.5823,11.6527,11.6037,11.3844,11.3593,11.3076,11.1837,11.1728,11.1467,11.0701,11.2751,11.4081,11.4024,11.6158,11.7758,11.854,11.9333,12.0904,12.3279,12.4128,12.57,12.8077,12.8077,12.8505,12.929,12.929,12.929,12.929,12.929,12.929,12.929,13.0075,13.0457,13.036,12.9575,12.8291,12.691,12.691,12.691,12.7053,12.7863,12.8077,12.8362,12.9932,13.0457,13.06,13.1385,13.1599,13.1898,13.3253,13.5391,13.7552,13.888,14.157,14.4008,14.4008,14.5279,14.6041,14.4396,14.4022,14.326,14.0793,13.923,13.7997,13.7178,13.6618,13.595,13.487,13.4713,13.4713,13.4713,13.3836,13.2523,13.0975,12.99,12.9498,12.9974,12.9303,12.9987,13.2611,13.2039,13.1622,13.1622,13.2598,13.3333,13.3823,13.3839,13.4378,13.5422,13.4893,13.4907,13.5321,13.2976,13.1707,0.0,0.0,0.0,0.0,0.0,0.0,0.0,0.0,0.0,0.0,0.0,0.0,0.0,0.0,0.0,10.2295,10.7218,11.1481,11.4722,11.5551,11.4519,11.0893,11.0475,11.0253,10.9803,10.9505,10.8922,10.7953,11.0228,11.1587,11.1456,11.4382,11.6173,11.6509,11.6783,11.8251,12.1128,12.1156,12.2814,12.6029,12.6029,0.0,12.691,12.691,12.691,12.691,12.691,12.691,12.7053,12.8291,12.879,12.8648,12.7078,12.6507,12.6411,12.6125,12.5983,12.6054,12.6339,12.6507,12.6721,12.8291,12.879,12.9076,13.0289,13.0886,0.0,13.1171,13.3713,13.645,13.645,13.9275,14.2078,14.2078,14.3461,14.398,14.1089,14.2504,14.3041,13.8934,13.8257,13.7908,13.6611,13.4599,13.3081,13.281,13.3029,13.3081,13.281,13.2286,13.0949,12.8466,12.7434,12.7311,12.8087,12.5665,12.5832,12.9796,12.8474,12.765,12.7885,12.8686,12.936,12.9777,12.8974,12.9543,13.1463,13.0655,13.0747,13.1612,12.6321,12.4743,0.0,0.0,0.0,0.0,0.0,0.0,0.0,0.0,0.0,0.0,0.0,0.0,0.0,0.0,0.0,0.0,10.38,10.89,10.9344,10.8288,10.7022,10.5857,10.5718,10.5995,10.659,10.5537,10.5213,10.6311,10.671,10.6863,10.6862,10.9605,0.0,0.0,0.0,11.606,11.7916,11.7916,11.9496,12.2591,12.2591,12.4111,12.691,12.691,12.691,12.691,12.691,12.691,12.691,12.7124,12.7195,12.7053,12.5437,12.4891,12.4652,12.32,12.263,12.2844,12.4367,0.0,0.0,12.6721,12.7195,12.7195,12.7409,12.8434,12.9504,12.9504,13.1533,13.3619,13.3619,13.6397,13.9237,13.9237,14.1216,14.2793,14.1347,14.0933,14.056,13.9563,13.7845,13.6668,13.6935,13.1839,12.7311,12.5903,12.6906,12.7311,12.5903,12.683,12.7493,12.7161,12.7011,0.0,12.7136,12.4226,12.3773,12.7136,12.5497,12.4746,12.5712,12.5875,12.5321,12.399,12.3886,12.4657,12.6246,12.6124,12.6517,12.7198,11.6126,11.2787,0.0,0.0,0.0,0.0,0.0,0.0,0.0,0.0,0.0,0.0,0.0,0.0,0.0,0.0,0.0,0.0,9.343,9.8002,9.58,9.7156,9.8921,10.0407,10.0551,10.106,10.2274,10.1878,10.2083,10.3425,10.4387,10.5279,10.6102,10.8041,10.9501,11.0109,11.0741,11.1832,11.3439,11.4292,11.5831,11.8135,11.8952,12.0583,12.2768,12.2768,12.328,12.4128,12.4128,12.4128,12.4199,12.5151,12.558,12.5223,0.0,0.0,0.0,0.0,12.0728,12.0799,12.1513,12.1822,12.2155,12.4723,12.558,12.5722,12.6625,12.7409,12.7909,12.7909,12.9135,13.0685,13.1582,13.3413,13.5413,13.6969,13.8921,14.0245,13.9413,14.0008,13.9876,13.6899,13.5282,0.0,13.4724,13.2431,12.947,12.6418,12.7292,12.772,12.615,12.6507,12.6197,12.4271,12.4128,12.4128,12.4128,12.1988,0.0,0.0,0.0,12.2606,12.2143,12.2092,0.0,0.0,0.0,11.5754,11.7049,11.3336,0.0,0.0,10.5721,10.4917,0.0,0.0,0.0,0.0,0.0,0.0,0.0,0.0,0.0,0.0,0.0,0.0,0.0,0.0,0.0,0.0,8.3466,8.7664,8.3707,8.6566,9.0264,9.3376,9.447,9.5375,9.6615,9.7453,9.8576,10.0376,10.1531,10.2978,10.4852,10.6298,10.7284,10.7678,10.8073,10.8814,10.9925,11.0996,11.2331,11.3982,11.5018,11.6398,11.7971,11.7971,11.8725,12.0216,12.0216,12.0413,12.0918,12.2083,12.2583,12.2226,11.8801,11.8088,11.9087,11.9087,11.9087,11.9087,11.9087,11.9087,11.9515,12.1869,12.2583,12.2797,12.401,12.4913,12.5555,12.5555,12.6789,12.8307,12.9438,13.05,13.179,13.3685,13.5593,13.6918,13.6417,13.8119,13.8814,13.545,13.3061,13.1496,13.1192,13.1197,13.0085,12.6778,12.7292,12.7577,12.6436,12.5911,12.4841,12.2986,12.2344,12.2059,12.2059,12.0228,12.03,12.3107,12.1298,11.9848,11.9158,11.8302,11.7667,11.7266,11.1861,10.8556,0.0,0.0,0.0,0.0,0.0,0.0,0.0,0.0,0.0,0.0,0.0,0.0,0.0,0.0,0.0,0.0,0.0,0.0,0.0,0.0,0.0,0.0,0.0,0.0,7.6343,7.8142,8.1046,8.4207,8.7007,8.8822,8.9101,9.1725,9.4459,9.7353,9.755,9.8835,10.1662,10.3306,10.4753,10.6134,10.7581,10.8304,10.8372,10.8372,10.918,11.078,11.078,11.1739,11.3324,11.3324,11.4107,11.551,11.551,11.6265,11.7588,11.7565,11.766,11.766,11.7445,11.7422,11.7517,11.7517,11.7517,11.7517,11.7517,11.7517,11.7517,11.7588,11.766,11.766,11.7731,11.9776,12.2202,12.2202,12.4509,12.6986,12.7057,12.7863,12.8599,12.8716,13.0672,13.2594,13.2539,13.458,13.652,13.6837,13.1961,12.7345,12.6374,12.6179,12.5876,12.4873,12.4748,0.0,12.4677,12.3225,12.2772,12.4391,12.3058,12.2059,12.2059,11.9277,11.8159,11.9824,11.6994,11.5924,11.7445,11.4591,11.2973,11.2946,10.9755,10.5205,9.9154,0.0,0.0,0.0,0.0,0.0,0.0,0.0,0.0,0.0,0.0,0.0,0.0,0.0,0.0,0.0,0.0,0.0,0.0,0.0,0.0,0.0,0.0,0.0,0.0,7.378,7.7076,8.0997,8.2316,8.2909,8.3013,8.5656,8.8549,9.147,9.3508,9.581,9.8638,9.9295,10.0282,10.1696,10.3175,10.3898,10.3898,10.5871,10.7126,10.7687,10.8583,10.9928,11.1481,11.1481,11.2309,11.3831,11.3831,11.4645,11.6024,11.6024,11.3623,10.9975,10.9975,11.108,11.2785,11.2785,11.2785,11.2785,11.2785,11.2785,11.2928,11.4021,11.4306,11.4306,11.4306,11.5781,11.7422,11.7422,11.8207,11.9776,12.2915,12.3206,12.3432,12.6258,12.8892,13.0631,13.0293,13.1702,13.2804,13.1912,12.8751,12.4733,11.9958,12.2629,12.3461,11.7625,12.03,12.3368,12.4463,12.3154,12.2273,12.2844,12.1513,12.0085,11.9063,11.7993,11.766,11.8159,11.7208,11.6423,11.5924,11.3878,11.1759,10.969,10.7599,10.1391,9.0884,0.0,0.0,0.0,0.0,0.0,0.0,0.0,0.0,0.0,0.0,0.0,0.0,0.0,0.0,0.0,0.0,0.0,0.0,0.0,0.0,0.0,0.0,0.0,0.0,0.0,0.0,7.7308,7.7792,0.0,7.7792,7.9017,8.1014,8.3973,8.6341,8.9431,9.3341,9.4064,9.5481,9.7949,9.9427,10.015,10.015,10.2583,10.403,10.4556,10.5476,10.6763,10.8227,10.8227,10.9099,11.0686,11.0686,11.1199,11.1903,11.0341,10.7108,10.3093,10.3093,10.3894,10.5121,10.5641,10.6161,10.6703,10.7151,10.7692,10.8162,10.8507,10.7844,10.6907,10.6907,10.8027,10.9646,11.1287,11.2143,11.3641,11.835,11.8444,11.7963,12.0734,12.3006,12.4622,12.4635,12.6115,12.7,12.5503,12.3983,12.1272,11.5977,11.8339,11.9321,11.4598,11.7131,12.0775,12.4177,12.3154,12.2273,12.294,12.1013,11.9301,11.8302,11.7731,11.7137,11.6637,11.6566,11.5639,11.3499,11.188,10.9097,10.4837,10.2604,9.6663,0.0,0.0,0.0,0.0,0.0,0.0,0.0,0.0,0.0,0.0,0.0,0.0,0.0,0.0,0.0,0.0,0.0,0.0,0.0,0.0,0.0,0.0,0.0,0.0,0.0,0.0,0.0,7.2969,7.3166,0.0,0.0,0.0,0.0,7.503,7.6698,8.0078,8.5644,8.7327,9.0155,9.4363,9.6007,9.6958,9.709,9.8572,9.9987,10.1334,10.1399,10.2254,10.3701,10.3767,10.4537,10.5787,10.5787,10.5824,10.5485,10.0854,9.8148,9.6777,9.657,9.5722,9.4732,9.623,9.761,9.8943,10.0639,10.2012,10.2787,10.1021,9.8342,9.5749,9.5664,9.6825,0.0,0.0,10.5958,10.8263,11.3213,11.3285,11.2237,11.2522,11.3852,11.5326,11.6269,11.8372,11.9576,11.7506,11.7108,11.6162,11.3088,0.0,11.278,11.4573,11.4747,11.6994,12.3368,12.3011,12.2701,12.432,12.1608,11.9681,11.9538,11.8088,11.6495,11.4925,11.4783,11.3356,11.0288,10.8455,10.4551,9.8394,9.4879,0.0,0.0,0.0,0.0,0.0,0.0,0.0,0.0,0.0,0.0,0.0,0.0,0.0,0.0,0.0,0.0,0.0,0.0,0.0,0.0,0.0,0.0,0.0,0.0,0.0,0.0,6.1879,6.3108,6.8126,6.6897,6.5187,0.0,0.0,0.0,0.0,0.0,0.0,7.5341,7.7817,8.062,8.3842,8.7552,9.0446,9.2617,9.5087,9.6533,9.6928,9.798,9.8703,9.9129,10.0216,10.0897,10.1203,10.1203,10.1312,10.0663,9.1887,8.7457,8.5852,8.249,8.1692,8.2567,8.5064,8.5529,8.5619,9.028,9.1388,9.0579,8.903,8.7953,8.7009,8.5447,0.0,0.0,0.0,0.0,9.5968,10.4225,10.5244,10.5244,10.9882,11.281,11.4379,11.4081,11.6034,11.4871,10.4798,10.2795,10.0312,9.272,9.5469,0.0,9.7891,10.4675,11.2165,11.8444,12.0918,12.2273,12.2701,12.0942,11.8801,11.6495,11.4877,11.3307,11.1715,11.0524,10.8955,10.7028,10.2125,9.6987,9.1759,0.0,0.0,0.0,0.0,0.0,0.0,0.0,0.0,0.0,0.0,0.0,0.0,0.0,0.0,0.0,0.0,0.0,0.0,0.0,0.0,0.0,0.0,0.0,0.0,0.0,0.0,0.0,5.8459,6.0892,6.4727,6.2622,6.0846,0.0,0.0,0.0,0.0,0.0,0.0,0.0,0.0,0.0,7.5204,7.8409,8.1106,8.3382,8.6867,8.9563,9.1564,9.3604,9.5218,9.6468,9.7322,9.762,9.762,9.762,9.446,8.8829,8.298,7.8632,7.5359,0.0,0.0,0.0,0.0,7.5327,7.5803,7.9688,8.0934,8.0547,7.889,0.0,0.0,0.0,0.0,0.0,0.0,0.0,8.8636,9.7033,9.9679,10.0963,10.4439,10.6422,10.7577,10.7777,10.4957,10.0305,9.3622,9.2808,9.1159,8.4738,8.6904,0.0,0.0,0.0,10.6529,11.3427,11.8302,12.1274,12.1988,12.0085,11.7731,11.5282,11.2999,11.1024,10.9525,10.7906,10.5408,10.184,9.6273,8.9707,0.0,0.0,0.0,0.0,0.0,0.0,0.0,0.0,0.0,0.0,0.0,0.0,0.0,0.0,0.0,0.0,0.0,0.0,0.0,0.0,0.0,0.0,0.0,0.0,0.0,0.0,0.0,0.0,0.0,6.0489,6.1894,0.0,0.0,0.0,0.0,0.0,0.0,0.0,0.0,0.0,0.0,0.0,0.0,0.0,7.1173,7.2772,7.6674,8.0554,8.4395,8.7157,8.9694,9.2128,9.2325,9.2588,9.2917,9.2193,0.0,7.4899,7.4133,0.0,0.0,0.0,0.0,0.0,0.0,0.0,0.0,0.0,0.0,0.0,0.0,0.0,0.0,0.0,0.0,0.0,0.0,0.0,0.0,0.0,0.0,9.6235,9.6235,9.6734,9.7324,9.7843,8.9855,8.2845,8.374,8.5093,8.5096,0.0,0.0,0.0,0.0,0.0,0.0,10.8526,11.5305,11.9943,12.1346,11.8992,11.6709,11.4925,11.2072,10.9668,10.7906,10.5316,10.132,9.5721,9.0492,0.0,0.0,0.0,0.0,0.0,0.0,0.0,0.0,0.0,0.0,0.0,0.0,0.0,0.0,0.0,0.0,0.0,0.0,0.0,0.0,0.0,0.0,0.0,0.0,0.0,0.0,0.0,0.0,0.0,0.0,0.0,0.0,0.0,0.0,0.0,0.0,0.0,0.0,0.0,0.0,0.0,0.0,0.0,0.0,0.0,0.0,0.0,0.0,0.0,0.0,7.4067,7.5185,7.5712,7.6872,7.8713,8.0711,7.5885,7.242,7.0011,6.5232,0.0,0.0,0.0,0.0,0.0,0.0,0.0,0.0,0.0,0.0,0.0,0.0,0.0,0.0,0.0,0.0,0.0,0.0,0.0,0.0,0.0,0.0,8.318,8.318,8.6105,8.7603,8.2713,0.0,0.0,0.0,0.0,0.0,0.0,0.0,0.0,0.0,0.0,0.0,10.3879,11.2357,11.7945,11.8207,11.7731,11.6232,11.3378,11.143,10.9169,10.6315,9.8518,9.2953,0.0,0.0,0.0,0.0,0.0,0.0,0.0,0.0,0.0,0.0,0.0,0.0,0.0,0.0,0.0,0.0,0.0,0.0,0.0,0.0,0.0,0.0,0.0,0.0,0.0,0.0,0.0,0.0,0.0,0.0,0.0,0.0,0.0,0.0,0.0,0.0,0.0,0.0,0.0,0.0,0.0,0.0,0.0,0.0,0.0,0.0,0.0,0.0,0.0,0.0,0.0,0.0,0.0,0.0,0.0,0.0,0.0,0.0,6.6739,6.3043,0.0,0.0,0.0,0.0,0.0,0.0,0.0,0.0,0.0,0.0,0.0,0.0,0.0,0.0,0.0,0.0,0.0,0.0,0.0,0.0,0.0,0.0,0.0,0.0,0.0,0.0,0.0,0.0,0.0,0.0,0.0,0.0,0.0,0.0,0.0,0.0,0.0,0.0,0.0,0.0,10.1895,11.0571,11.6495,11.7351,11.6709,11.5081,11.2371,11.0349,10.6279,9.953,9.355,0.0,0.0,0.0,0.0,0.0,0.0,0.0,0.0,0.0,0.0,0.0,0.0,0.0,0.0,0.0,0.0,0.0,0.0,0.0,0.0,0.0,0.0,0.0,0.0,0.0,0.0,0.0,0.0,0.0,0.0,0.0,0.0,0.0,0.0,0.0,0.0,0.0,0.0,0.0,0.0,0.0,0.0,0.0,0.0,0.0,0.0,0.0,0.0,0.0,0.0,0.0,0.0,0.0,0.0,0.0,0.0,0.0,0.0,0.0,6.0279,5.6726,0.0,0.0,0.0,0.0,0.0,0.0,0.0,0.0,0.0,0.0,0.0,0.0,0.0,0.0,0.0,0.0,0.0,0.0,0.0,0.0,0.0,0.0,0.0,0.0,0.0,0.0,0.0,0.0,0.0,0.0,0.0,0.0,0.0,0.0,0.0,0.0,0.0,0.0,0.0,0.0,10.0199,10.8962,11.5068,11.6304,11.551,11.3845,11.1276,10.9563,10.4123,9.3602,8.9472,0.0,0.0,0.0,0.0,0.0,0.0,0.0,0.0,0.0,0.0,0.0,0.0,0.0,0.0,0.0,0.0,0.0,0.0,0.0,0.0,0.0,0.0,0.0,0.0,0.0,0.0,0.0,0.0,0.0,0.0,0.0,0.0,0.0,0.0,0.0,0.0,0.0,0.0,0.0,0.0,0.0,0.0,0.0,0.0,0.0,0.0,0.0,0.0,0.0,0.0,0.0,0.0,0.0,0.0,0.0,0.0,0.0,0.0,0.0,0.0,0.0,0.0,0.0,0.0,0.0,0.0,0.0,0.0,0.0,0.0,0.0,0.0,0.0,0.0,0.0,0.0,0.0,0.0,0.0,0.0,0.0,0.0,0.0,0.0,0.0,0.0,0.0,0.0,0.0,0.0,0.0,0.0,0.0,0.0,0.0,0.0,0.0,0.0,0.0,0.0,0.0,9.7019,10.6597,11.3022,11.3164,11.3811,11.2906,10.9743,11.0023,10.5357,9.3681,0.0,0.0,0.0,0.0,0.0,0.0,0.0,0.0,0.0,0.0,0.0,0.0,0.0,0.0,0.0,0.0,0.0,0.0,0.0,0.0,0.0,0.0,0.0,0.0,0.0,0.0,0.0,0.0,0.0,0.0,0.0,0.0,0.0,0.0,0.0,0.0,0.0,0.0,0.0,0.0,0.0,0.0,0.0,0.0,0.0,0.0,0.0,0.0,0.0,0.0,0.0,0.0,0.0,0.0,0.0,0.0,0.0,0.0,0.0,0.0,0.0,0.0,0.0,0.0,0.0,0.0,0.0,0.0,0.0,0.0,0.0,0.0,0.0,0.0,0.0,0.0,0.0,0.0,0.0,0.0,0.0,0.0,0.0,0.0,0.0,0.0,0.0,0.0,0.0,0.0,0.0,0.0,0.0,0.0,0.0,0.0,0.0,0.0,0.0,0.0,0.0,0.0,9.7959,10.7816,11.4385,11.4385,11.4741,11.4222,11.2395,11.1254,10.4695,9.0756,0.0,0.0,0.0,0.0,0.0,0.0,0.0,0.0,0.0,0.0,0.0,0.0,0.0,0.0,0.0,0.0,0.0,0.0,0.0,0.0,0.0,0.0,0.0,0.0,0.0,0.0,0.0,0.0,0.0,0.0,0.0,0.0,0.0,0.0,0.0,0.0,0.0,0.0,0.0,0.0,0.0,0.0,0.0,0.0,0.0,0.0,0.0,0.0,0.0,0.0,0.0,0.0,0.0,0.0,0.0,0.0,0.0,0.0,0.0,0.0,0.0,0.0,0.0,0.0,0.0,0.0,0.0,0.0,0.0,0.0,0.0,0.0,0.0,0.0,0.0,0.0,0.0,0.0,0.0,0.0,0.0,0.0,0.0,0.0,0.0,0.0,0.0,0.0,0.0,0.0,0.0,0.0,0.0,0.0,0.0,0.0,0.0,0.0,0.0,0.0,0.0,0.0,9.8215,10.8568,11.5443,11.5443,11.5693,11.5485,11.4389,11.209,10.4353,8.9506,0.0,0.0,0.0,0.0,0.0,0.0,0.0,0.0,0.0,0.0,0.0,0.0,0.0,0.0,0.0,0.0,0.0,0.0,0.0,0.0,0.0,0.0,0.0,0.0,0.0,0.0,0.0,0.0,0.0,0.0,0.0,0.0,0.0,0.0,0.0,0.0,0.0,0.0,0.0,0.0,0.0,0.0,0.0,0.0,0.0,0.0,0.0,0.0,0.0,0.0,0.0,0.0,0.0,0.0,0.0,0.0,0.0,0.0,0.0,0.0,0.0,0.0,0.0,0.0,0.0,0.0,0.0,0.0,0.0,0.0,0.0,0.0,0.0,0.0,0.0,0.0,0.0,0.0,0.0,0.0,0.0,0.0,0.0,0.0,0.0,0.0,0.0,0.0,0.0,0.0,0.0,0.0,0.0,0.0,0.0,0.0,0.0,0.0,0.0,0.0,0.0,0.0,9.6785,10.7905,11.5443,11.5443,11.6287,11.615,11.4431,11.2177,10.4929,0.0,0.0,0.0,0.0,0.0,0.0,0.0,0.0,0.0,0.0,0.0,0.0,0.0,0.0,0.0,0.0,0.0,0.0,0.0,0.0,0.0,0.0,0.0,0.0,0.0,0.0,0.0,0.0,0.0,0.0,0.0,0.0,0.0,0.0,0.0,0.0,0.0,0.0,0.0,0.0,0.0,0.0,0.0,0.0,0.0,0.0,0.0,0.0,0.0,0.0,0.0,0.0,0.0,0.0,0.0,0.0,0.0,0.0,0.0,0.0,0.0,0.0,0.0,0.0,0.0,0.0,0.0,0.0,0.0,0.0,0.0,0.0,0.0,0.0,0.0,0.0,0.0,0.0,0.0,0.0,0.0,0.0,0.0,0.0,0.0,0.0,0.0,0.0,0.0,0.0,0.0,0.0,0.0,0.0,0.0,0.0,0.0,0.0,0.0,0.0,0.0,0.0,0.0,9.7151,10.5407,11.2304,11.6867,11.7581,11.7555,11.7033,11.3189,10.6079,9.4902,0.0,0.0,0.0,0.0,0.0,0.0,0.0,0.0,0.0,0.0,0.0,0.0,0.0,0.0,0.0,0.0,0.0,0.0,0.0,0.0,0.0,0.0,0.0,0.0,0.0,0.0,0.0,0.0,0.0,0.0,0.0,0.0,0.0,0.0,0.0,0.0,0.0,0.0,0.0,0.0,0.0,0.0,0.0,0.0,0.0,0.0,0.0,0.0,0.0,0.0,0.0,0.0,0.0,0.0,0.0,0.0,0.0,0.0,0.0,0.0,0.0,0.0,0.0,0.0,0.0,0.0,0.0,0.0,0.0,0.0,0.0,0.0,0.0,0.0,0.0,0.0,0.0,0.0,0.0,0.0,0.0,0.0,0.0,0.0,0.0,0.0,0.0,0.0,0.0,0.0,0.0,0.0,0.0,0.0,0.0,0.0,0.0,0.0,0.0,0.0,0.0,0.0,0.0,10.4539,11.1793,11.5905,11.6354,11.6354,11.6354,11.1803,10.5297,9.6538,0.0,0.0,0.0,0.0,0.0,0.0,0.0,0.0,0.0,0.0,0.0,0.0,0.0,0.0,0.0,0.0,0.0,0.0,0.0,0.0,0.0,0.0,0.0,0.0,0.0,0.0,0.0,0.0,0.0,0.0,0.0,0.0,0.0,0.0,0.0,0.0,0.0,0.0,0.0,0.0,0.0,0.0,0.0,0.0,0.0,0.0,0.0,0.0,0.0,0.0,0.0,0.0,0.0,0.0,0.0,0.0,0.0,0.0,0.0,0.0,0.0,0.0,0.0,0.0,0.0,0.0,0.0,0.0,0.0,0.0,0.0,0.0,0.0,0.0,0.0,0.0,0.0,0.0,0.0,0.0,0.0,0.0,0.0,0.0,0.0,0.0,0.0,0.0,0.0,0.0,0.0,0.0,0.0,0.0,0.0,0.0,0.0,0.0,0.0,0.0,0.0,0.0,0.0,10.4753,11.2679,11.3288,11.3352,11.3352,11.3352,10.8802,10.3118,9.6463,8.5404,0.0,0.0,0.0,0.0,0.0,0.0,0.0,0.0,0.0,0.0,0.0,0.0,0.0,0.0,0.0,0.0,0.0,0.0,0.0,0.0,0.0,0.0,0.0,0.0,0.0,0.0,0.0,0.0,0.0,0.0,0.0,0.0,0.0,0.0,0.0,0.0,0.0,0.0,0.0,0.0,0.0,0.0,0.0,0.0,0.0,0.0,0.0,0.0,0.0,0.0,0.0,0.0,0.0,0.0,0.0,0.0,0.0,0.0,0.0,0.0,0.0,0.0,0.0,0.0,0.0,0.0,0.0,0.0,0.0,0.0,0.0,0.0,0.0,0.0,0.0,0.0,0.0,0.0,0.0,0.0,0.0,0.0,0.0,0.0,0.0,0.0,0.0,0.0,0.0,0.0,0.0,0.0,0.0,0.0,0.0,0.0,0.0,0.0,0.0,0.0,0.0,0.0,10.1174,10.6249,11.2679,11.3352,11.3352,11.3352,10.8802,10.3118,9.6463,8.7565,0.0,0.0,0.0,0.0,0.0,0.0,0.0,0.0,0.0,0.0,0.0,0.0,0.0,0.0,0.0,0.0,0.0,0.0,0.0,0.0,0.0,0.0,0.0,0.0,0.0,0.0,0.0,0.0,0.0,0.0,0.0,0.0,0.0,0.0,0.0,0.0,0.0,0.0,0.0,0.0,0.0,0.0,0.0,0.0,0.0,0.0,0.0,0.0,0.0,0.0,0.0,0.0,0.0,0.0,0.0,0.0,0.0,0.0,0.0,0.0,0.0,0.0,0.0,0.0,0.0,0.0,0.0,0.0,0.0,0.0,0.0,0.0,0.0,0.0,0.0,0.0,0.0,0.0,0.0,0.0,0.0,0.0,0.0,0.0,0.0,0.0,0.0,0.0,0.0,0.0,0.0,0.0,0.0,0.0,0.0,0.0,0.0,0.0,0.0,0.0,0.0,0.0,9.265,9.8174,10.8802,11.0596,11.0447,10.8941,10.5576,10.0501,9.3107,8.5629,0.0,0.0,0.0,0.0,0.0,0.0,0.0,0.0,0.0,0.0,0.0,0.0,0.0,0.0,0.0,0.0,0.0,0.0,0.0,0.0,0.0,0.0,0.0,0.0,0.0,0.0,0.0,0.0,0.0,0.0,0.0,0.0,0.0,0.0,0.0,0.0,0.0,0.0,0.0,0.0,0.0,0.0,0.0,0.0,0.0,0.0,0.0,0.0,0.0,0.0,0.0,0.0,0.0,0.0,0.0,0.0,0.0,0.0,0.0,0.0,0.0,0.0,0.0,0.0,0.0,0.0,0.0,0.0,0.0,0.0,0.0,0.0,0.0,0.0,0.0,0.0,0.0,0.0,0.0,0.0,0.0,0.0,0.0,0.0,0.0,0.0,0.0,0.0,0.0,0.0,0.0,0.0,0.0,0.0,0.0,0.0,0.0,0.0,0.0,0.0,0.0,0.0,0.0,9.1013,10.2819,10.611,10.6334,10.3258,10.1464,9.6977,8.877,0.0,0.0,0.0,0.0,0.0,0.0,0.0,0.0,0.0,0.0,0.0,0.0,0.0,0.0,0.0,0.0,0.0,0.0,0.0,0.0,0.0,0.0,0.0,0.0,0.0,0.0,0.0,0.0,0.0,0.0,0.0,0.0,0.0,0.0,0.0,0.0,0.0,0.0,0.0,0.0,0.0,0.0,0.0,0.0,0.0,0.0,0.0,0.0,0.0,0.0,0.0,0.0,0.0,0.0,0.0,0.0,0.0,0.0,0.0,0.0,0.0,0.0,0.0,0.0,0.0,0.0,0.0,0.0,0.0,0.0,0.0,0.0,0.0,0.0,0.0,0.0,0.0,0.0,0.0,0.0,0.0,0.0,0.0,0.0,0.0,0.0,0.0,0.0,0.0,0.0,0.0,0.0,0.0,0.0,0.0,0.0,0.0,0.0,0.0,0.0,0.0,0.0,0.0,0.0,9.0116,9.4893,10.0651,10.3408,10.1464,9.9828,9.5351,8.705,0.0,0.0,0.0,0.0,0.0,0.0,0.0,0.0,0.0,0.0,0.0,0.0,0.0,0.0]}]]]